     2              OBSERVATION DATA    GPS                 RINEX VERSION / TYPE
teqc 2000Feb29 Duncan Agnew 20000428 21:03:40UTC            PGM / RUN BY / DATE
                                                            COMMENT
L2: 1 -> 1; 150 -> 5; 250 -> 9                              COMMENT
L2: 1 -> 1; 150 -> 5; 250 -> 9                              COMMENT
L2: 1 -> 1; 150 -> 5; 250 -> 9                              COMMENT
L2: 1 -> 1; 150 -> 5; 250 -> 9                              COMMENT
L2: 1 -> 1; 150 -> 5; 250 -> 9                              COMMENT
Original Marker Name: SCP4                                  COMMENT
Campaign Name: Hector Postseismic                           COMMENT
4-Character Station Name: SCP4                              COMMENT
6-Character Antenna Code: DMRCHT                            COMMENT
Vertical Measurement Point: BCR                             COMMENT
Vertical Offset to Rinex Ref. Point: 0.0348                 COMMENT
Radial Measurement Point: ECF                               COMMENT
Radial Offset to Rinex Ref. Point: 0.1897                   COMMENT
Antenna Height from Field Measurement: 0.7604 m             COMMENT
Additional Antenna Identification Info.:                    COMMENT
Turborogue and Ashtech Choke Ring                           COMMENT
antenna set to mag N                                        COMMENT
Original XYZ: -2326511.9039 -4730961.8163 3578739.9030      COMMENT
New XYZ position is based on association with SCEC monument COMMENT
E1F2H1Q0+0011. Position of that monument is believed to be  COMMENT
valid to within 1 m horizontally; vertical accuracy         COMMENT
should be no worse than 3-times this value.                 COMMENT
                                                            COMMENT
Revised Rinex header created by UCSD GPS archive for        COMMENT
GSAC on 13-Aug-2000 (2000:226) 00:45:35 GMT                 COMMENT
For assistance contact dagnew@ucsd.edu                      COMMENT
or anderson@python.ucsd.edu                                 COMMENT
                                                            COMMENT
BLADE 1973                                                  MARKER NAME
SEO UNIV SOUTHERN CALIFORNIA                                OBSERVER / AGENCY
175 ASHTECH Z-XII3 CD00                                     REC # / TYPE / VERS
381 DORNE-MARGOL. TYPE T                                    ANT # / TYPE
 -2326505.0078 -4730926.0335  3578746.3408                  APPROX POSITION XYZ
        0.7016        0.0000        0.0000                  ANTENNA: DELTA H/E/N
     1     1     0                                          WAVELENGTH FACT L1/2
     7    C1    L1    L2    P1    P2    S1    S2            # / TYPES OF OBSERV
     0                                                      INTERVAL
  2000     4    20     0     0   30.000000                  TIME OF FIRST OBS
  2000     4    20    23    59   30.000000                  TIME OF LAST OBS
                                                            END OF HEADER
 00  4 20  0  0 30.0000000  0  6G 6G23G26G17G22G21
  20981659.206   -25994062.00949 -20245496.48547  20981659.270    20981670.038
       240.000         205.000
  20921155.714   -23732844.16249 -18174867.56348  20921155.066    20921165.294
       245.000         214.000
  21733359.115   -15548471.55049 -12100631.30247  21733359.119    21733369.850
       233.000         189.000
  20783972.919   -25256906.72849 -19663966.01348  20783972.046    20783982.221
       244.000         213.000
  23766949.081    -9725746.47849  -7567705.75145  23766948.254    23766964.177
       209.000         153.000
  23735181.401   -12176999.04649  -6770739.00345  23735179.307    23735198.182
       217.000         159.000
 00  4 20  0  1  0.0000000  0  6G 6G23G26G17G22G21
  20993603.800   -25931293.27249 -20196585.84847  20993604.020    20993614.739
       241.000         205.000
  20915968.789   -23760101.33949 -18196106.85348  20915968.147    20915978.331
       245.000         214.000
  21736960.377   -15529546.50549 -12085884.47947  21736960.585    21736971.211
       232.000         189.000
  20782858.830   -25262761.20849 -19668527.92648  20782858.347    20782868.498
       243.000         213.000
  23769374.638    -9713000.32149  -7557773.70345  23769374.265    23769389.132
       210.000         153.000
  23720339.467   -12254992.40249  -6831512.67345  23720337.902    23720355.798
       217.000         160.000
 00  4 20  0  1 30.0000000  0  6G 6G23G26G17G22G21
  21005634.348   -25868072.48449 -20147322.96347  21005634.182    21005645.190
       240.000         204.000
  20910853.643   -23786981.37349 -18217052.26448  20910853.028    20910863.379
       246.000         214.000
  21740678.549   -15510007.30449 -12070659.08747  21740679.061    21740689.405
       232.000         189.000
  20781780.879   -25268425.80549 -19672941.87648  20781780.143    20781790.328
       244.000         213.000
  23771892.155    -9699770.61549  -7547464.86845  23771890.752    23771906.270
       210.000         154.000
  23705534.603   -12332790.82149  -6892134.43745  23705534.030    23705550.701
       218.000         161.000
 00  4 20  0  2  0.0000000  0  6G 6G23G26G17G22G21
  21017749.142   -25804408.96649 -20097715.09847  21017748.915    21017759.676
       240.000         204.000
  20905811.546   -23813477.64249 -18237698.63548  20905810.848    20905821.045
       246.000         214.000
  21744513.492   -15489854.29149 -12054955.39947  21744513.706    21744524.211
       232.000         188.000
  20780744.074   -25273874.08849 -19677187.26748  20780743.071    20780753.282
       243.000         213.000
  23774502.531    -9686053.04949  -7536775.89845  23774501.525    23774517.376
       209.000         153.000
  23690767.116   -12410393.13949  -6952603.40345  23690765.744    23690783.007
       217.000         161.000
 00  4 20  0  2 30.0000000  0  6G 6G23G26G17G22G21
  21029946.247   -25740312.96249 -20047770.23147  21029946.151    21029957.244
       240.000         204.000
  20900842.911   -23839587.77749 -18258044.13348  20900842.178    20900852.411
       246.000         214.000
  21748469.497   -15469065.16449 -12038756.05347  21748469.408    21748480.506
       232.000         188.000
  20779749.504   -25279100.33449 -19681259.65147  20779748.839    20779758.823
       244.000         212.000
  23777206.271    -9671844.85149  -7525704.62045  23777205.923    23777221.113
       210.000         153.000
  23676040.245   -12487781.72149  -7012905.83045  23676038.739    23676055.567
       218.000         161.000
 00  4 20  0  3  0.0000000  0  6G 6G23G26G17G22G21
  21042226.465   -25675780.04249 -19997484.90347  21042226.490    21042237.054
       241.000         204.000
  20895946.694   -23865317.26249 -18278093.01748  20895946.028    20895956.263
       246.000         214.000
  21752548.041   -15447632.22249 -12022055.03447  21752547.695    21752559.143
       232.000         188.000
  20778793.649   -25284123.20449 -19685173.55947  20778792.951    20778803.251
       244.000         212.000
  23780003.154    -9657147.13749  -7514251.90845  23780001.637    23780018.368
       209.000         153.000
  23661352.639   -12564964.09049  -7073047.56545  23661350.888    23661368.406
       218.000         162.000
 00  4 20  0  3 30.0000000  0  6G 6G23G26G17G22G21
  21054588.762   -25610815.85149 -19946863.52447  21054588.702    21054599.384
       240.000         204.000
  20891120.548   -23890678.66649 -18297855.08448  20891119.789    20891129.804
       245.000         214.000
  21756747.065   -15425565.89549 -12004860.46347  21756747.247    21756757.718
       232.000         188.000
  20777873.720   -25288957.51549 -19688940.53747  20777873.068    20777883.084
       244.000         212.000
  23782891.522    -9641968.68449  -7502424.59945  23782890.707    23782906.547
       209.000         153.000
  23646700.608   -12641959.55949  -7133043.67545  23646699.431    23646716.201
       218.000         162.000
 00  4 20  0  4  0.0000000  0  6G 6G23G26G17G22G21
  21067033.011   -25545421.16049 -19895906.69047  21067033.116    21067043.503
       239.000         203.000
  20886364.549   -23915671.15649 -18317329.68848  20886363.671    20886373.842
       246.000         214.000
  21761068.309   -15402857.67149 -11987165.71847  21761068.396    21761079.685
       232.000         188.000
  20776988.720   -25293608.20049 -19692564.43547  20776987.991    20776998.047
       244.000         212.000
  23785867.708    -9626329.05149  -7490237.93645  23785866.837    23785882.841
       211.000         153.000
  23632084.942   -12718764.00249  -7192890.93146  23632083.829    23632100.266
       219.000         163.000
 00  4 20  0  4 30.0000000  0  6G 6G23G26G17G22G21
  21079559.928   -25479592.08749 -19844611.38147  21079560.184    21079570.763
       239.000         203.000
  20881676.202   -23940308.14749 -18336527.28448  20881675.547    20881685.542
       246.000         215.000
  21765509.773   -15379517.60149 -11968978.63547  21765509.341    21765520.823
       232.000         188.000
  20776135.442   -25298092.10849 -19696058.37747  20776134.601    20776144.628
       244.000         212.000
  23788929.343    -9610240.16549  -7477701.20045  23788929.277    23788944.207
       210.000         153.000
  23617504.746   -12795382.15849  -7252593.03446  23617503.303    23617520.311
       220.000         164.000
 00  4 20  0  5  0.0000000  0  6G 6G23G26G17G22G21
  21092171.401   -25413318.50449 -19792969.70747  21092171.553    21092182.175
       240.000         203.000
  20877057.392   -23964580.08749 -18355440.42348  20877056.824    20877066.849
       245.000         215.000
  21770065.171   -15355578.73749 -11950324.95047  21770065.078    21770076.126
       232.000         188.000
  20775316.248   -25302396.96149 -19699412.79247  20775315.748    20775325.714
       244.000         212.000
  23792074.989    -9593709.74349  -7464820.41745  23792074.280    23792089.940
       209.000         152.000
  23602959.626   -12871815.82049  -7312151.37446  23602958.212    23602975.771
       220.000         165.000
 00  4 20  0  5 30.0000000  0  6G 6G23G26G17G22G21
  21104868.124   -25346597.20749 -19740979.16247  21104867.704    21104879.104
       240.000         202.000
  20872511.592   -23988468.24649 -18374054.51048  20872510.831    20872520.793
       245.000         215.000
  21774733.387   -15331046.88949 -11931209.20247  21774733.536    21774744.279
       232.000         188.000
  20774535.712   -25306498.74349 -19702608.97247  20774534.999    20774544.918
       244.000         212.000
  23795306.286    -9576729.37449  -7451589.02145  23795305.503    23795321.536
       210.000         153.000
  23588457.409   -12948024.06749  -7371534.08246  23588456.411    23588472.588
       221.000         166.000
 00  4 20  0  6  0.0000000  0  6G 6G23G26G17G22G21
  21117651.130   -25279422.43049 -19688635.25447  21117651.214    21117662.257
       239.000         202.000
  20868041.665   -24011957.57849 -18392357.82948  20868040.926    20868050.825
       246.000         215.000
  21779513.671   -15305926.39749 -11911634.78247  21779513.756    21779524.397
       232.000         188.000
  20773794.026   -25310396.24949 -19705645.98247  20773793.402    20773803.302
       244.000         212.000
  23798623.970    -9559295.13449  -7438003.95745  23798622.826    23798638.609
       210.000         152.000
  23574002.958   -13023981.63849  -7430721.46646  23574002.158    23574018.361
       221.000         167.000
 00  4 20  0  6 30.0000000  0  6G 6G23G26G17G22G21
  21130521.405   -25211789.06749 -19635934.00047  21130521.364    21130532.121
       240.000         202.000
  20863651.388   -24035028.34449 -18410334.98648  20863650.675    20863660.754
       246.000         215.000
  21784406.535   -15280214.09649 -11891599.19846  21784406.159    21784417.381
       232.000         187.000
  20773089.929   -25314096.23349 -19708529.07147  20773089.160    20773099.232
       244.000         212.000
  23802030.269    -9541395.36549  -7424056.13245  23802029.368    23802045.890
       210.000         153.000
  23559594.994   -13099694.70349  -7489718.32546  23559594.132    23559609.998
       221.000         167.000
 00  4 20  0  7  0.0000000  0  6G 6G23G26G17G22G21
  21143479.203   -25143695.77149 -19582874.36747  21143479.084    21143490.269
       240.000         202.000
  20859345.386   -24057656.41449 -18427967.19348  20859344.666    20859354.685
       246.000         215.000
  21789415.313   -15253892.57849 -11871088.91546  21789415.452    21789426.227
       232.000         187.000
  20772423.303   -25317599.34549 -19711258.76247  20772422.541    20772432.444
       244.000         212.000
  23805527.039    -9523019.99349  -7409737.70845  23805526.357    23805541.958
       210.000         152.000
  23545235.869   -13175150.93049  -7548515.06646  23545234.583    23545250.814
       221.000         167.000
 00  4 20  0  7 30.0000000  0  6G 6G23G26G17G22G21
  21156520.517   -25075163.64149 -19529472.78547  21156520.596    21156531.414
       240.000         202.000
  20855121.194   -24079854.44649 -18445264.30048  20855120.501    20855130.493
       246.000         215.000
  21794543.712   -15226942.81649 -11850089.08946  21794543.402    21794554.671
       232.000         187.000
  20771792.467   -25320914.30949 -19713841.83547  20771791.658    20771801.654
       245.000         212.000
  23809113.363    -9504174.08049  -7395052.62645  23809112.624    23809128.383
       209.000         152.000
  23530923.945   -13250359.42049  -7607118.77746  23530922.701    23530938.982
       222.000         167.000
 00  4 20  0  8  0.0000000  0  6G 6G23G26G17G22G21
  21169646.190   -25006188.01649 -19475725.63147  21169646.109    21169657.170
       239.000         201.000
  20850976.825   -24101632.84149 -18462234.42148  20850976.110    20850986.147
       245.000         215.000
  21799794.745   -15199348.25749 -11828586.83246  21799794.866    21799805.612
       232.000         187.000
  20771197.755   -25324039.65049 -19716277.15647  20771196.990    20771207.197
       244.000         212.000
  23812789.017    -9484858.40049  -7380001.47245  23812788.140    23812804.029
       208.000         152.000
  23516653.193   -13325351.39549  -7665553.78546  23516652.190    23516668.962
       222.000         168.000
 00  4 20  0  8 30.0000000  0  7G 6G23G26G 3G17G22G21
  21182854.921   -24936776.03949 -19421638.46047  21182854.965    21182865.852
       240.000         201.000
  20846909.220   -24123007.96049 -18478890.29948  20846908.585    20846918.589
       246.000         215.000
  21805169.949   -15171101.20649 -11806576.13846  21805170.145    21805180.768
       232.000         187.000
  24622271.191    -6045250.71749  -4681729.84845  24622270.317    24622285.695
       214.000         144.000
  20770640.537   -25326967.73249 -19718558.76547  20770639.795    20770649.929
       244.000         212.000
  23816553.172    -9465077.79049  -7364588.04245  23816552.334    23816568.028
       208.000         152.000
  23502421.020   -13400140.66249  -7723830.83446  23502419.304    23502435.554
       222.000         168.000
 00  4 20  0  9  0.0000000  0  7G 6G23G26G 3G17G22G21
  21196144.512   -24866939.06749 -19367220.13147  21196144.914    21196155.603
       239.000         201.000
  20842913.843   -24144003.80049 -18495250.63748  20842913.251    20842923.192
       245.000         215.000
  21810666.068   -15142218.90349 -11784070.43346  21810665.850    21810677.153
       232.000         187.000
  24602746.594    -6147852.33749  -4761678.97745  24602745.074    24602761.104
       214.000         146.000
  20770123.313   -25329685.72649 -19720676.67047  20770122.563    20770132.558
       243.000         212.000
  23820405.414    -9444834.08349  -7348813.76145  23820404.187    23820420.203
       210.000         151.000
  23488229.850   -13474714.49549  -7781940.02746  23488228.538    23488244.965
       222.000         168.000
 00  4 20  0  9 30.0000000  0  7G 6G23G26G 3G17G22G21
  21209513.579   -24796684.62649 -19312476.49547  21209513.319    21209524.345
       239.000         201.000
  20838986.859   -24164639.93749 -18511330.68648  20838986.180    20838996.112
       246.000         215.000
  21816280.926   -15112712.50449 -11761078.43046  21816281.023    21816292.238
       232.000         187.000
  24583239.323    -6250362.97549  -4841557.22145  24583238.568    24583253.830
       213.000         147.000
  20769648.339   -25332181.63949 -19722621.52247  20769647.632    20769657.453
       244.000         212.000
  23824346.466    -9424123.65249  -7332675.78645  23824345.679    23824361.668
       208.000         150.000
  23474076.281   -13549090.93849  -7839895.41646  23474074.646    23474091.073
       222.000         168.000
 00  4 20  0 10  0.0000000  0  7G 6G23G26G 3G17G22G21
  21222964.462   -24725999.90349 -19257397.58047  21222964.557    21222975.639
       240.000         201.000
  20835127.612   -24184920.22249 -18527133.45048  20835127.012    20835136.755
       246.000         215.000
  21822011.400   -15082598.68549 -11737613.10746  21822011.316    21822022.005
       232.000         187.000
  24563751.166    -6352773.13849  -4921357.14345  24563750.050    24563765.772
       212.000         148.000
  20769215.436   -25334456.45349 -19724394.08647  20769214.882    20769224.545
       244.000         212.000
  23828377.194    -9402941.84549  -7316170.51945  23828376.688    23828392.680
       207.000         151.000
  23459961.009   -13623265.97549  -7897693.85646  23459959.098    23459976.242
       222.000         168.000
 00  4 20  0 10 30.0000000  0  7G 6G23G26G 3G17G22G21
  21236495.703   -24654893.19149 -19201989.83847  21236495.660    21236506.699
       239.000         200.000
  20831337.298   -24204838.28049 -18542653.95548  20831336.496    20831346.468
       246.000         215.000
  21827853.463   -15051898.35949 -11713690.76346  21827853.491    21827864.934
       232.000         187.000
  24544284.708    -6455069.33949  -5001068.28845  24544284.495    24544298.441
       214.000         149.000
  20768822.783   -25336519.86549 -19726001.91847  20768822.064    20768832.153
       243.000         212.000
  23832495.329    -9381301.13549  -7299307.67045  23832494.937    23832509.821
       208.000         150.000
  23445888.594   -13697215.63249  -7955316.67946  23445887.230    23445903.189
       222.000         168.000
 00  4 20  0 11  0.0000000  0  7G 6G23G26G 3G17G22G21
  21250108.001   -24583360.47949 -19146250.15547  21250108.186    21250119.078
       239.000         200.000
  20827618.259   -24224381.54349 -18557882.42148  20827617.630    20827627.482
       246.000         215.000
  21833807.451   -15020610.06249 -11689310.27546  21833807.460    21833818.671
       232.000         187.000
  24524844.222    -6557229.19549  -5080673.18545  24524843.614    24524858.186
       212.000         150.000
  20768469.657   -25338375.55249 -19727447.89347  20768469.028    20768479.069
       244.000         212.000
  23836700.940    -9359200.69249  -7282086.61145  23836699.346    23836715.938
       208.000         150.000
  23431858.896   -13770940.87049  -8012764.64046  23431857.782    23431873.109
       221.000         168.000
 00  4 20  0 11 30.0000000  0  7G 6G23G26G 3G17G22G21
  21263802.247   -24511397.11949 -19090174.89547  21263802.346    21263813.310
       239.000         200.000
  20823973.680   -24243533.81449 -18572806.21448  20823972.934    20823982.804
       246.000         215.000
  21839875.452   -14988722.56349 -11664462.87646  21839875.199    21839886.349
       231.000         187.000
  24505428.325    -6659259.65649  -5160177.25345  24505428.155    24505442.672
       213.000         151.000
  20768155.570   -25340026.05249 -19728733.98447  20768154.846    20768164.847
       244.000         212.000
  23840992.579    -9336648.10249  -7264513.23045  23840992.374    23841007.670
       208.000         150.000
  23417869.932   -13844452.01949  -8070045.77346  23417868.597    23417884.707
       222.000         168.000
 00  4 20  0 12  0.0000000  0  7G 6G23G26G 3G17G22G21
  21277580.353   -24438993.14349 -19033756.30347  21277580.567    21277591.353
       238.000         200.000
  20820403.257   -24262296.27049 -18587426.25748  20820402.555    20820412.378
       246.000         215.000
  21846057.916   -14956233.42249 -11639146.65746  21846057.609    21846068.963
       232.000         187.000
  24486035.912    -6761167.01649  -5239585.41345  24486035.031    24486049.633
       212.000         151.000
  20767876.677   -25341491.80249 -19729876.11148  20767875.859    20767886.123
       244.000         213.000
  23845367.011    -9313660.70249  -7246601.03845  23845366.376    23845382.591
       209.000         150.000
  23403925.654   -13917728.65949  -8127144.18446  23403924.650    23403940.234
       222.000         168.000
 00  4 20  0 12 30.0000000  0  7G 6G23G26G 3G17G22G21
  21291441.048   -24366155.06249 -18976999.45547  21291440.692    21291451.899
       239.000         200.000
  20816908.760   -24280659.70549 -18601735.37748  20816908.024    20816917.979
       246.000         216.000
  21852357.122   -14923130.93149 -11613352.51146  21852357.538    21852367.726
       232.000         187.000
  24466667.084    -6862950.11149  -5318896.72845  24466666.070    24466681.641
       210.000         151.000
  20767633.003   -25342771.92349 -19730873.59448  20767632.217    20767642.250
       244.000         213.000
  23849823.376    -9290242.69049  -7228353.31445  23849822.851    23849839.169
       209.000         151.000
  23390026.272   -13990769.40549  -8184058.78346  23390024.953    23390040.619
       223.000         168.000
 00  4 20  0 13  0.0000000  0  7G 6G23G26G 3G17G22G21
  21305384.123   -24292883.85549 -18919905.10947  21305384.219    21305395.121
       238.000         199.000
  20813487.925   -24298636.16149 -18615742.95448  20813487.333    20813497.057
       246.000         216.000
  21858775.431   -14889402.46749 -11587070.58346  21858775.794    21858786.459
       232.000         187.000
  24447320.537    -6964616.27149  -5398116.94945  24447319.593    24447335.542
       210.000         150.000
  20767425.892   -25343860.21349 -19731721.60148  20767425.361    20767435.145
       244.000         213.000
  23854364.055    -9266381.65349  -7209760.39045  23854363.808    23854379.642
       210.000         150.000
  23376168.507   -14063591.48449  -8240802.99346  23376166.537    23376182.758
       221.000         168.000
 00  4 20  0 13 30.0000000  0  7G 6G23G26G 3G17G22G21
  21319409.031   -24219182.88749 -18862475.88147  21319408.960    21319420.028
       238.000         199.000
  20810138.141   -24316239.26049 -18629459.59748  20810137.422    20810147.231
       246.000         216.000
  21865310.912   -14855058.40149 -11560308.96446  21865310.670    21865321.737
       232.000         187.000
  24427991.960    -7066187.99749  -5477263.58445  24427991.284    24428005.419
       207.000         150.000
  20767255.190   -25344757.38749 -19732420.68248  20767254.509    20767264.668
       244.000         213.000
  23858988.495    -9242080.39949  -7190824.41845  23858988.436    23859003.970
       208.000         150.000
  23362353.651   -14136187.98049  -8297371.41446  23362352.220    23362368.461
       222.000         168.000
 00  4 20  0 14  0.0000000  0  7G 6G23G26G 3G17G22G21
  21333513.730   -24145062.41649 -18804719.76647  21333513.656    21333524.832
       238.000         199.000
  20806855.341   -24333490.16549 -18642901.81048  20806854.664    20806864.374
       246.000         216.000
  21871961.892   -14820107.00149 -11533074.10146  21871962.076    21871972.939
       231.000         186.000
  24408683.883    -7167651.82049  -5556326.14145  24408682.850    24408697.962
       209.000         149.000
  20767119.704   -25345469.15249 -19732975.29248  20767119.153    20767129.302
       244.000         213.000
  23863695.957    -9217342.71049  -7171548.38845  23863694.878    23863710.758
       210.000         150.000
  23348580.194   -14208566.98549  -8353770.37646  23348578.765    23348594.688
       221.000         168.000
 00  4 20  0 14 30.0000000  0  7G 6G23G26G 3G17G22G21
  21347695.438   -24070537.25249 -18746648.29747  21347695.158    21347706.642
       238.000         198.000
  20803639.117   -24350391.29449 -18656071.47148  20803638.491    20803648.190
       246.000         216.000
  21878726.461   -14784558.96149 -11505374.32146  21878726.923    21878737.519
       231.000         186.000
  24389398.517    -7268996.54349  -5635295.90145  24389397.591    24389412.302
       207.000         148.000
  20767022.869   -25345978.07149 -19733371.84748  20767022.320    20767032.309
       244.000         213.000
  23868485.701    -9192172.75649  -7151935.52645  23868486.071    23868501.195
       208.000         150.000
  23334843.849   -14280750.86249  -8410017.27946  23334842.545    23334857.993
       221.000         168.000
 00  4 20  0 15  0.0000000  0  7G 6G23G26G 3G17G22G21
  21361955.330   -23995601.33449 -18688256.75947  21361955.506    21361966.344
       238.000         198.000
  20800488.888   -24366945.83649 -18668971.06048  20800488.212    20800498.074
       246.000         216.000
  21885602.800   -14748423.49749 -11477216.80946  21885603.052    21885613.371
       231.000         186.000
  24370138.041    -7370210.36649  -5714163.66345  24370137.065    24370151.397
       207.000         147.000
  20766966.441   -25346274.47749 -19733602.80348  20766965.719    20766975.813
       244.000         213.000
  23873358.211    -9166567.81849  -7131983.70845  23873357.548    23873373.372
       211.000         151.000
  23321143.848   -14352743.58749  -8466115.24946  23321142.509    23321157.978
       222.000         168.000
 00  4 20  0 15 30.0000000  0  7G 6G23G26G 3G17G22G21
  21376293.963   -23920251.64049 -18629542.80847  21376294.010    21376305.475
       238.000         198.000
  20797408.775   -24383131.52249 -18681583.23248  20797407.994    20797417.819
       246.000         215.000
  21892588.355   -14711713.97149 -11448611.97046  21892588.906    21892599.038
       232.000         186.000
  24350905.573    -7471276.94749  -5792916.69445  24350904.659    24350919.943
       205.000         147.000
  20766951.441   -25346353.35849 -19733664.25848  20766951.029    20766960.931
       244.000         213.000
  23878311.849    -9140536.67349  -7111699.78045  23878311.289    23878327.413
       210.000         151.000
  23307483.987   -14424525.38049  -8522048.85646  23307483.125    23307497.803
       222.000         168.000
 00  4 20  0 16  0.0000000  0  7G 6G23G26G 3G17G22G21
  21390712.054   -23844484.62949 -18570503.67747  21390712.228    21390723.210
       238.000         198.000
  20794402.491   -24398929.48449 -18693893.27348  20794401.645    20794411.588
       246.000         216.000
  21899684.307   -14674424.53049 -11419555.24546  21899684.304    21899695.515
       231.000         186.000
  24331707.075    -7572164.73349  -5871530.39345  24331706.520    24331720.888
       207.000         146.000
  20766979.164   -25346207.57649 -19733550.65348  20766978.340    20766988.504
       244.000         213.000
  23883347.081    -9114076.83849  -7091081.81245  23883346.513    23883362.606
       210.000         150.000
  23293866.043   -14496087.18049  -8577811.04146  23293865.173    23293880.253
       223.000         168.000
 00  4 20  0 16 30.0000000  0  7G 6G23G26G 3G17G22G21
  21405211.329   -23768290.88049 -18511132.03647  21405211.361    21405223.051
       237.000         197.000
  20791473.748   -24414319.87549 -18705885.73748  20791472.883    20791482.763
       246.000         216.000
  21906891.993   -14636547.83449 -11390040.93146  21906892.094    21906903.404
       231.000         186.000
  24312542.389    -7672874.74449  -5950005.57245  24312541.957    24312556.818
       206.000         146.000
  20767051.274   -25345828.60049 -19733255.35148  20767050.590    20767060.668
       244.000         213.000
  23888466.488    -9087174.52649  -7070119.06845  23888465.619    23888481.747
       209.000         151.000
  23280294.439   -14567405.57549  -8633383.55246  23280293.088    23280308.304
       222.000         169.000
 00  4 20  0 17  0.0000000  0  7G 6G23G26G 3G17G22G21
  21419792.303   -23691667.72149 -18451425.78547  21419792.156    21419803.686
       237.000         197.000
  20788624.322   -24429293.56449 -18717553.49048  20788623.445    20788633.301
       246.000         216.000
  21914212.915   -14598076.10949 -11360062.94846  21914212.696    21914223.962
       231.000         185.000
  24293410.318    -7773413.79549  -6028347.54645  24293409.113    24293424.627
       204.000         145.000
  20767166.135   -25345225.03249 -19732785.03348  20767165.411    20767175.324
       244.000         213.000
  23893672.004    -9059819.78049  -7048803.78045  23893671.575    23893687.587
       210.000         151.000
  23266772.839   -14638460.78449  -8688750.98646  23266771.699    23266786.925
       223.000         169.000
 00  4 20  0 17 30.0000000  0  7G 6G23G26G 3G17G22G21
  21434455.955   -23614610.13549 -18391381.02047  21434455.905    21434467.185
       238.000         197.000
  20785852.413   -24443859.77649 -18728903.73148  20785851.534    20785861.492
       246.000         216.000
  21921647.763   -14559005.69149 -11329618.45746  21921647.669    21921658.139
       231.000         185.000
  24274310.018    -7873785.74349  -6106559.28945  24274309.815    24274323.700
       207.000         145.000
  20767321.958   -25344406.19049 -19732146.97548  20767321.123    20767331.245
       244.000         213.000
  23898963.286    -9032014.37249  -7027137.32445  23898962.403    23898979.246
       210.000         151.000
  23253303.500   -14709241.64049  -8743904.64446  23253302.084    23253317.448
       223.000         170.000
 00  4 20  0 18  0.0000000  0  7G 6G23G26G 3G17G22G21
  21449200.043   -23537129.76549 -18331006.81747  21449199.908    21449211.300
       236.000         197.000
  20783151.327   -24458053.89549 -18739964.03448  20783150.704    20783160.449
       246.000         216.000
  21929197.354   -14519332.22949 -11298704.06346  21929197.492    21929207.849
       231.000         185.000
  24255239.987    -7973998.75349  -6184647.20045  24255239.267    24255254.536
       206.000         146.000
  20767518.185   -25343374.85549 -19731343.34148  20767517.637    20767527.512
       244.000         213.000
  23904338.941    -9003765.67649  -7005125.45245  23904338.251    23904354.284
       211.000         151.000
  23239882.230   -14779769.80349  -8798861.39746  23239881.725    23239895.911
       223.000         170.000
 00  4 20  0 18 30.0000000  0  7G 6G23G26G 3G17G22G21
  21464021.304   -23459243.89749 -18270316.63647  21464021.227    21464032.789
       236.000         196.000
  20780517.925   -24471892.35849 -18750747.19948  20780517.327    20780527.074
       245.000         216.000
  21936858.571   -14479072.22649 -11267332.61946  21936858.719    21936869.124
       231.000         185.000
  24236196.409    -8074072.83749  -6262626.84745  24236195.761    24236210.377
       208.000         146.000
  20767752.450   -25342144.01149 -19730384.23947  20767751.835    20767761.777
       243.000         212.000
  23909797.269    -8975082.35949  -6982774.92245  23909796.332    23909812.697
       211.000         152.000
  23226505.325   -14850064.93049  -8853636.57246  23226504.745    23226518.766
       222.000         170.000
 00  4 20  0 19  0.0000000  0  7G 6G23G26G 3G17G22G21
  21478918.816   -23380957.42749 -18209314.31147  21478918.784    21478930.195
       237.000         196.000
  20777952.209   -24485375.15749 -18761253.22348  20777951.493    20777961.245
       246.000         216.000
  21944628.551   -14438240.80249 -11235515.91446  21944628.680    21944639.682
       231.000         185.000
  24217182.368    -8173991.70149  -6340485.55445  24217181.874    24217196.750
       210.000         147.000
  20768025.679   -25340707.91549 -19729265.20047  20768024.946    20768035.022
       243.000         212.000
  23915336.098    -8945976.01349  -6960094.75945  23915335.298    23915351.909
       210.000         152.000
  23213170.763   -14920137.52249  -8908238.33846  23213170.337    23213184.308
       224.000         171.000
 00  4 20  0 19 30.0000000  0  7G 6G23G26G 3G17G22G21
  21493889.588   -23302285.91949 -18148011.94847  21493889.760    21493901.010
       236.000         196.000
  20775453.466   -24498505.82549 -18771484.86148  20775452.813    20775462.475
       246.000         216.000
  21952507.409   -14396837.19549 -11203253.35846  21952507.345    21952518.210
       231.000         185.000
  24198201.430    -8273736.62749  -6418208.72045  24198200.574    24198215.455
       211.000         148.000
  20768340.813   -25339051.89149 -19727974.78947  20768340.117    20768350.084
       244.000         212.000
  23920954.747    -8916450.52449  -6937087.99245  23920954.218    23920970.639
       212.000         152.000
  23199878.081   -14989989.95349  -8962668.54446  23199877.419    23199892.014
       224.000         171.000
 00  4 20  0 20  0.0000000  0  7G 6G23G26G 3G17G22G21
  21508931.870   -23223238.56849 -18086416.71647  21508932.056    21508943.481
       236.000         196.000
  20773026.381   -24511260.04449 -18781423.15748  20773025.574    20773035.116
       246.000         216.000
  21960497.214   -14354850.31349 -11170536.30146  21960497.204    21960508.144
       231.000         185.000
  24179253.257    -8373309.44849  -6495797.78845  24179252.552    24179267.163
       212.000         148.000
  20768699.738   -25337165.59049 -19726504.93247  20768698.999    20768709.227
       244.000         212.000
  23926654.026    -8886501.19049  -6913750.95945  23926653.632    23926669.547
       213.000         153.000
  23186627.265   -15059622.43449  -9016927.37246  23186626.143    23186641.125
       223.000         171.000
 00  4 20  0 20 30.0000000  0  7G 6G23G26G 3G17G22G21
  21524044.943   -23143819.29649 -18024531.67447  21524045.074    21524056.627
       235.000         195.000
  20770671.434   -24523635.03749 -18791065.95948  20770670.704    20770680.450
       246.000         216.000
  21968595.944   -14312291.36949 -11137373.48446  21968595.947    21968606.425
       230.000         185.000
  24160335.431    -8472722.64849  -6573262.47745  24160334.508    24160349.397
       213.000         149.000
  20769098.177   -25335071.82549 -19724873.42547  20769097.693    20769107.575
       244.000         212.000
  23932431.887    -8856138.98749  -6890092.20745  23932430.873    23932447.364
       213.000         153.000
  23173417.744   -15129038.11149  -9071017.26646  23173416.538    23173430.981
       224.000         171.000
 00  4 20  0 21  0.0000000  0  7G 6G23G26G 3G17G22G21
  21539233.499   -23064003.39449 -17962337.57147  21539233.489    21539245.242
       237.000         195.000
  20768388.313   -24535632.61649 -18800414.66948  20768387.634    20768397.290
       247.000         216.000
  21976810.008   -14269125.96149 -11103738.10346  21976809.751    21976820.591
       232.000         184.000
  24141452.147    -8571954.64849  -6650585.97645  24141451.781    24141466.337
       214.000         149.000
  20769539.176   -25332754.40449 -19723067.63147  20769538.448    20769548.492
       245.000         212.000
  23938291.055    -8825349.39249  -6866100.42345  23938290.107    23938307.187
       214.000         153.000
  23160254.784   -15198208.76249  -9124916.22246  23160254.030    23160268.369
       226.000         172.000
 00  4 20  0 21 30.0000000  0  7G 6G23G26G 3G17G22G21
  21554497.929   -22983788.57849 -17899832.62447  21554497.782    21554509.599
       235.000         195.000
  20766172.952   -24547274.35449 -18809486.10448  20766172.258    20766181.870
       246.000         216.000
  21985141.721   -14225342.68949 -11069621.25946  21985142.033    21985152.226
       230.000         184.000
  24122599.659    -8671024.92549  -6727783.45245  24122599.182    24122612.963
       215.000         150.000
  20770018.918   -25330233.36049 -19721103.16947  20770018.086    20770028.144
       244.000         212.000
  23944231.764    -8794131.19349  -6841774.64645  23944231.244    23944246.931
       213.000         153.000
  23147137.271   -15267140.86149  -9178629.30446  23147136.341    23147150.498
       224.000         172.000
 00  4 20  0 22  0.0000000  0  7G 6G23G26G 3G17G22G21
  21569840.889   -22903161.23249 -17837006.22547  21569841.070    21569852.507
       236.000         195.000
  20764023.034   -24558571.96149 -18818289.38848  20764022.207    20764032.086
       246.000         216.000
  21993586.168   -14180966.88049 -11035042.71946  21993586.347    21993597.285
       230.000         184.000
  24103774.806    -8769949.76249  -6804867.60445  24103774.344    24103788.072
       216.000         149.000
  20770531.880   -25327537.72449 -19719002.66047  20770531.061    20770541.204
       243.000         212.000
  23950249.550    -8762507.64549  -6817133.02945  23950248.888    23950265.447
       212.000         153.000
  23134061.530   -15335853.55649  -9232171.41946  23134060.353    23134075.504
       224.000         172.000
 00  4 20  0 22 30.0000000  0  7G 6G23G26G 3G17G22G21
  21585261.212   -22822127.23449 -17773862.96347  21585261.464    21585273.064
       235.000         194.000
  20761934.917   -24569545.00649 -18826839.77448  20761934.242    20761943.727
       246.000         216.000
  22002140.159   -14136015.25149 -11000015.47546  22002139.965    22002150.806
       230.000         184.000
  24084980.321    -8868714.93449  -6881827.34245  24084979.696    24084993.892
       216.000         149.000
  20771077.792   -25324668.78749 -19716767.11147  20771077.103    20771087.042
       244.000         212.000
  23956341.918    -8730492.29049  -6792186.10045  23956341.420    23956357.239
       213.000         153.000
  23121026.317   -15404352.80249  -9285547.21346  23121025.347    23121039.658
       224.000         172.000
 00  4 20  0 23  0.0000000  0  7G 6G23G26G 3G17G22G21
  21600754.924   -22740707.80649 -17710419.36647  21600754.739    21600766.635
       235.000         194.000
  20759908.547   -24580193.45349 -18835137.21948  20759907.975    20759917.639
       246.000         216.000
  22010800.473   -14090504.82449 -10964552.81546  22010799.950    22010811.351
       230.000         183.000
  24066215.509    -8967324.01749  -6958665.45345  24066215.086    24066228.462
       215.000         149.000
  20771659.371   -25321612.62249 -19714385.66847  20771658.700    20771668.886
       243.000         212.000
  23962507.303    -8698093.39149  -6766940.30345  23962506.712    23962522.618
       213.000         152.000
  23108030.381   -15472646.11049  -9338762.54546  23108029.554    23108044.716
       225.000         173.000
 00  4 20  0 23 30.0000000  0  7G 6G23G26G 3G17G22G21
  21616323.557   -22658894.62149 -17646668.94147  21616323.920    21616335.458
       236.000         194.000
  20757951.551   -24590477.48449 -18843150.70748  20757950.960    20757960.455
       247.000         216.000
  22019565.332   -14044445.17549 -10928662.17746  22019565.672    22019576.187
       231.000         183.000
  24047482.296    -9065767.15149  -7035374.24545  24047481.745    24047495.744
       217.000         149.000
  20772279.945   -25318351.54949 -19711844.55347  20772279.390    20772289.299
       245.000         212.000
  23968743.692    -8665321.42649  -6741403.80445  23968742.755    23968759.031
       213.000         153.000
  23095073.890   -15540731.99949  -9391816.25346  23095071.954    23095087.275
       226.000         173.000
 00  4 20  0 24  0.0000000  0  7G 6G23G26G 3G17G22G21
  21631967.518   -22576685.49849 -17582610.00347  21631967.451    21631979.337
       236.000         194.000
  20756070.137   -24600364.33849 -18850854.70648  20756069.612    20756079.117
       247.000         216.000
  22028437.842   -13997819.66949 -10892330.62046  22028437.910    22028449.233
       231.000         183.000
  24028785.188    -9164020.36549  -7111935.04545  24028783.749    24028797.414
       218.000         149.000
  20772946.132   -25314850.73849 -19709116.62747  20772945.349    20772955.345
       245.000         212.000
  23975052.874    -8632166.64849  -6715569.01045  23975052.816    23975068.277
       214.000         153.000
  23082162.484   -15608580.88649  -9444685.28446  23082161.902    23082176.093
       227.000         174.000
 00  4 20  0 24 30.0000000  0  7G 6G23G26G 3G17G22G21
  21647683.587   -22494097.40649 -17518255.76447  21647683.650    21647695.562
       234.000         193.000
  20754266.896   -24609840.23849 -18858238.48648  20754266.270    20754275.805
       245.000         216.000
  22037423.566   -13950599.60849 -10855535.78346  22037423.529    22037434.835
       229.000         183.000
  24010125.893    -9262075.28449  -7188341.33045  24010125.926    24010139.277
       216.000         150.000
  20773663.161   -25311082.67749 -19706180.45647  20773662.513    20773672.344
       243.000         212.000
  23981440.430    -8598600.38449  -6689413.57745  23981439.985    23981456.195
       213.000         152.000
  23069299.486   -15676175.57849  -9497356.24846  23069298.047    23069312.404
       226.000         174.000
 00  4 20  0 25  0.0000000  0  7G 6G23G26G 3G17G22G21
  21663473.586   -22411120.84149 -17453598.82047  21663473.479    21663485.441
       234.000         193.000
  20752545.097   -24618888.07749 -18865288.71048  20752544.352    20752553.857
       245.000         216.000
  22046524.047   -13902776.39649 -10818270.94546  22046524.359    22046535.045
       230.000         183.000
  23991506.105    -9359922.32249  -7264585.63545  23991505.396    23991518.806
       217.000         151.000
  20774431.211   -25307046.40849 -19703035.29447  20774430.521    20774440.464
       244.000         212.000
  23987907.897    -8564614.12949  -6662930.89245  23987907.887    23987924.136
       214.000         152.000
  23056486.547   -15743507.15449  -9549822.19046  23056485.667    23056500.348
       226.000         174.000
 00  4 20  0 25 30.0000000  0  7G 6G23G26G 3G17G22G21
  21679338.775   -22327749.33149 -17388634.12847  21679339.126    21679350.497
       234.000         193.000
  20750903.431   -24627514.96649 -18872010.92048  20750902.869    20750912.418
       245.000         216.000
  22055740.549   -13854343.36749 -10780530.92946  22055741.058    22055751.249
       228.000         183.000
  23972928.355    -9457548.38449  -7340657.73145  23972927.228    23972941.514
       216.000         151.000
  20775248.387   -25302752.09349 -19699689.05847  20775247.665    20775257.522
       243.000         212.000
  23994457.513    -8530195.83349  -6636111.53045  23994456.284    23994472.971
       214.000         152.000
  23043724.644   -15810570.38749  -9602079.03046  23043723.112    23043737.675
       226.000         174.000
 00  4 20  0 26  0.0000000  0  7G 6G23G26G 3G17G22G21
  21695274.629   -22244006.35949 -17323379.97447  21695274.714    21695286.483
       235.000         192.000
  20749335.455   -24635754.54149 -18878431.32948  20749334.804    20749344.215
       246.000         216.000
  22065070.899   -13805312.01349 -10742324.68246  22065070.809    22065081.816
       229.000         182.000
  23954392.789    -9554952.80649  -7416557.13045  23954391.780    23954406.569
       217.000         152.000
  20776112.885   -25298209.15149 -19696149.09247  20776112.297    20776122.101
       244.000         212.000
  24001094.065    -8495320.92349  -6608936.37945  24001092.669    24001110.014
       214.000         152.000
  23031011.476   -15877377.62449  -9654136.39846  23031010.473    23031024.822
       226.000         174.000
 00  4 20  0 26 30.0000000  0  7G 6G23G26G 3G17G22G21
  21711280.716   -22159894.22249 -17257838.16447  21711280.843    21711292.453
       234.000         192.000
  20747836.028   -24643634.02049 -18884571.14648  20747835.482    20747844.966
       245.000         216.000
  22074510.362   -13755707.22849 -10703671.61646  22074510.674    22074521.042
       229.000         182.000
  23935898.240    -9652141.76649  -7492288.63345  23935898.572    23935911.511
       215.000         152.000
  20777021.565   -25293433.77949 -19692428.00947  20777021.118    20777030.945
       243.000         212.000
  24007815.621    -8459999.46649  -6581413.26745  24007814.736    24007830.877
       215.000         152.000
  23018344.371   -15943942.70449  -9706005.08446  23018343.103    23018357.323
       226.000         175.000
 00  4 20  0 27  0.0000000  0  7G 6G23G26G 3G17G22G21
  21727358.923   -22075403.22349 -17192001.14447  21727358.922    21727370.841
       234.000         192.000
  20746398.222   -24651189.57449 -18890458.55548  20746397.468    20746406.994
       245.000         216.000
  22084054.811   -13705550.86149 -10664588.74646  22084054.717    22084065.653
       228.000         182.000
  23917443.097    -9749123.64449  -7567858.76345  23917442.749    23917455.275
       214.000         152.000
  20777970.541   -25288446.85049 -19688542.07747  20777969.931    20777979.908
       244.000         212.000
  24014615.709    -8424265.26249  -6553568.52745  24014615.707    24014631.922
       214.000         152.000
  23005721.965   -16010273.07949  -9757690.88846  23005721.660    23005734.861
       227.000         175.000
 00  4 20  0 27 30.0000000  0  7G 6G23G26G 3G17G22G21
  21743506.135   -21990549.39549 -17125881.41347  21743506.494    21743518.561
       233.000         191.000
  20745015.919   -24658453.40449 -18896118.64948  20745015.335    20745024.913
       246.000         216.000
  22093703.418   -13654846.93649 -10625079.20546  22093703.717    22093714.481
       229.000         182.000
  23899022.179    -9845925.58549  -7643288.68545  23899021.522    23899036.432
       214.000         152.000
  20778957.532   -25283260.09749 -19684500.44047  20778956.848    20778966.994
       243.000         212.000
  24021490.937    -8388135.93249  -6525415.89345  24021490.878    24021506.758
       214.000         152.000
  22993141.993   -16076380.36349  -9809202.84746  22993141.050    22993155.171
       226.000         175.000
 00  4 20  0 28  0.0000000  0  8G 6G23G26G 3G17G29G22G21
  21759720.666   -21905342.00549 -17059486.17847  21759720.769    21759732.769
       233.000         191.000
  20743687.585   -24665433.79849 -18901557.87948  20743687.104    20743696.522
       245.000         216.000
  22103456.148   -13603596.16949 -10585143.55246  22103456.176    22103467.674
       229.000         182.000
  23880632.398    -9942563.87949  -7718591.06545  23880631.323    23880644.742
       212.000         152.000
  20779981.404   -25277879.57249 -19680307.81547  20779980.759    20779990.720
       243.000         212.000
  24443208.524    -3854893.23449  -2118505.34645  24443206.620    24443229.268
       203.000         137.000
  24028435.721    -8351641.05249  -6496978.41745  24028435.360    24028451.491
       214.000         152.000
  22980602.347   -16142275.85949  -9860549.78046  22980601.001    22980615.711
       227.000         175.000
 00  4 20  0 28 30.0000000  0  8G 6G23G26G 3G17G29G22G21
  21776003.059   -21819777.85449 -16992812.93447  21776003.067    21776015.206
       233.000         191.000
  20742414.952   -24672121.43249 -18906768.99048  20742414.395    20742423.701
       246.000         216.000
  22113313.390   -13551795.93449 -10544779.74746  22113313.891    22113324.240
       229.000         182.000
  23862273.552   -10039039.50349  -7793766.70645  23862273.622    23862286.731
       211.000         152.000
  20781040.676   -25272312.81249 -19675970.07847  20781040.105    20781050.214
       243.000         212.000
  24422562.623    -3963385.51849  -2203044.12845  24422561.083    24422584.642
       205.000         138.000
  24035445.533    -8314804.63249  -6468274.81545  24035444.718    24035461.839
       213.000         152.000
  22968103.159   -16207958.59049  -9911730.93146  22968101.754    22968116.421
       227.000         176.000
 00  4 20  0 29  0.0000000  0  8G 6G23G26G 3G17G29G22G21
  21792351.740   -21733865.34649 -16925868.24847  21792352.218    21792363.812
       233.000         190.000
  20741202.360   -24678493.31049 -18911734.05848  20741201.615    20741211.024
       246.000         216.000
  22123276.084   -13499441.54849 -10503984.13446  22123276.265    22123287.319
       229.000         181.000
  23843947.195   -10135344.46449  -7868809.36245  23843945.960    23843960.812
       214.000         152.000
  20782136.923   -25266552.08749 -19671481.20047  20782136.236    20782146.208
       243.000         212.000
  24401906.948    -4071929.03749  -2287622.82745  24401904.513    24401927.819
       205.000         138.000
  24042519.015    -8277633.70749  -6439310.57445  24042518.831    24042533.936
       214.000         152.000
  22955642.048   -16273441.22249  -9962756.15446  22955640.940    22955654.563
       227.000         176.000
 00  4 20  0 29 30.0000000  0  8G 6G23G26G 3G17G29G22G21
  21808766.038   -21647608.34049 -16858655.12647  21808766.305    21808778.215
       233.000         190.000
  20740056.703   -24684513.73449 -18916425.26248  20740056.168    20740065.531
       246.000         216.000
  22133343.911   -13446535.01849 -10462758.28046  22133344.165    22133354.940
       228.000         182.000
  23825658.073   -10231453.78849  -7943699.56045  23825657.181    23825671.222
       209.000         152.000
  20783272.919   -25260582.42849 -19666829.51747  20783272.330    20783282.267
       243.000         212.000
  24381247.002    -4180495.17849  -2372219.18345  24381246.115    24381267.765
       208.000         139.000
  24049659.745    -8240109.13649  -6410070.75245  24049659.767    24049675.855
       214.000         151.000
  22943219.809   -16338719.72849 -10013622.32546  22943219.250    22943232.738
       229.000         177.000
 00  4 20  0 30  0.0000000  0  8G 6G23G26G 3G17G29G22G21
  21825248.306   -21560993.87349 -16791163.46847  21825248.445    21825260.399
       232.000         190.000
  20738982.327   -24690159.45849 -18920824.49548  20738981.742    20738991.161
       245.000         216.000
  22143515.221   -13393084.31949 -10421108.41046  22143514.804    22143526.293
       228.000         181.000
  23807411.758   -10327338.01449  -8018414.37445  23807411.452    23807424.522
       210.000         152.000
  20784452.694   -25254382.63249 -19661998.50947  20784451.953    20784462.060
       243.000         212.000
  24360590.712    -4289042.31049  -2456800.70545  24360589.155    24360611.413
       211.000         139.000
  24056870.507    -8202216.62749  -6380544.23745  24056870.015    24056886.433
       212.000         151.000
  22930838.698   -16403782.25249 -10064320.20846  22930838.151    22930851.366
       228.000         177.000
 00  4 20  0 30 30.0000000  0  8G 6G23G26G 3G17G29G22G21
  21841799.876   -21474015.13949 -16723387.96247  21841799.747    21841812.379
       232.000         190.000
  20737980.774   -24695422.57349 -18924925.58848  20737980.135    20737989.575
       245.000         216.000
  22153789.192   -13339094.22549 -10379038.21946  22153789.621    22153799.736
       230.000         181.000
  23789211.592   -10422979.60149  -8092940.10545  23789211.082    23789224.145
       210.000         153.000
  20785680.541   -25247930.27949 -19656970.69747  20785680.023    20785689.801
       243.000         212.000
  24339942.940    -4397544.48749  -2541347.23045  24339940.920    24339964.214
       211.000         139.000
  24064154.210    -8163940.76149  -6350719.01645  24064153.983    24064170.241
       213.000         151.000
  22918501.995   -16468611.05149 -10114835.96146  22918500.582    22918514.782
       227.000         177.000
 00  4 20  0 31  0.0000000  0  8G 6G23G26G 3G17G29G22G21
  21858421.795   -21386666.79049 -16655324.44347  21858421.859    21858434.176
       232.000         189.000
  20737050.800   -24700309.58949 -18928733.62148  20737050.149    20737059.676
       245.000         215.000
  22164166.767   -13284559.87449 -10336543.93746  22164166.727    22164177.923
       229.000         181.000
  23771058.673   -10518373.03249  -8167272.46445  23771057.929    23771071.707
       210.000         154.000
  20786957.057   -25241222.09149 -19651743.54147  20786956.599    20786966.429
       243.000         211.000
  24319302.691    -4506006.97149  -2625862.81345  24319300.059    24319323.880
       211.000         139.000
  24071511.821    -8125276.72049  -6320591.31345  24071510.380    24071528.420
       216.000         151.000
  22906212.602   -16533191.49349 -10165158.19746  22906211.550    22906224.971
       228.000         177.000
 00  4 20  0 31 30.0000000  0  8G 6G23G26G 3G17G29G22G21
  21875114.457   -21298946.98149 -16586971.47947  21875114.753    21875126.608
       232.000         189.000
  20736189.462   -24704835.75149 -18932260.46548  20736188.815    20736198.306
       245.000         215.000
  22174645.373   -13229494.45649 -10293635.84446  22174645.402    22174656.207
       229.000         181.000
  23752953.252   -10613516.76749  -8241410.26545  23752952.593    23752966.632
       211.000         155.000
  20788280.311   -25234268.49049 -19646325.15247  20788279.733    20788289.598
       243.000         211.000
  24298670.702    -4614426.12049  -2710344.64745  24298669.001    24298691.198
       212.000         139.000
  24078945.140    -8086215.14049  -6290153.84445  24078944.753    24078962.024
       213.000         151.000
  22893974.080   -16597504.53649 -10215272.06946  22893972.762    22893986.631
       228.000         177.000
 00  4 20  0 32  0.0000000  0  8G 6G23G26G 3G17G29G22G21
  21891875.827   -21210865.86549 -16518336.97647  21891875.940    21891888.242
       232.000         188.000
  20735393.547   -24709018.04849 -18935519.36648  20735392.866    20735402.389
       245.000         215.000
  22185225.381   -13173896.27649 -10250312.60346  22185225.288    22185236.591
       228.000         181.000
  23734893.023   -10708423.19649  -8315363.15645  23734891.866    23734906.277
       211.000         156.000
  20789649.842   -25227071.56149 -19640717.15747  20789649.245    20789659.020
       243.000         211.000
  24278043.644    -4722819.38149  -2794806.31645  24278042.111    24278063.564
       210.000         139.000
  24086450.987    -8046772.09149  -6259419.11045  24086450.717    24086466.559
       213.000         151.000
  22881786.170   -16661551.80349 -10265178.84446  22881785.809    22881798.765
       228.000         177.000
 00  4 20  0 32 30.0000000  0  8G 6G23G26G 3G17G29G22G21
  21908703.532   -21122436.04649 -16449430.76047  21908703.290    21908715.593
       231.000         188.000
  20734663.814   -24712852.71549 -18938507.38648  20734663.051    20734672.590
       245.000         215.000
  22195909.378   -13117751.66549 -10206563.58946  22195909.891    22195921.165
       228.000         181.000
  23716877.390   -10803095.13649  -8389133.31245  23716876.948    23716890.979
       212.000         157.000
  20791063.522   -25219642.51349 -19634928.29047  20791062.797    20791072.905
       243.000         211.000
  24257418.934    -4831200.56949  -2879258.57945  24257416.630    24257439.598
       213.000         139.000
  24094025.518    -8006968.29549  -6228403.28745  24094024.284    24094041.853
       214.000         151.000
  22869648.692   -16725334.00949 -10314879.07746  22869647.992    22869661.141
       227.000         178.000
 00  4 20  0 33  0.0000000  0  8G 6G23G26G 3G17G29G22G21
  21925598.158   -21033654.67549 -16380250.59947  21925598.364    21925610.527
       231.000         188.000
  20733999.834   -24716341.65549 -18941226.00748  20733999.101    20734008.411
       245.000         215.000
  22206696.872   -13061063.23949 -10162390.81946  22206696.964    22206708.078
       228.000         181.000
  23698908.156   -10897523.28849  -8462713.51145  23698907.328    23698921.526
       213.000         158.000
  20792520.557   -25211985.68449 -19628961.93147  20792519.878    20792529.918
       243.000         211.000
  24236796.626    -4939569.08049  -2963700.97045  24236795.226    24236815.793
       210.000         139.000
  24101668.567    -7966804.27549  -6197106.76145  24101668.122    24101685.193
       215.000         151.000
  22857560.102   -16788859.39349 -10364379.20646  22857559.131    22857572.357
       228.000         178.000
 00  4 20  0 33 30.0000000  0  8G 6G23G26G 3G17G29G22G21
  21942558.327   -20944528.90249 -16310802.07846  21942558.463    21942570.963
       231.000         187.000
  20733400.865   -24719489.09149 -18943678.51948  20733400.266    20733409.733
       246.000         215.000
  22217586.653   -13003837.27749 -10117799.19046  22217587.015    22217597.655
       229.000         181.000
  23680984.580   -10991711.85349  -8536107.01745  23680983.996    23680997.026
       213.000         159.000
  20794022.384   -25204093.50849 -19622812.17947  20794021.568    20794031.851
       243.000         211.000
  24216178.549    -5047915.41949  -3048126.08345  24216176.670    24216197.274
       212.000         140.000
  24109379.267    -7926284.64749  -6165533.14245  24109378.754    24109395.810
       215.000         151.000
  22845518.673   -16852136.82549 -10413686.12246  22845517.367    22845531.498
       230.000         179.000
 00  4 20  0 34  0.0000000  0  8G 6G23G26G 3G17G29G22G21
  21959583.252   -20855062.90849 -16241088.45646  21959583.287    21959595.625
       231.000         187.000
  20732864.604   -24722307.13149 -18945874.35948  20732864.027    20732873.393
       245.000         215.000
  22228582.357   -12946054.70449 -10072773.84146  22228582.563    22228592.991
       228.000         180.000
  23663104.437   -11085672.15649  -8609322.65345  23663103.324    23663116.895
       215.000         160.000
  20795571.067   -25195955.02149 -19616470.49647  20795570.656    20795580.444
       243.000         211.000
  24195563.392    -5156246.21349  -3132539.08445  24195561.831    24195582.223
       209.000         140.000
  24117156.278    -7885416.66549  -6133688.06345  24117155.581    24117172.324
       215.000         152.000
  22833521.691   -16915180.79549 -10462811.12346  22833520.243    22833533.753
       229.000         179.000
 00  4 20  0 34 30.0000000  0  8G 6G23G26G 3G17G29G22G21
  21976673.722   -20765252.41649 -16171106.39746  21976674.095    21976685.878
       231.000         187.000
  20732390.296   -24724799.43249 -18947816.37948  20732389.575    20732398.966
       245.000         215.000
  22239681.333   -12887729.15049 -10027325.38546  22239681.839    22239692.217
       228.000         180.000
  23645267.399   -11179405.63849  -8682361.55245  23645267.142    23645279.941
       216.000         161.000
  20797164.564   -25187581.18349 -19609945.41947  20797163.813    20797173.950
       243.000         211.000
  24174951.537    -5264559.86949  -3216938.75045  24174950.050    24174970.648
       209.000         140.000
  24125001.076    -7844192.63349  -6101565.53545  24125001.149    24125017.056
       215.000         152.000
  22821567.489   -16977999.71349 -10511760.76246  22821566.798    22821579.264
       230.000         179.000
 00  4 20  0 35  0.0000000  0  8G 6G23G26G 3G17G29G22G21
  21993830.269   -20675094.71349 -16100853.79046  21993830.498    21993842.745
       231.000         186.000
  20731975.792   -24726977.45849 -18949513.51148  20731975.232    20731984.485
       246.000         215.000
  22250880.523   -12828877.04849  -9981466.62846  22250880.616    22250891.515
       228.000         180.000
  23627472.799   -11272916.23649  -8755226.77345  23627471.912    23627485.328
       216.000         161.000
  20798801.163   -25178980.88849 -19603243.88747  20798800.470    20798810.357
       243.000         211.000
  24154344.574    -5372847.66049  -3301318.25445  24154342.287    24154363.414
       212.000         141.000
  24132916.416    -7802597.80649  -6069154.07845  24132916.210    24132932.535
       216.000         152.000
  22809653.394   -17040608.01049 -10560546.28446  22809653.046    22809665.756
       230.000         179.000
 00  4 20  0 35 30.0000000  0  8G 6G23G26G 3G17G29G22G21
  22011051.450   -20584597.34549 -16030336.50546  22011051.236    22011064.278
       231.000         186.000
  20731622.132   -24728835.93349 -18950961.64248  20731621.597    20731630.947
       245.000         215.000
  22262180.721   -12769494.33349  -9935194.41946  22262180.183    22262191.948
       228.000         180.000
  23609718.248   -11366216.30749  -8827927.95545  23609717.693    23609730.880
       217.000         162.000
  20800479.348   -25170161.96349 -19596371.98747  20800478.678    20800488.782
       243.000         211.000
  24133740.995    -5481117.91849  -3385684.12245  24133738.720    24133760.678
       210.000         142.000
  24140901.968    -7760633.72949  -6036454.89145  24140902.231    24140917.884
       215.000         151.000
  22797779.267   -17103006.42949 -10609168.26846  22797778.177    22797791.434
       230.000         179.000
 00  4 20  0 36  0.0000000  0  8G 6G23G26G 3G17G29G22G21
  22028337.922   -20493756.88049 -15959551.86746  22028337.809    22028350.192
       231.000         186.000
  20731331.956   -24730360.72649 -18952149.76048  20731331.368    20731340.697
       246.000         215.000
  22273580.954   -12709585.85249  -9888512.51646  22273580.961    22273592.277
       228.000         180.000
  23592006.359   -11459292.51249  -8900454.69546  23592005.714    23592018.786
       220.000         163.000
  20802198.369   -25161128.33649 -19589332.79047  20802197.748    20802207.572
       243.000         211.000
  24113139.960    -5589374.84149  -3470039.60645  24113138.751    24113158.081
       210.000         142.000
  24148956.025    -7718309.67249  -6003475.19945  24148956.126    24148972.509
       215.000         151.000
  22785943.998   -17165200.54149 -10657631.05646  22785943.899    22785956.156
       229.000         179.000
 00  4 20  0 36 30.0000000  0  8G 6G23G26G 3G17G29G22G21
  22045691.356   -20402564.42049 -15888492.94746  22045691.475    22045703.873
       231.000         185.000
  20731110.149   -24731526.12849 -18953057.83348  20731109.522    20731119.025
       245.000         215.000
  22285080.350   -12649156.16349  -9841424.47446  22285080.520    22285091.457
       227.000         180.000
  23574342.742   -11552114.72649  -8972783.53446  23574341.913    23574355.378
       218.000         163.000
  20803958.738   -25151877.57549 -19582124.39747  20803957.980    20803967.855
       243.000         211.000
  24092544.762    -5697600.86449  -3554370.99945  24092542.980    24092563.313
       207.000         142.000
  24157075.616    -7675641.37749  -5970227.26145  24157074.595    24157092.074
       215.000         151.000
  22774150.367   -17227175.79149 -10705923.29546  22774149.554    22774162.332
       229.000         179.000
 00  4 20  0 37  0.0000000  0  8G 6G23G26G 3G17G29G22G21
  22063111.892   -20311019.43849 -15817159.34546  22063112.265    22063124.660
       229.000         185.000
  20730955.467   -24732338.98449 -18953691.19448  20730954.769    20730964.163
       245.000         215.000
  22296682.036   -12588189.16349  -9793917.74546  22296681.948    22296693.605
       227.000         179.000
  23556728.419   -11644678.07149  -9044910.65346  23556727.967    23556741.181
       219.000         163.000
  20805764.974   -25142385.74649 -19574728.15947  20805764.409    20805774.265
       244.000         211.000
  24071957.151    -5805787.17249  -3638671.46145  24071955.752    24071975.126
       209.000         141.000
  24165259.334    -7632635.86949  -5936716.56045  24165258.929    24165274.990
       215.000         151.000
  22762400.266   -17288922.17849 -10754037.21046  22762398.859    22762412.430
       230.000         179.000
 00  4 20  0 37 30.0000000  0  8G 6G23G26G 3G17G29G22G21
  22080597.629   -20219131.99749 -15745558.89246  22080597.750    22080610.556
       230.000         185.000
  20730865.189   -24732813.13949 -18954060.63448  20730864.651    20730873.841
       245.000         215.000
  22308386.180   -12526683.56949  -9745991.34246  22308386.415    22308397.206
       227.000         179.000
  23539165.061   -11736973.55949  -9116829.05346  23539165.015    23539177.417
       219.000         163.000
  20807620.273   -25132636.14449 -19567131.05947  20807619.735    20807629.535
       243.000         211.000
  24051375.582    -5913941.82649  -3722947.27845  24051374.310    24051393.846
       208.000         142.000
  24173504.039    -7589310.00649  -5902956.23145  24173502.892    24173519.988
       214.000         151.000
  22750696.360   -17350426.05849 -10801962.16746  22750695.651    22750708.578
       230.000         179.000
 00  4 20  0 38  0.0000000  0  8G 6G23G26G 3G17G29G22G21
  22098146.569   -20126912.19749 -15673699.44646  22098147.451    22098159.132
       230.000         184.000
  20730837.870   -24732956.50249 -18954172.31548  20730837.370    20730846.564
       245.000         215.000
  22320191.273   -12464647.58049  -9697651.63346  22320190.923    22320202.309
       227.000         179.000
  23521653.584   -11828996.29049  -9188534.93446  23521652.609    23521666.221
       219.000         163.000
  20809524.106   -25122631.39749 -19559335.14947  20809523.447    20809533.410
       243.000         211.000
  24030802.230    -6022053.37649  -3807189.50445  24030800.243    24030820.751
       205.000         143.000
  24181807.793    -7545673.75849  -5868954.06345  24181807.503    24181824.971
       215.000         151.000
  22739038.724   -17411686.65849 -10849697.54546  22739037.892    22739050.995
       229.000         180.000
 00  4 20  0 38 30.0000000  0  8G 6G23G26G 3G17G29G22G21
  22115755.517   -20034377.29749 -15601594.47746  22115755.671    22115768.465
       230.000         184.000
  20730871.064   -24732782.06649 -18954036.35948  20730870.377    20730879.732
       245.000         215.000
  22332098.972   -12402072.39849  -9648891.77946  22332099.699    22332109.997
       227.000         179.000
  23504191.163   -11920761.49249  -9260040.14846  23504191.077    23504203.643
       220.000         163.000
  20811475.664   -25112375.96749 -19551343.90347  20811474.886    20811484.857
       244.000         211.000
  24010237.734    -6130118.29449  -3891395.39545  24010236.999    24010255.724
       207.000         143.000
  24190174.895    -7501704.99649  -5834692.78345  24190175.400    24190191.640
       216.000         151.000
  22727429.482   -17472693.13549 -10897234.90646  22727428.908    22727441.308
       229.000         180.000
 00  4 20  0 39  0.0000000  0  8G 6G23G26G 3G17G29G22G21
  22133420.184   -19941549.50149 -15529261.28846  22133420.912    22133433.242
       230.000         184.000
  20730960.380   -24732312.59449 -18953670.50648  20730959.805    20730969.198
       245.000         215.000
  22344106.866   -12338970.52749  -9599721.52246  22344107.107    22344117.569
       228.000         179.000
  23486773.503   -12012291.42449  -9331362.04345  23486773.045    23486786.209
       219.000         162.000
  20813472.993   -25101879.93049 -19543165.17447  20813472.193    20813482.198
       243.000         211.000
  23989679.096    -6238152.19749  -3975577.12545  23989677.352    23989697.034
       209.000         145.000
  24198608.452    -7457386.77649  -5800159.19645  24198608.532    24198624.234
       217.000         152.000
  22715866.314   -17533457.46449 -10944583.58746  22715865.494    22715878.550
       230.000         180.000
 00  4 20  0 39 30.0000000  0  8G 6G23G26G 3G17G29G22G21
  22151139.082   -19848436.70049 -15456706.02746  22151139.125    22151152.610
       230.000         184.000
  20731110.322   -24731524.61049 -18953056.46548  20731109.791    20731119.082
       245.000         215.000
  22356212.730   -12275353.82349  -9550150.09346  22356212.756    22356223.874
       226.000         178.000
  23469402.560   -12103575.80449  -9402492.59445  23469401.661    23469414.953
       219.000         162.000
  20815512.858   -25091160.24249 -19534812.17047  20815512.311    20815522.033
       244.000         211.000
  23969126.613    -6346154.05749  -4059733.89945  23969124.780    23969144.103
       210.000         145.000
  24207107.338    -7412725.47449  -5765358.27445  24207106.899    24207123.274
       216.000         152.000
  22704349.622   -17593977.57349 -10991741.96546  22704348.996    22704361.253
       231.000         181.000
 00  4 20  0 40  0.0000000  0  8G 6G23G26G 3G17G29G22G21
  22168914.260   -19755028.18049 -15383920.33246  22168914.600    22168927.837
       229.000         183.000
  20731324.458   -24730399.35149 -18952179.61248  20731323.813    20731333.140
       245.000         215.000
  22368415.905   -12211225.80249  -9500180.23546  22368416.228    22368426.853
       227.000         178.000
  23452078.009   -12194616.32849  -9473433.13745  23452077.285    23452090.617
       219.000         162.000
  20817595.034   -25080218.51649 -19526286.15247  20817594.489    20817604.340
       243.000         211.000
  23948582.623    -6454111.16249  -4143855.80645  23948580.902    23948600.834
       209.000         146.000
  24215673.056    -7367712.89049  -5730283.65145  24215673.108    24215689.715
       216.000         151.000
  22692879.837   -17654250.99749 -11038708.11946  22692879.446    22692892.311
       230.000         181.000
 00  4 20  0 40 30.0000000  0  8G 6G23G26G 3G17G29G22G21
  22186749.416   -19661304.52749 -15310889.07746  22186749.883    22186762.815
       229.000         183.000
  20731602.147   -24728939.92249 -18951042.36948  20731601.511    20731610.876
       245.000         215.000
  22380717.319   -12146581.45649  -9449808.05546  22380717.522    22380728.639
       226.000         178.000
  23434803.582   -12285393.57949  -9544168.54545  23434803.183    23434815.597
       218.000         161.000
  20819722.977   -25069036.23849 -19517572.69247  20819722.236    20819732.243
       243.000         211.000
  23928049.593    -6562010.71049  -4227932.86545  23928047.607    23928068.030
       208.000         147.000
  24224305.316    -7322350.55849  -5694936.48145  24224304.643    24224320.989
       217.000         151.000
  22681456.662   -17714279.69249 -11085483.58046  22681455.825    22681468.625
       230.000         181.000
 00  4 20  0 41  0.0000000  0  8G 6G23G26G 3G17G29G22G21
  22204645.979   -19567258.06049 -15237606.27546  22204646.263    22204659.632
       229.000         182.000
  20731942.854   -24727149.43649 -18949647.15948  20731942.375    20731951.471
       245.000         215.000
  22393113.335   -12081440.28449  -9399048.72946  22393113.190    22393124.397
       226.000         178.000
  23417582.316   -12375891.40649  -9614686.21145  23417581.666    23417594.155
       219.000         161.000
  20821897.198   -25057610.60149 -19508669.60447  20821896.571    20821906.448
       243.000         211.000
  23907530.292    -6669838.31549  -4311953.85745  23907528.852    23907548.032
       208.000         148.000
  24232998.407    -7276668.48949  -5659340.15645  24232997.635    24233015.979
       217.000         151.000
  22670077.949   -17774074.80549 -11132077.02146  22670077.172    22670090.211
       231.000         182.000
 00  4 20  0 41 30.0000000  0  8G 6G23G26G 3G17G29G22G21
  22222604.534   -19472886.03149 -15164069.79546  22222604.701    22222617.977
       229.000         182.000
  20732347.827   -24725021.20549 -18947988.77248  20732347.125    20732356.453
       245.000         215.000
  22405603.607   -12015803.44949  -9347903.17546  22405603.833    22405614.701
       226.000         177.000
  23400416.997   -12466095.36949  -9684974.90045  23400415.879    23400429.157
       219.000         161.000
  20824118.078   -25045939.81049 -19499575.48847  20824117.493    20824127.308
       243.000         211.000
  23887027.354    -6777579.98149  -4395907.89245  23887026.076    23887045.145
       208.000         148.000
  24241751.081    -7230673.01849  -5623499.65045  24241750.945    24241767.279
       217.000         151.000
  22658745.170   -17833628.30249 -11178482.19746  22658744.118    22658756.906
       230.000         182.000
 00  4 20  0 42  0.0000000  0  8G 6G23G26G 3G17G29G22G21
  22240625.527   -19378185.64449 -15090277.43846  22240625.735    22240638.921
       228.000         181.000
  20732813.243   -24722575.23549 -18946082.80048  20732812.523    20732821.795
       245.000         215.000
  22418188.299   -11949670.39549  -9296370.96046  22418188.491    22418199.237
       226.000         177.000
  23383307.479   -12556005.89949  -9755034.94345  23383306.784    23383318.806
       219.000         161.000
  20826386.757   -25034017.80849 -19490285.62547  20826386.173    20826396.103
       243.000         211.000
  23866540.665    -6885235.92049  -4479795.12045  23866539.728    23866559.056
       209.000         148.000
  24250563.819    -7184362.32749  -5587413.51745  24250563.134    24250579.972
       216.000         150.000
  22647457.374   -17892945.41049 -11224703.17246  22647456.362    22647469.445
       230.000         182.000
 00  4 20  0 42 30.0000000  0  8G 6G23G26G 3G17G29G22G21
  22258704.916   -19283178.49849 -15016246.06446  22258704.869    22258717.873
       228.000         181.000
  20733338.033   -24719817.46349 -18943933.86848  20733337.489    20733346.776
       245.000         215.000
  22430867.598   -11883040.16549  -9244451.34446  22430867.943    22430878.270
       226.000         177.000
  23366254.385   -12645620.00449  -9824863.99945  23366253.210    23366266.083
       218.000         161.000
  20828701.815   -25021852.24149 -19480805.97347  20828701.230    20828711.272
       243.000         211.000
  23846069.555    -6992810.39549  -4563618.87845  23846068.550    23846087.264
       209.000         148.000
  24259435.057    -7137744.21249  -5551087.84045  24259434.683    24259450.834
       216.000         150.000
  22636212.785   -17952035.64849 -11270747.36846  22636212.106    22636224.649
       230.000         182.000
 00  4 20  0 43  0.0000000  0  8G 6G23G26G 3G17G29G22G21
  22276838.922   -19187884.24149 -14941990.97346  22276838.925    22276852.344
       228.000         181.000
  20733923.303   -24716741.68349 -18941537.13648  20733922.624    20733931.914
       245.000         215.000
  22443639.892   -11815921.49749  -9192151.11946  22443640.271    22443651.381
       226.000         177.000
  23349255.634   -12734948.55849  -9894470.54545  23349254.677    23349267.385
       217.000         161.000
  20831060.225   -25009458.78349 -19471148.74247  20831059.697    20831069.393
       244.000         211.000
  23825611.051    -7100318.51149  -4647390.91845  23825609.364    23825628.820
       210.000         148.000
  24268366.263    -7090810.80249  -5514516.46245  24268365.320    24268381.740
       218.000         149.000
  22625012.579   -18010892.28649 -11316609.53546  22625011.710    22625024.068
       230.000         182.000
 00  4 20  0 43 30.0000000  0  8G 6G23G26G 3G17G29G22G21
  22295029.937   -19092290.26749 -14867502.35046  22295030.302    22295043.634
       228.000         180.000
  20734570.824   -24713338.83649 -18938885.54848  20734570.296    20734579.372
       245.000         215.000
  22456505.743   -11748311.41149  -9139467.97546  22456505.685    22456517.019
       226.000         177.000
  23332312.114   -12823986.76849  -9963850.83845  23332311.967    23332323.960
       217.000         161.000
  20833464.628   -24996823.59949 -19461303.15347  20833463.853    20833473.703
       243.000         211.000
  23805164.308    -7207764.87349  -4731114.85845  23805163.099    23805181.400
       209.000         148.000
  24277359.961    -7043549.02849  -5477689.24245  24277359.124    24277377.612
       218.000         149.000
  22613858.279   -18069507.93649 -11362283.92246  22613857.242    22613869.300
       230.000         183.000
 00  4 20  0 44  0.0000000  0  8G 6G23G26G 3G17G29G22G21
  22313280.057   -18996385.87449 -14792771.82846  22313280.407    22313294.042
       227.000         180.000
  20735279.402   -24709615.01949 -18935983.85648  20735279.035    20735288.112
       245.000         215.000
  22469466.033   -11680204.81049  -9086397.93746  22469465.922    22469477.261
       226.000         176.000
  23315422.620   -12912741.20549 -10033010.01145  23315423.098    23315434.542
       219.000         161.000
  20835915.740   -24983942.77649 -19451266.16147  20835915.046    20835924.953
       243.000         211.000
  23784729.316    -7315149.62649  -4814790.77545  23784728.285    23784746.112
       209.000         150.000
  24286414.399    -6995968.02249  -5440613.27845  24286414.355    24286431.070
       217.000         148.000
  22602748.468   -18127889.82549 -11407776.15146  22602747.324    22602760.484
       231.000         183.000
 00  4 20  0 44 30.0000000  0  8G 6G23G26G 3G17G29G22G21
  22331589.237   -18900171.19649 -14717799.51146  22331589.692    22331602.756
       228.000         179.000
  20736050.321   -24705563.83649 -18932827.07248  20736049.741    20736058.964
       245.000         215.000
  22482520.697   -11611602.17349  -9032941.38146  22482520.685    22482531.895
       226.000         176.000
  23298588.359   -13001205.37349 -10101942.99445  23298587.683    23298600.376
       217.000         162.000
  20838413.433   -24970817.20549 -19441038.45547  20838413.007    20838422.710
       243.000         211.000
  23764308.048    -7422462.44149  -4898410.65045  23764306.783    23764325.347
       213.000         151.000
  24295530.676    -6948062.16449  -5403284.17445  24295529.455    24295545.389
       218.000         147.000
  22591683.917   -18186033.77049 -11453082.98246  22591682.973    22591695.638
       231.000         183.000
 00  4 20  0 45  0.0000000  0  8G 6G23G26G 3G17G29G22G21
  22349959.697   -18803634.55149 -14642576.32946  22349959.655    22349973.430
       226.000         179.000
  20736882.580   -24701190.32649 -18929419.12448  20736881.995    20736891.426
       245.000         215.000
  22495667.847   -11542513.71149  -8979106.25846  22495668.023    22495679.840
       225.000         176.000
  23281808.929   -13089381.25549 -10170651.34246  23281808.659    23281821.195
       219.000         163.000
  20840959.295   -24957438.50449 -19430613.50147  20840958.695    20840968.643
       243.000         210.000
  23743899.486    -7529708.16349  -4981978.24645  23743899.221    23743915.861
       212.000         151.000
  24304707.713    -6899837.09349  -5365706.35745  24304706.971    24304724.600
       217.000         148.000
  22580665.614   -18243934.84449 -11498200.55046  22580664.941    22580676.908
       230.000         183.000
 00  4 20  0 45 30.0000000  0  8G 6G23G26G 3G17G29G22G21
  22368390.861   -18706778.74949 -14567104.45246  22368391.315    22368404.025
       227.000         179.000
  20737775.367   -24696498.55349 -18925763.17948  20737774.717    20737784.105
       245.000         215.000
  22508907.707   -11472938.01349  -8924891.46546  22508907.608    22508918.832
       226.000         176.000
  23265084.279   -13177269.47349 -10239135.51446  23265083.538    23265096.774
       220.000         163.000
  20843555.245   -24943796.91749 -19419983.70447  20843554.807    20843564.647
       243.000         210.000
  23723504.287    -7636883.59649  -5065491.07545  23723502.931    23723521.087
       211.000         151.000
  24313944.328    -6851298.86049  -5327884.50545  24313943.097    24313960.790
       217.000         148.000
  22569693.617   -18301592.48949 -11543128.44546  22569692.477    22569704.858
       232.000         183.000
 00  4 20  0 46  0.0000000  0  8G 6G23G26G 3G17G29G22G21
  22386879.183   -18609622.44849 -14491398.43146  22386879.246    22386893.109
       226.000         178.000
  20738728.891   -24691487.65449 -18921858.56648  20738728.207    20738737.552
       245.000         215.000
  22522241.982   -11402866.09849  -8870290.02446  22522241.926    22522252.871
       225.000         176.000
  23248414.746   -13264868.20349 -10307394.12146  23248414.238    23248426.864
       218.000         164.000
  20846200.714   -24929895.00049 -19409151.05547  20846200.026    20846209.967
       243.000         210.000
  23703124.253    -7743979.39549  -5148941.85445  23703123.129    23703140.957
       214.000         152.000
  24323240.713    -6802446.61849  -5289817.97545  24323239.452    24323257.440
       216.000         148.000
  22558769.646   -18358997.70249 -11587859.63646  22558768.639    22558781.108
       231.000         184.000
 00  4 20  0 46 30.0000000  0  8G 6G23G26G 3G17G29G22G21
  22405422.322   -18512178.47949 -14415468.25046  22405422.459    22405435.959
       226.000         178.000
  20739744.304   -24686151.49949 -18917700.50948  20739743.784    20739752.943
       245.000         215.000
  22535668.082   -11332311.57949  -8815312.52246  22535667.472    22535678.781
       225.000         175.000
  23231801.995   -13352168.21249 -10375419.95046  23231801.628    23231813.940
       219.000         165.000
  20848895.957   -24915731.40349 -19398114.49647  20848895.430    20848905.191
       243.000         210.000
  23682759.714    -7850993.78649  -5232329.21545  23682757.718    23682776.652
       214.000         153.000
  24332597.234    -6753278.36149  -5251505.19345  24332597.114    24332613.520
       216.000         147.000
  22547893.790   -18416150.15949 -11632393.86946  22547893.428    22547905.411
       232.000         184.000
 00  4 20  0 47  0.0000000  0  8G 6G23G26G 3G17G29G22G21
  22424020.459   -18414445.21449 -14339312.63646  22424021.013    22424034.055
       226.000         178.000
  20740821.574   -24680490.43249 -18913289.27248  20740820.998    20740830.144
       245.000         215.000
  22549187.283   -11261267.76449  -8759953.75246  22549187.872    22549198.834
       225.000         175.000
  23215246.383   -13439167.79149 -10443211.68146  23215246.100    23215257.815
       219.000         165.000
  20851642.902   -24901296.17249 -19386866.27447  20851642.308    20851652.257
       243.000         210.000
  23662413.344    -7957912.74749  -5315642.21545  23662411.823    23662428.645
       214.000         153.000
  24342011.875    -6703804.56049  -5212954.32945  24342010.926    24342028.089
       215.000         148.000
  22537066.779   -18473045.82949 -11676728.01346  22537066.094    22537078.491
       231.000         184.000
 00  4 20  0 47 30.0000000  0  8G 6G23G26G 3G17G29G22G21
  22442672.552   -18316428.43349 -14262936.09446  22442673.291    22442686.507
       225.000         177.000
  20741957.209   -24674522.61449 -18908639.01348  20741956.642    20741965.654
       245.000         215.000
  22562801.128   -11189726.82649  -8704207.61546  22562800.758    22562812.358
       225.000         175.000
  23198749.039   -13525861.24649 -10510764.85846  23198748.221    23198760.687
       220.000         166.000
  20854440.182   -24886596.60849 -19375412.07747  20854439.612    20854449.423
       243.000         210.000
  23642089.398    -8064713.94149  -5398863.46345  23642088.323    23642105.593
       213.000         153.000
  24351484.850    -6654024.18749  -5174164.58145  24351485.088    24351502.078
       216.000         147.000
  22526287.872   -18529688.80449 -11720865.25546  22526287.536    22526299.167
       231.000         184.000
 00  4 20  0 48  0.0000000  0  8G 6G23G26G 3G17G29G22G21
  22461378.492   -18218128.60649 -14186339.01346  22461378.841    22461391.896
       225.000         177.000
  20743146.890   -24668270.80649 -18903767.46348  20743146.249    20743155.548
       245.000         215.000
  22576506.698   -11117703.87249  -8648085.88946  22576507.119    22576517.599
       225.000         175.000
  23182308.728   -13612255.02649 -10578084.54446  23182308.322    23182320.335
       221.000         167.000
  20857284.615   -24871649.10249 -19363764.67847  20857284.073    20857293.915
       243.000         210.000
  23621787.667    -8171398.30749  -5481993.67245  23621786.198    23621804.101
       214.000         154.000
  24361013.136    -6603953.31649  -5135148.46545  24361012.642    24361029.946
       214.000         147.000
  22515552.415   -18586103.34549 -11764824.49846  22515551.848    22515563.634
       232.000         185.000
 00  4 20  0 48 30.0000000  0  8G 6G23G26G 3G17G29G22G21
  22480136.669   -18119554.58349 -14109528.25546  22480136.975    22480150.288
       225.000         177.000
  20744385.669   -24661760.74949 -18898694.68448  20744384.961    20744394.322
       245.000         215.000
  22590301.061   -11045214.14149  -8591600.44246  22590301.230    22590312.126
       225.000         174.000
  23165924.404   -13698354.80649 -10645175.12146  23165924.304    23165936.892
       220.000         167.000
  20860172.641   -24856472.38149 -19351938.66747  20860172.153    20860182.196
       243.000         210.000
  23601506.686    -8277973.74349  -5565039.02045  23601504.998    23601522.513
       212.000         153.000
  24370594.272    -6553604.55249  -5095915.80145  24370593.319    24370612.369
       215.000         147.000
  22504857.110   -18642307.17849 -11808619.55546  22504856.422    22504868.620
       232.000         185.000
 00  4 20  0 49  0.0000000  0  8G 6G23G26G 3G17G29G22G21
  22498944.476   -18020719.54849 -14032514.13746  22498944.785    22498957.922
       225.000         177.000
  20745668.534   -24655019.27949 -18893441.58348  20745667.983    20745677.200
       245.000         214.000
  22604182.374   -10972267.65749  -8534759.08046  22604183.090    22604193.539
       224.000         174.000
  23149593.360   -13784174.38349 -10712047.36946  23149592.091    23149604.142
       220.000         168.000
  20863103.826   -24841069.04149 -19339936.06847  20863103.014    20863112.892
       243.000         210.000
  23581245.911    -8384443.11249  -5648001.71645  23581244.994    23581261.978
       214.000         152.000
  24380226.454    -6502987.66649  -5056474.22045  24380225.561    24380244.054
       215.000         147.000
  22494199.731   -18698311.56249 -11852259.18846  22494198.650    22494210.689
       232.000         186.000
 00  4 20  0 49 30.0000000  0  8G 6G23G26G 3G17G29G22G21
  22517796.971   -17921649.74949 -13955317.07846  22517797.503    22517810.997
       225.000         176.000
  20746995.108   -24648048.08849 -18888009.48048  20746994.385    20747003.793
       245.000         214.000
  22618146.447   -10898886.14349  -8477578.73846  22618146.913    22618157.745
       224.000         173.000
  23133313.410   -13869725.42749 -10778710.37646  23133312.431    23133325.926
       221.000         168.000
  20866077.494   -24825442.34349 -19327759.42347  20866076.866    20866086.766
       243.000         210.000
  23560999.358    -8490837.56749  -5730906.04245  23560997.791    23561015.439
       214.000         152.000
  24389909.274    -6452104.74149  -5016825.33145  24389908.198    24389926.599
       214.000         147.000
  22483578.044   -18754128.37649 -11895752.67146  22483577.363    22483589.199
       232.000         186.000
 00  4 20  0 50  0.0000000  0  8G 6G23G26G 3G17G29G22G21
  22536693.824   -17822346.76749 -13877938.31246  22536693.961    22536708.156
       225.000         176.000
  20748372.487   -24640809.72449 -18882369.19148  20748371.931    20748381.120
       244.000         214.000
  22632191.305   -10825080.11549  -8420067.61546  22632191.020    22632202.974
       224.000         173.000
  23117088.123   -13954989.33249 -10845149.64346  23117087.573    23117099.757
       221.000         169.000
  20869097.526   -24809571.96049 -19315392.89347  20869096.915    20869106.725
       243.000         210.000
  23540765.452    -8597165.68349  -5813758.67245  23540763.239    23540781.005
       212.000         152.000
  24399642.265    -6400958.20849  -4976971.02945  24399642.009    24399660.503
       213.000         146.000
  22472993.607   -18809749.46249 -11939093.63746  22472993.310    22473005.170
       232.000         186.000
 00  4 20  0 50 30.0000000  0  8G 6G23G26G 3G17G29G22G21
  22555634.479   -17722813.69749 -13800380.25846  22555634.459    22555648.069
       224.000         176.000
  20749805.943   -24633276.94849 -18876499.48448  20749805.269    20749814.566
       244.000         214.000
  22646318.472   -10750841.53449  -8362219.42446  22646318.650    22646329.772
       224.000         173.000
  23100922.671   -14039938.89249 -10911343.97946  23100921.835    23100934.295
       223.000         169.000
  20872169.777   -24793427.06849 -19302812.45747  20872169.068    20872178.771
       243.000         210.000
  23520546.642    -8703414.30749  -5896549.37445  23520545.445    23520562.162
       213.000         152.000
  24409427.191    -6349538.69349  -4936904.01745  24409427.505    24409443.623
       212.000         147.000
  22462449.922   -18865156.40549 -11982267.74046  22462449.220    22462461.567
       233.000         187.000
 00  4 20  0 51  0.0000000  0  8G 6G23G26G 3G17G29G22G21
  22574622.164   -17623033.56249 -13722629.68846  22574622.954    22574636.294
       224.000         175.000
  20751303.402   -24625407.60049 -18870367.52048  20751302.642    20751312.009
       244.000         214.000
  22660530.252   -10676158.26449  -8304024.74246  22660530.641    22660541.341
       224.000         172.000
  23084820.803   -14124554.49649 -10977278.08746  23084820.521    23084832.662
       223.000         170.000
  20875299.680   -24776979.33249 -19289996.03947  20875299.051    20875309.081
       243.000         210.000
  23500342.965    -8809583.66449  -5979278.30945  23500341.802    23500359.236
       211.000         151.000
  24419265.679    -6297837.51349  -4896617.53645  24419265.075    24419282.200
       213.000         146.000
  22451951.092   -18920327.60749 -12025258.15146  22451950.488    22451961.907
       233.000         187.000
 00  4 20  0 51 30.0000000  0  8G 6G23G26G 3G17G29G22G21
  22593662.413   -17522977.07949 -13644663.77846  22593662.713    22593676.260
       224.000         175.000
  20752871.547   -24617167.01849 -18863946.28548  20752871.156    20752880.159
       244.000         214.000
  22674831.460   -10601005.39349  -8245464.12746  22674832.570    22674842.734
       224.000         172.000
  23068788.325   -14208805.30449 -11042927.95546  23068787.591    23068800.389
       224.000         171.000
  20878488.711   -24760220.88749 -19276937.50747  20878488.063    20878498.095
       243.000         210.000
  23480158.030    -8915654.21549  -6061930.24145  23480156.026    23480173.542
       211.000         151.000
  24429158.086    -6245853.21649  -4856110.42645  24429157.416    24429175.521
       213.000         147.000
  22441500.442   -18975245.55249 -12068051.21746  22441499.723    22441511.444
       233.000         187.000
 00  4 20  0 52  0.0000000  0  8G 6G23G26G 3G17G29G22G21
  22612761.574   -17422610.96549 -13566456.59946  22612761.681    22612775.997
       225.000         175.000
  20754509.102   -24608561.55049 -18857240.71548  20754508.503    20754517.789
       244.000         214.000
  22689224.782   -10525368.33049  -8186526.21846  22689224.767    22689236.045
       224.000         171.000
  23052828.559   -14292673.90249 -11108279.99046  23052828.019    23052839.968
       225.000         171.000
  20881736.460   -24743153.86549 -19263638.52047  20881735.805    20881745.375
       243.000         210.000
  23459998.876    -9021589.39049  -6144476.69345  23459997.682    23460015.746
       210.000         151.000
  24439104.254    -6193586.40049  -4815383.18845  24439103.091    24439120.587
       212.000         147.000
  22431100.027   -19029899.76649 -12110638.77646  22431098.634    22431111.264
       233.000         187.000
 00  4 20  0 52 30.0000000  0  8G 6G23G26G 3G17G29G22G21
  22631918.422   -17321941.91549 -13488013.36846  22631918.749    22631932.362
       224.000         175.000
  20756210.854   -24599618.67349 -18850272.23348  20756210.245    20756219.581
       244.000         214.000
  22703711.406   -10449240.84449  -8127206.16546  22703710.888    22703722.802
       223.000         170.000
  23036938.652   -14376175.48549 -11173346.04646  23036938.090    23036949.412
       225.000         172.000
  20885038.132   -24725803.52749 -19250118.77247  20885037.449    20885047.392
       243.000         209.000
  23439866.783    -9127382.44649  -6226912.40445  23439865.869    23439882.160
       211.000         151.000
  24449103.114    -6141042.73649  -4774440.21345  24449102.638    24449121.594
       213.000         147.000
  22420750.104   -19084288.27349 -12153019.29647  22420749.528    22420761.272
       234.000         188.000
 00  4 20  0 53  0.0000000  0  8G 6G23G26G 3G17G29G22G21
  22651134.282   -17220962.69649 -13409328.45446  22651134.426    22651148.380
       223.000         174.000
  20757972.097   -24590363.31349 -18843060.25748  20757971.645    20757980.813
       244.000         214.000
  22718290.685   -10372626.26649  -8067506.55446  22718290.365    22718302.131
       223.000         170.000
  23021113.501   -14459336.69749 -11238146.88146  23021112.795    23021125.613
       224.000         173.000
  20888388.473   -24708197.29549 -19236399.62947  20888387.780    20888397.735
       243.000         209.000
  23419761.074    -9233036.84849  -6309240.07345  23419759.718    23419776.023
       212.000         152.000
  24459153.489    -6088228.11949  -4733286.10545  24459153.271    24459171.555
       213.000         148.000
  22410451.558   -19138407.04849 -12195189.63347  22410450.608    22410462.500
       233.000         188.000
 00  4 20  0 53 30.0000000  0  8G 6G23G26G 3G17G29G22G21
  22670406.845   -17119685.63749 -13330411.46846  22670407.274    22670421.042
       223.000         174.000
  20759784.207   -24580840.60049 -18835639.95148  20759783.711    20759792.921
       244.000         214.000
  22732957.547   -10295551.74949  -8007448.55946  22732957.711    22732969.842
       223.000         169.000
  23005349.379   -14542177.29349 -11302697.89846  23005348.838    23005361.471
       225.000         173.000
  20891785.639   -24690345.03649 -19222488.77947  20891784.968    20891794.976
       242.000         209.000
  23399684.560    -9338537.77949  -6391448.15845  23399683.007    23399699.556
       212.000         153.000
  24469252.755    -6035156.68749  -4691931.91145  24469252.469    24469269.771
       213.000         148.000
  22400201.467   -19192271.00549 -12237161.40747  22400200.434    22400212.693
       234.000         188.000
 00  4 20  0 54  0.0000000  0  8G 6G23G26G 3G17G29G22G21
  22689729.857   -17018143.34149 -13251287.81746  22689730.726    22689744.029
       224.000         174.000
  20761643.682   -24571068.99949 -18828025.71148  20761643.084    20761652.302
       244.000         214.000
  22747707.877   -10218038.53449  -7947048.72146  22747708.009    22747719.468
       224.000         169.000
  22989642.550   -14624716.58549 -11367014.12746  22989642.022    22989654.108
       225.000         173.000
  20895227.000   -24672260.36349 -19208396.83647  20895226.346    20895236.291
       243.000         209.000
  23379634.349    -9443900.77549  -6473548.76845  23379633.157    23379649.600
       213.000         154.000
  24479399.159    -5981837.75449  -4650384.82945  24479398.615    24479416.636
       213.000         147.000
  22389998.850   -19245885.39249 -12278938.72247  22389998.557    22390010.103
       234.000         188.000
 00  4 20  0 54 30.0000000  0  8G 6G23G26G 3G17G29G22G21
  22709099.545   -16916355.65549 -13171972.94046  22709099.298    22709114.185
       224.000         174.000
  20763552.078   -24561040.29549 -18820211.12348  20763551.442    20763560.584
       244.000         214.000
  22762539.969   -10140095.49449  -7886313.94346  22762539.672    22762551.124
       223.000         169.000
  22973993.978   -14706949.97049 -11431091.99246  22973993.215    22974005.434
       226.000         174.000
  20898713.274   -24653939.91449 -19194121.16647  20898712.662    20898722.522
       243.000         209.000
  23359606.817    -9549144.36349  -6555556.32945  23359605.672    23359622.082
       214.000         155.000
  24489592.269    -5928273.20749  -4608646.39245  24489592.068    24489609.605
       211.000         147.000
  22379843.117   -19299253.78249 -12320524.34347  22379842.577    22379854.032
       234.000         189.000
 00  4 20  0 55  0.0000000  0  8G 6G23G26G 3G17G29G22G21
  22728517.832   -16814312.73849 -13092459.17846  22728517.575    22728531.873
       223.000         173.000
  20765510.494   -24550748.62949 -18812191.63248  20765509.807    20765519.252
       244.000         214.000
  22777452.244   -10061731.07249  -7825250.82346  22777452.128    22777463.579
       223.000         168.000
  22958405.010   -14788870.10849 -11494925.78046  22958404.667    22958416.016
       226.000         174.000
  20902247.723   -24635366.24049 -19179648.17847  20902246.916    20902257.223
       242.000         209.000
  23339601.334    -9654272.17349  -6637473.68345  23339599.681    23339616.192
       215.000         156.000
  24499830.649    -5874470.80849  -4566722.62745  24499829.621    24499848.731
       209.000         148.000
  22369729.935   -19352398.37249 -12361935.57647  22369728.899    22369740.928
       234.000         189.000
 00  4 20  0 55 30.0000000  0  8G 6G23G26G 3G17G29G22G21
  22747981.977   -16712028.75249 -13012757.57746  22747982.140    22747995.418
       224.000         173.000
  20767523.478   -24540170.52949 -18803948.95148  20767523.033    20767532.219
       245.000         214.000
  22792445.875    -9982939.18049  -7763854.60346  22792446.428    22792457.870
       223.000         168.000
  22942882.202   -14870442.62049 -11558488.69046  22942881.084    22942893.922
       226.000         175.000
  20905832.022   -24616530.77449 -19164971.20847  20905831.414    20905841.123
       243.000         209.000
  23319620.015    -9759273.09849  -6719292.17645  23319618.994    23319634.911
       217.000         157.000
  24510114.640    -5820428.73549  -4524612.09045  24510115.200    24510131.855
       209.000         147.000
  22359658.844   -19405321.76749 -12403174.45347  22359658.181    22359670.100
       235.000         189.000
 00  4 20  0 56  0.0000000  0  8G 6G23G26G 3G17G29G22G21
  22767489.730   -16609515.63249 -12932877.44246  22767490.205    22767503.985
       224.000         172.000
  20769594.861   -24529285.21549 -18795466.87748  20769594.269    20769603.383
       245.000         214.000
  22807523.993    -9903703.22149  -7702112.37446  22807524.399    22807535.229
       224.000         168.000
  22927428.629   -14951651.21949 -11621768.03646  22927428.462    22927440.100
       227.000         175.000
  20909464.283   -24597443.24549 -19150097.82347  20909463.729    20909473.380
       243.000         209.000
  23299660.932    -9864157.37149  -6801019.78145  23299659.771    23299675.674
       215.000         159.000
  24520443.810    -5766149.18149  -4482316.53145  24520443.350    24520462.240
       209.000         146.000
  22349629.127   -19458027.93349 -12444244.07347  22349627.935    22349640.187
       235.000         189.000
 00  4 20  0 56 30.0000000  0  8G 6G23G26G 3G17G29G22G21
  22787042.555   -16506765.69849 -12852812.76846  22787042.998    22787057.211
       223.000         172.000
  20771724.720   -24518092.64149 -18786745.38648  20771724.265    20771733.408
       245.000         214.000
  22822685.860    -9824027.13249  -7640027.17446  22822686.433    22822698.007
       222.000         168.000
  22912046.991   -15032482.17449 -11684753.11946  22912046.620    22912058.263
       227.000         175.000
  20913148.367   -24578083.31049 -19135012.17747  20913147.789    20913157.546
       242.000         209.000
  23279726.142    -9968913.78749  -6882647.76445  23279725.371    23279740.571
       216.000         160.000
  24530819.922    -5711623.08749  -4439828.86245  24530819.167    24530838.164
       209.000         146.000
  22339640.608   -19510517.43349 -12485144.86447  22339639.989    22339651.157
       234.000         189.000
 00  4 20  0 57  0.0000000  0  8G 6G23G26G 3G17G29G22G21
  22806638.723   -16403788.09149 -12772570.68746  22806639.592    22806653.146
       223.000         171.000
  20773912.573   -24506595.40049 -18777786.48448  20773912.090    20773921.202
       244.000         214.000
  22837930.971    -9743913.92849  -7577601.35846  22837931.569    22837942.594
       221.000         168.000
  22896737.134   -15112935.70049 -11747444.09146  22896736.879    22896748.786
       226.000         176.000
  20916883.962   -24558452.54849 -19119715.49947  20916883.233    20916893.257
       242.000         209.000
  23259818.144   -10073529.54149  -6964166.15245  23259816.874    23259832.984
       217.000         161.000
  24541242.297    -5656853.78049  -4397151.67945  24541241.602    24541259.843
       207.000         146.000
  22329696.401   -19562774.02449 -12525864.15847  22329695.483    22329706.736
       234.000         189.000
 00  4 20  0 57 30.0000000  0  8G 6G23G26G 3G17G29G22G21
  22826273.965   -16300605.04249 -12692168.52046  22826274.469    22826289.386
       223.000         171.000
  20776157.450   -24494798.51349 -18768594.09548  20776156.906    20776166.021
       244.000         214.000
  22853258.569    -9663367.36649  -7514837.87246  22853258.488    22853270.176
       223.000         168.000
  22881499.835   -15193007.97149 -11809837.98146  22881499.567    22881510.991
       227.000         176.000
  20920670.737   -24538552.96749 -19104209.35247  20920670.151    20920680.046
       242.000         209.000
  23239939.271   -10177992.33449  -7045565.35045  23239938.445    23239953.166
       217.000         162.000
  24551714.439    -5601822.93149  -4354270.70945  24551714.192    24551732.878
       206.000         146.000
  22319801.102   -19614773.77749 -12566383.33247  22319800.534    22319811.770
       234.000         190.000
 00  4 20  0 58  0.0000000  0  8G 6G23G26G 3G17G29G22G21
  22845948.438   -16197215.81349 -12611605.69546  22845949.668    22845963.425
       225.000         170.000
  20778455.215   -24482723.57349 -18759185.03448  20778454.485    20778463.803
       245.000         214.000
  22868666.264    -9582399.48649  -7451746.07546  22868666.202    22868677.529
       223.000         168.000
  22866333.298   -15272708.11649 -11871941.89946  22866333.247    22866344.697
       227.000         175.000
  20924510.079   -24518377.17149 -19088487.97147  20924509.414    20924519.216
       244.000         209.000
  23220088.705   -10282306.09449  -7126848.42745  23220087.298    23220103.505
       218.000         162.000
  24562235.507    -5546535.32749  -4311189.67045  24562235.228    24562253.700
       206.000         146.000
  22309954.586   -19666517.10349 -12606702.69147  22309953.670    22309965.228
       236.000         190.000
 00  4 20  0 58 30.0000000  0  8G 6G23G26G 3G17G29G22G21
  22865663.402   -16093613.69449 -12530876.98946  22865663.690    22865677.657
       223.000         169.000
  20780803.682   -24470382.19949 -18749568.37448  20780803.239    20780812.399
       244.000         214.000
  22884151.137    -9501026.03949  -7388338.26846  22884151.352    22884162.749
       222.000         168.000
  22851236.657   -15352041.20949 -11933759.79146  22851235.879    22851248.904
       226.000         175.000
  20928402.793   -24497920.70149 -19072547.88847  20928402.189    20928412.359
       242.000         209.000
  23200269.066   -10386457.37149  -7208004.92346  23200268.438    23200283.180
       217.000         163.000
  24572806.657    -5490984.35149  -4267903.40045  24572805.461    24572825.020
       207.000         146.000
  22300158.174   -19717996.94049 -12646816.74147  22300157.412    22300169.018
       234.000         190.000
 00  4 20  0 59  0.0000000  0  8G 6G23G26G 3G17G29G22G21
  22885418.005   -15989803.45449 -12449986.12046  22885418.544    22885433.232
       223.000         169.000
  20783202.116   -24457778.31549 -18739747.15248  20783201.639    20783210.810
       244.000         214.000
  22899714.230    -9419241.75149  -7324610.31146  22899714.028    22899725.972
       224.000         168.000
  22836208.425   -15431014.72149 -11995297.49646  22836208.512    22836219.336
       225.000         175.000
  20932345.636   -24477200.92249 -19056402.62547  20932345.029    20932354.955
       242.000         209.000
  23180482.272   -10490436.07949  -7289026.94146  23180481.057    23180497.547
       218.000         164.000
  24583425.576    -5435181.95549  -4224421.22645  24583426.238    24583443.214
       206.000         145.000
  22290410.104   -19769223.06249 -12686733.08247  22290409.241    22290421.166
       234.000         190.000
 00  4 20  0 59 30.0000000  0  8G 6G23G26G 3G17G29G22G21
  22905212.008   -15885785.98449 -12368933.76546  22905212.401    22905226.065
       223.000         168.000
  20785647.979   -24444925.24849 -18729731.76448  20785647.316    20785656.602
       245.000         214.000
  22915353.600    -9337056.79249  -7260570.15846  22915353.961    22915364.770
       222.000         168.000
  22821247.222   -15509636.08449 -12056560.78946  22821246.530    22821257.842
       225.000         175.000
  20936338.906   -24456216.19949 -19040050.91447  20936338.235    20936348.166
       243.000         208.000
  23160726.404   -10594252.51949  -7369922.52346  23160725.963    23160740.632
       219.000         164.000
  24594089.036    -5379146.09349  -4180757.11945  24594089.106    24594107.726
       207.000         146.000
  22280703.154   -19820233.10849 -12726481.06547  22280702.141    22280713.765
       235.000         191.000
 00  4 20  1  0  0.0000000  0  8G 6G23G26G 3G17G29G22G21
  22925049.732   -15781538.77649 -12287702.39046  22925049.459    22925064.292
       223.000         168.000
  20788143.976   -24431808.64249 -18719511.02448  20788143.538    20788152.612
       244.000         214.000
  22931070.445    -9254464.52049  -7196212.61346  22931071.060    22931081.880
       223.000         168.000
  22806352.983   -15587905.18849 -12117549.58946  22806352.211    22806364.749
       225.000         175.000
  20940384.765   -24434955.13249 -19023483.86947  20940384.264    20940394.071
       242.000         208.000
  23141000.466   -10697911.73949  -7450695.60946  23141000.039    23141014.853
       219.000         164.000
  24604793.896    -5322892.54249  -4136923.38245  24604793.886    24604812.332
       204.000         146.000
  22271034.228   -19871043.15249 -12766073.20547  22271033.534    22271044.827
       235.000         191.000
 00  4 20  1  0 30.0000000  0  8G 6G23G26G 3G17G29G22G21
  22944932.213   -15677056.64749 -12206287.96346  22944932.414    22944948.169
       223.000         168.000
  20790694.115   -24418407.78149 -18709068.78148  20790693.602    20790702.847
       244.000         214.000
  22946865.108    -9171463.45449  -7131536.52046  22946865.206    22946877.364
       223.000         168.000
  22791526.539   -15665818.23449 -12178260.93246  22791525.945    22791537.449
       225.000         175.000
  20944484.960   -24413408.71949 -19006694.47147  20944484.375    20944494.401
       242.000         208.000
  23121305.681   -10801407.10749  -7531341.00146  23121304.964    23121320.458
       221.000         164.000
  24615541.198    -5266415.80949  -4092915.74345  24615540.816    24615559.060
       206.000         146.000
  22261401.822   -19921661.21849 -12805515.73647  22261401.173    22261412.735
       235.000         191.000
 00  4 20  1  1  0.0000000  0  8G 6G23G26G 3G17G29G22G21
  22964858.935   -15572341.94949 -12124692.30446  22964858.809    22964873.426
       222.000         167.000
  20793298.131   -24404723.48849 -18698405.68148  20793297.420    20793306.728
       244.000         214.000
  22962740.190    -9088039.84149  -7066531.17946  22962740.506    22962751.524
       222.000         168.000
  22776770.968   -15743358.75849 -12238681.99746  22776770.640    22776782.655
       226.000         175.000
  20948641.565   -24391565.70349 -18989673.94647  20948641.058    20948651.074
       242.000         208.000
  23101640.457   -10904747.12749  -7611865.36546  23101639.328    23101653.787
       221.000         164.000
  24626330.562    -5209718.24849  -4048736.02045  24626329.987    24626349.343
       202.000         146.000
  22251806.420   -19972085.07649 -12844806.94447  22251805.506    22251817.024
       235.000         191.000
 00  4 20  1  1 30.0000000  0  8G 6G23G26G 3G17G29G22G21
  22984830.672   -15467390.51349 -12042912.18546  22984830.983    22984844.853
       222.000         167.000
  20795955.759   -24390757.37249 -18687522.98748  20795955.140    20795964.218
       244.000         214.000
  22978693.804    -9004203.45349  -7001204.20546  22978693.841    22978705.287
       223.000         168.000
  22762088.171   -15820516.94849 -12298805.14046  22762087.675    22762099.210
       225.000         175.000
  20952856.467   -24369416.32249 -18972414.70547  20952855.750    20952865.761
       242.000         208.000
  23082002.050   -11007946.31549  -7692279.98246  23082000.703    23082016.033
       220.000         164.000
  24637163.385    -5152792.28149  -4004378.32545  24637162.717    24637182.347
       205.000         145.000
  22242251.461   -20022296.18049 -12883932.37947  22242250.760    22242262.046
       235.000         191.000
 00  4 20  1  2  0.0000000  0  8G 6G23G26G 3G17G29G22G21
  23004847.029   -15362204.86649 -11960949.57746  23004848.185    23004861.613
       222.000         166.000
  20798665.716   -24376516.30249 -18676426.03548  20798664.994    20798674.265
       244.000         214.000
  22994723.785    -8919965.42249  -6935564.25646  22994723.924    22994735.355
       222.000         169.000
  22747477.185   -15897297.73749 -12358634.18546  22747476.690    22747488.194
       226.000         176.000
  20957125.969   -24346980.07249 -18954931.92647  20957125.394    20957135.255
       242.000         208.000
  23062392.452   -11110994.22449  -7772576.72446  23062391.698    23062406.612
       221.000         165.000
  24648040.109    -5095635.32549  -3959840.62745  24648039.667    24648058.841
       205.000         145.000
  22232740.031   -20072278.56149 -12922879.59447  22232739.185    22232750.681
       236.000         191.000
 00  4 20  1  2 30.0000000  0  8G 6G23G26G 3G17G29G22G21
  23024905.667   -15256796.63149 -11878813.51546  23024906.399    23024920.625
       221.000         166.000
  20801424.259   -24362019.93249 -18665130.15048  20801423.744    20801432.815
       244.000         214.000
  23010828.262    -8835336.24549  -6869619.51946  23010828.955    23010839.739
       223.000         169.000
  22732939.446   -15973693.52549 -12418163.24246  22732938.434    22732950.384
       226.000         176.000
  20961445.958   -24324278.38949 -18937242.31347  20961445.074    20961455.237
       242.000         208.000
  23042814.728   -11213874.54549  -7852742.86646  23042813.212    23042828.694
       221.000         164.000
  24658960.971    -5038246.39449  -3915122.16145  24658960.717    24658979.025
       204.000         145.000
  22223275.611   -20122013.98049 -12961634.37547  22223274.707    22223286.492
       235.000         191.000
 00  4 20  1  3  0.0000000  0  8G 6G23G26G 3G17G29G22G21
  23045006.495   -15151167.13749 -11796505.05446  23045006.284    23045021.769
       221.000         166.000
  20804228.957   -24347281.02849 -18653645.28048  20804228.422    20804237.415
       244.000         214.000
  23027005.161    -8750326.48249  -6803378.22546  23027005.846    23027017.598
       223.000         169.000
  22718471.930   -16049720.49149 -12477404.90846  22718471.320    22718482.484
       225.000         176.000
  20965812.580   -24301331.73249 -18919361.81247  20965812.000    20965821.757
       242.000         208.000
  23023267.292   -11316595.65949  -7932784.97246  23023266.744    23023280.862
       221.000         164.000
  24669924.529    -4980633.07049  -3870228.85745  24669923.887    24669943.364
       206.000         145.000
  22213860.788   -20171488.64649 -13000185.95947  22213860.145    22213871.231
       235.000         191.000
 00  4 20  1  3 30.0000000  0  8G 6G23G26G 3G17G29G22G21
  23065149.462   -15045316.03649 -11714023.90846  23065149.969    23065164.874
       222.000         165.000
  20807081.822   -24332289.00449 -18641963.16648  20807081.277    20807090.469
       244.000         214.000
  23043249.857    -8664960.27149  -6736859.17846  23043250.699    23043262.115
       223.000         169.000
  22704073.525   -16125384.08149 -12536363.40846  22704073.247    22704084.521
       226.000         176.000
  20970223.322   -24278153.15449 -18901300.58147  20970222.517    20970232.634
       242.000         208.000
  23003753.768   -11419138.77449  -8012688.36446  23003752.713    23003767.847
       220.000         165.000
  24680927.832    -4922810.70249  -3825172.65745  24680927.409    24680946.736
       204.000         144.000
  22204495.232   -20220704.59149 -13038535.94947  22204494.568    22204505.130
       235.000         192.000
 00  4 20  1  4  0.0000000  0  8G 6G23G26G 3G17G29G22G21
  23085333.277   -14939250.09349 -11631375.35746  23085333.946    23085348.175
       221.000         165.000
  20809984.618   -24317034.58949 -18630076.59848  20809984.078    20809993.218
       244.000         214.000
  23059564.508    -8579226.26649  -6670053.54646  23059564.686    23059576.535
       223.000         169.000
  22689746.430   -16200672.97249 -12595029.94946  22689746.375    22689757.300
       227.000         177.000
  20974678.034   -24254743.38349 -18883059.20947  20974677.313    20974687.541
       241.000         208.000
  22984277.136   -11521488.00949  -8092440.67746  22984276.157    22984291.513
       221.000         165.000
  24691969.261    -4864788.43049  -3779960.68445  24691968.316    24691987.650
       203.000         145.000
  22195176.775   -20269672.98949 -13076693.04647  22195175.939    22195187.464
       236.000         192.000
 00  4 20  1  4 30.0000000  0  8G 6G23G26G 3G17G29G22G21
  23105555.853   -14832980.65849 -11548568.24646  23105555.607    23105571.453
       220.000         165.000
  20812938.207   -24301513.42549 -18617982.17548  20812937.603    20812946.827
       244.000         214.000
  23075951.268    -8493113.49149  -6602952.75346  23075951.761    23075962.720
       222.000         168.000
  22675492.175   -16275579.22349 -12653398.33646  22675491.424    22675502.815
       227.000         177.000
  20979180.864   -24231080.88049 -18864620.90647  20979180.316    20979190.450
       241.000         207.000
  22964834.176   -11623659.91449  -8172054.81846  22964833.746    22964848.592
       221.000         165.000
  24703048.194    -4806568.75349  -3734594.89045  24703047.866    24703067.028
       205.000         145.000
  22185904.925   -20318396.50549 -13114659.31647  22185904.018    22185915.582
       235.000         192.000
 00  4 20  1  5  0.0000000  0  8G 6G23G26G 3G17G29G22G21
  23125815.894   -14726514.45649 -11465607.81946  23125816.960    23125831.200
       220.000         165.000
  20815943.589   -24285719.95149 -18605675.56148  20815942.963    20815952.330
       245.000         214.000
  23092411.363    -8406615.34449  -6535551.69646  23092411.476    23092423.511
       223.000         168.000
  22661312.613   -16350092.63449 -12711460.60046  22661311.630    22661324.332
       228.000         177.000
  20983736.494   -24207140.92249 -18845966.40647  20983735.932    20983745.802
       241.000         207.000
  22945423.978   -11725659.78349  -8251534.91446  22945422.395    22945437.319
       221.000         165.000
  24714164.515    -4748152.53249  -3689075.93945  24714164.350    24714183.257
       205.000         145.000
  22176677.603   -20366885.96849 -13152443.21947  22176676.826    22176688.181
       236.000         192.000
 00  4 20  1  5 30.0000000  0  8G 6G23G26G 3G17G29G22G21
  23146110.602   -14619865.94549 -11382505.31446  23146110.301    23146126.364
       221.000         165.000
  20818998.333   -24269667.10149 -18593166.83648  20818997.788    20819006.981
       244.000         214.000
  23108947.543    -8319717.65249  -6467839.29646  23108947.848    23108959.799
       221.000         167.000
  22647211.253   -16424195.22849 -12769202.76046  22647210.652    22647221.805
       226.000         178.000
  20988346.913   -24182913.14649 -18827087.63247  20988346.200    20988356.364
       242.000         207.000
  22926047.659   -11827481.80749  -8330876.42746  22926046.688    22926060.834
       220.000         165.000
  24725316.814    -4689547.62849  -3643409.97845  24725316.629    24725336.045
       206.000         145.000
  22167489.934   -20415167.12749 -13190064.80447  22167489.326    22167500.305
       236.000         192.000
 00  4 20  1  6  0.0000000  0  8G 6G23G26G 3G17G29G22G21
  23166437.887   -14513046.23049 -11299269.42646  23166438.448    23166453.467
       221.000         165.000
  20822100.449   -24253365.31249 -18580464.13748  20822099.920    20822109.097
       244.000         214.000
  23125562.228    -8232407.24949  -6399805.29946  23125561.987    23125574.215
       220.000         167.000
  22633187.086   -16497892.28349 -12826628.91646  22633186.631    22633198.132
       226.000         178.000
  20993014.493   -24158384.92749 -18807974.75347  20993013.879    20993023.860
       242.000         207.000
  22906700.962   -11929147.77249  -8410096.34346  22906700.032    22906714.152
       221.000         165.000
  24736506.004    -4630748.72449  -3597592.85145  24736505.094    24736524.551
       207.000         146.000
  22158340.266   -20463248.71949 -13227530.87147  22158339.661    22158351.066
       237.000         192.000
 00  4 20  1  6 30.0000000  0  8G 6G23G26G 3G17G29G22G21
  23186798.501   -14406051.45549 -11215897.13146  23186798.583    23186814.657
       220.000         165.000
  20825247.558   -24236827.15849 -18567577.25548  20825247.111    20825256.287
       244.000         214.000
  23142252.495    -8144699.45749  -6331461.65546  23142253.201    23142264.429
       221.000         166.000
  22619237.328   -16571198.46949 -12883750.50146  22619236.868    22619248.150
       228.000         179.000
  20997740.950   -24133547.20649 -18788620.69047  20997740.317    20997750.173
       241.000         207.000
  22887384.877   -12030653.32249  -8489191.26846  22887383.834    22887398.543
       220.000         166.000
  24747731.818    -4571757.51549  -3551625.87245  24747731.602    24747750.763
       206.000         147.000
  22149229.573   -20511125.31549 -13264837.20147  22149228.548    22149240.100
       236.000         193.000
 00  4 20  1  7  0.0000000  0  8G 6G23G26G 3G17G29G22G21
  23207193.220   -14298877.31649 -11132385.07646  23207193.135    23207209.787
       221.000         165.000
  20828438.969   -24220056.34049 -18554509.07948  20828438.342    20828447.629
       244.000         214.000
  23159015.957    -8056607.17049  -6262818.39846  23159016.516    23159028.244
       221.000         165.000
  22605362.438   -16644111.02949 -12940565.37446  22605362.083    22605373.105
       229.000         179.000
  21002524.746   -24108408.25949 -18769031.91347  21002524.105    21002534.158
       241.000         207.000
  22868104.435   -12131971.32049  -8568140.04646  22868102.832    22868118.363
       221.000         166.000
  24758992.517    -4512583.03849  -3505516.08745  24758992.286    24759011.448
       209.000         147.000
  22140156.927   -20558802.03249 -13301987.80947  22140156.319    22140167.170
       236.000         193.000
 00  4 20  1  7 30.0000000  0  8G 6G23G26G 3G17G29G22G21
  23227623.982   -14191513.89649 -11048725.54346  23227623.901    23227640.401
       219.000         165.000
  20831677.541   -24203037.47849 -18541247.61948  20831677.030    20831686.159
       244.000         214.000
  23175852.161    -7968132.57549  -6193877.25146  23175852.381    23175863.805
       219.000         164.000
  22591560.957   -16716637.78349 -12997079.61846  22591560.568    22591572.157
       227.000         180.000
  21007365.082   -24082972.08749 -18749211.53747  21007364.464    21007374.583
       241.000         207.000
  22848862.268   -12233088.28949  -8646932.19846  22848861.402    22848874.941
       220.000         166.000
  24770287.737    -4453227.13349  -3459264.94545  24770287.507    24770306.753
       211.000         148.000
  22131124.584   -20606267.04549 -13338973.45747  22131124.172    22131135.260
       236.000         193.000
 00  4 20  1  8  0.0000000  0  8G 6G23G26G 3G17G29G22G21
  23248091.643   -14083956.84549 -10964915.12346  23248092.231    23248107.306
       219.000         165.000
  20834964.490   -24185764.50249 -18527788.14848  20834963.985    20834973.177
       244.000         214.000
  23192757.325    -7879295.58849  -6124653.70846  23192757.948    23192769.191
       219.000         163.000
  22577831.715   -16788784.84849 -13053298.00746  22577830.883    22577842.357
       228.000         180.000
  21012262.655   -24057235.27949 -18729156.89647  21012262.024    21012271.762
       241.000         207.000
  22829660.317   -12333993.99649  -8725559.73846  22829659.006    22829673.945
       220.000         167.000
  24781616.931    -4393692.68749  -3412874.67445  24781616.244    24781635.922
       210.000         149.000
  22122137.601   -20653493.58849 -13375773.26247  22122136.783    22122147.875
       236.000         193.000
 00  4 20  1  8 30.0000000  0  8G 6G23G26G 3G17G29G22G21
  23268597.238   -13976200.17549 -10880949.17246  23268598.425    23268613.618
       219.000         164.000
  20838300.868   -24168231.83149 -18514126.32448  20838300.195    20838309.344
       244.000         214.000
  23209730.712    -7790100.05149  -6055150.78745  23209730.608    23209742.224
       217.000         162.000
  22564177.965   -16860535.31049 -13109207.35646  22564177.225    22564187.930
       229.000         181.000
  21017218.063   -24031194.51049 -18708865.40647  21017217.563    21017227.391
       241.000         206.000
  22810504.754   -12434655.75849  -8803997.18446  22810504.037    22810517.609
       220.000         167.000
  24792980.020    -4333980.12849  -3366345.62145  24792980.237    24792998.804
       213.000         149.000
  22113199.021   -20700465.76449 -13412374.87447  22113198.171    22113208.939
       236.000         193.000
 00  4 20  1  9  0.0000000  0  8G 6G23G26G 3G17G29G22G21
  23289136.866   -13868264.75749 -10796843.93246  23289136.936    23289153.127
       218.000         164.000
  20841689.011   -24150426.98349 -18500252.41048  20841688.329    20841697.515
       244.000         214.000
  23226771.598    -7700549.73149  -5985371.41145  23226771.920    23226784.402
       216.000         161.000
  22550603.084   -16931871.24049 -13164793.69746  22550602.383    22550613.670
       229.000         181.000
  21022228.983   -24004862.05749 -18688346.62647  21022228.264    21022238.400
       241.000         206.000
  22791393.099   -12535087.07649  -8882255.07746  22791391.848    22791406.190
       221.000         168.000
  24804375.054    -4274099.60749  -3319685.69445  24804374.539    24804394.444
       213.000         149.000
  22104307.876   -20747188.60549 -13448782.19347  22104307.197    22104318.228
       236.000         193.000
 00  4 20  1  9 30.0000000  0  8G 6G23G26G 3G17G29G22G21
  23309710.153   -13760152.40149 -10712600.81546  23309711.033    23309726.424
       220.000         163.000
  20845128.453   -24132352.44649 -18486168.35248  20845127.908    20845136.917
       244.000         214.000
  23243880.658    -7610641.08149  -5915312.82145  23243880.267    23243892.695
       215.000         160.000
  22537107.339   -17002791.59449 -13220056.21546  22537107.165    22537117.646
       229.000         181.000
  21027296.418   -23978232.40149 -18667596.26747  21027295.836    21027305.830
       241.000         206.000
  22772320.816   -12635311.39449  -8960351.68346  22772319.771    22772334.314
       222.000         168.000
  24815801.112    -4214056.25249  -3272898.88545  24815801.278    24815820.861
       214.000         149.000
  22095465.032   -20793657.71649 -13484991.80947  22095464.578    22095475.386
       237.000         193.000
 00  4 20  1 10  0.0000000  0  8G 6G23G26G 3G17G29G22G21
  23330317.058   -13651863.22349 -10628219.92545  23330317.447    23330333.275
       218.000         162.000
  20848619.385   -24114007.40849 -18471873.51148  20848618.812    20848627.966
       244.000         214.000
  23261058.351    -7520371.91249  -5844973.29945  23261059.304    23261071.670
       216.000         159.000
  22523693.639   -17073280.49249 -13274982.53446  22523692.952    22523704.049
       229.000         182.000
  21032421.751   -23951298.65149 -18646608.94647  21032421.028    21032431.276
       241.000         206.000
  22753288.036   -12735328.33749  -9038286.70046  22753287.447    22753300.871
       222.000         169.000
  24827258.420    -4153848.73349  -3225984.15945  24827258.297    24827277.464
       213.000         150.000
  22086670.585   -20839872.49049 -13521003.21947  22086669.957    22086680.831
       236.000         194.000
 00  4 20  1 10 30.0000000  0  8G 6G23G26G 3G17G29G22G21
  23350954.454   -13543414.11549 -10543714.41945  23350955.010    23350970.840
       217.000         161.000
  20852160.797   -24095397.05449 -18457371.93648  20852160.350    20852169.509
       244.000         214.000
  23278304.792    -7429741.54949  -5774352.32545  23278304.715    23278317.118
       213.000         158.000
  22510364.723   -17143324.05849 -13329561.84946  22510364.599    22510375.353
       229.000         182.000
  21037604.875   -23924061.24449 -18625385.02247  21037604.170    21037614.078
       241.000         206.000
  22734293.002   -12835146.72849  -9116067.01346  22734292.627    22734305.106
       222.000         169.000
  24838747.203    -4093475.74349  -3178940.49045  24838746.703    24838766.236
       213.000         149.000
  22077920.253   -20885855.34949 -13556833.92547  22077919.524    22077930.686
       236.000         194.000
 00  4 20  1 11  0.0000000  0  8G 6G23G26G 3G17G29G22G21
  23371625.092   -13434790.55549 -10459072.98945  23371625.251    23371641.572
       218.000         161.000
  20855751.279   -24076529.09349 -18442669.62648  20855750.754    20855760.010
       244.000         214.000
  23295621.418    -7338742.47449  -5703444.04545  23295621.597    23295633.905
       216.000         157.000
  22497119.945   -17212925.58749 -13383796.71946  22497119.228    22497130.287
       230.000         183.000
  21042845.273   -23896522.90449 -18603926.59847  21042844.662    21042854.882
       241.000         206.000
  22715332.769   -12934782.14849  -9193704.74846  22715332.103    22715345.128
       223.000         170.000
  24850268.722    -4032930.67849  -3131762.74845  24850268.027    24850288.212
       213.000         149.000
  22069212.827   -20931612.76949 -13592488.96147  22069211.813    22069223.179
       236.000         194.000
 00  4 20  1 11 30.0000000  0  8G 6G23G26G 3G17G29G22G21
  23392331.637   -13325978.45149 -10374284.63645  23392332.065    23392348.739
       217.000         160.000
  20859387.161   -24057422.39449 -18427781.28748  20859386.667    20859395.701
       244.000         213.000
  23313007.461    -7247378.66349  -5632251.55245  23313008.150    23313020.349
       215.000         157.000
  22483956.594   -17282099.14549 -13437698.10346  22483956.151    22483966.801
       230.000         183.000
  21048143.060   -23868682.95649 -18582233.15747  21048142.354    21048152.496
       241.000         206.000
  22696410.052   -13034220.60749  -9271189.01346  22696409.353    22696422.966
       223.000         170.000
  24861824.418    -3972206.01249  -3084445.04845  24861824.127    24861843.885
       212.000         148.000
  22060547.700   -20977148.04449 -13627970.89647  22060546.821    22060557.678
       236.000         194.000
 00  4 20  1 12  0.0000000  0  8G 6G23G26G 3G17G29G22G21
  23413069.877   -13216999.27149 -10289366.09945  23413071.018    23413086.756
       215.000         159.000
  20863065.148   -24038094.30449 -18412720.43648  20863064.611    20863073.807
       244.000         213.000
  23330458.816    -7155671.24549  -5560791.31945  23330458.859    23330471.367
       214.000         156.000
  22470874.612   -17350845.05449 -13491266.26446  22470874.317    22470885.002
       230.000         184.000
  21053494.098   -23840563.12349 -18560321.62547  21053493.620    21053503.493
       241.000         206.000
  22677526.553   -13133453.04549  -9348512.75446  22677525.816    22677539.219
       223.000         171.000
  24873415.610    -3911294.62749  -3036981.84845  24873415.303    24873435.378
       210.000         147.000
  22051921.739   -21022477.28449 -13663292.26547  22051921.073    22051931.600
       237.000         194.000
 00  4 20  1 12 30.0000000  0  8G 6G23G26G 3G 9G17G29G21
  23433839.018   -13107857.65249 -10204320.98945  23433839.530    23433856.160
       216.000         158.000
  20866781.744   -24018563.52449 -18397501.64448  20866781.258    20866790.247
       244.000         213.000
  23347973.291    -7063632.22949  -5489072.69045  23347973.454    23347984.992
       215.000         156.000
  22457875.174   -17419157.03649 -13544496.30346  22457874.447    22457885.445
       230.000         184.000
  24472375.785    -7328432.14549  -5694245.89545  24472375.227    24472391.938
       203.000         140.000
  21058895.654   -23812177.93349 -18538203.32147  21058895.010    21058904.949
       241.000         205.000
  22658682.778   -13232476.71749  -9425673.81146  22658681.971    22658695.975
       222.000         171.000
  22043333.249   -21067609.67249 -13698460.26947  22043332.199    22043343.011
       237.000         194.000
 00  4 20  1 13  0.0000000  0  8G 6G23G26G 3G 9G17G29G21
  23454638.808   -12998555.40949 -10119150.72045  23454639.281    23454656.829
       215.000         157.000
  20870535.640   -23998836.63849 -18382130.04648  20870535.109    20870544.307
       244.000         213.000
  23365547.541    -6971279.32849  -5417109.48845  23365547.198    23365560.320
       216.000         156.000
  22444955.325   -17487050.98349 -13597400.59146  22444954.501    22444965.954
       230.000         184.000
  24460557.790    -7390535.38249  -5742637.84245  24460557.408    24460573.799
       205.000         141.000
  21064343.798   -23783547.92249 -18515894.24047  21064343.438    21064353.406
       240.000         205.000
  22639879.500   -13331287.77649  -9502669.19846  22639878.388    22639892.073
       223.000         172.000
  22034783.348   -21112539.29349 -13733470.25747  22034782.807    22034793.581
       236.000         194.000
 00  4 20  1 13 30.0000000  0  8G 6G23G26G 3G 9G17G29G21
  23475464.340   -12889117.68249 -10033874.87045  23475465.473    23475481.782
       215.000         156.000
  20874327.836   -23978908.55349 -18366601.66948  20874327.274    20874336.591
       244.000         213.000
  23383180.036    -6878620.40049  -5344907.81045  23383181.320    23383192.650
       215.000         156.000
  22432116.438   -17554519.48849 -13649973.37046  22432116.009    22432127.227
       230.000         184.000
  24448773.627    -7452461.08549  -5790891.46045  24448773.796    24448788.953
       203.000         142.000
  21069839.802   -23754666.29749 -18493389.09147  21069839.114    21069849.284
       240.000         205.000
  22621120.477   -13429866.21749  -9579483.32846  22621119.145    22621132.775
       223.000         173.000
  22026271.836   -21157267.38249 -13768323.21047  22026271.040    22026282.248
       236.000         194.000
 00  4 20  1 14  0.0000000  0  8G 6G23G26G 3G 9G17G29G21
  23496313.960   -12779553.50749  -9948500.51145  23496314.420    23496331.084
       212.000         155.000
  20878157.934   -23958781.31049 -18350918.10948  20878157.512    20878166.474
       244.000         213.000
  23400870.277    -6785658.21949  -5272469.82345  23400870.994    23400883.454
       215.000         156.000
  22419360.145   -17621554.02449 -13702207.99446  22419358.941    22419370.796
       230.000         185.000
  24437024.061    -7514204.53449  -5839003.03845  24437022.831    24437039.651
       208.000         143.000
  21075384.790   -23725527.29449 -18470683.39047  21075384.105    21075394.236
       240.000         205.000
  22602406.138   -13528209.76349  -9656114.42746  22602405.141    22602418.104
       223.000         173.000
  22017798.619   -21201793.84949 -13803019.03947  22017797.856    22017808.494
       237.000         195.000
 00  4 20  1 14 30.0000000  0  8G 6G23G26G 3G 9G17G29G21
  23517189.085   -12669855.12049  -9863021.55545  23517189.449    23517205.075
       214.000         155.000
  20882027.527   -23938446.39349 -18335072.71948  20882026.934    20882036.084
       244.000         213.000
  23418619.823    -6692384.30549  -5199788.93045  23418620.536    23418632.931
       216.000         156.000
  22406685.530   -17688159.17649 -13754108.03446  22406684.945    22406695.713
       230.000         185.000
  24425311.230    -7575755.17049  -5886964.37945  24425310.509    24425326.045
       208.000         142.000
  21080982.402   -23696111.51949 -18447762.01247  21080981.920    21080991.752
       240.000         205.000
  22583736.335   -13626319.25049  -9732563.13646  22583734.966    22583749.158
       223.000         173.000
  22009365.999   -21246107.16249 -13837548.79647  22009365.443    22009375.941
       237.000         195.000
 00  4 20  1 15  0.0000000  0  8G 6G23G26G 3G 9G17G29G21
  23538089.405   -12560024.39649  -9777439.48145  23538089.690    23538106.578
       214.000         154.000
  20885938.163   -23917895.96249 -18319059.40148  20885937.576    20885946.759
       244.000         213.000
  23436430.713    -6598787.87149  -5126856.72745  23436431.596    23436443.212
       215.000         156.000
  22394091.184   -17754342.66749 -13805679.51946  22394090.844    22394101.251
       230.000         185.000
  24413642.426    -7637074.73849  -5934745.66945  24413641.987    24413657.035
       204.000         141.000
  21086637.759   -23666392.49249 -18424604.34747  21086637.235    21086647.404
       240.000         205.000
  22565113.512   -13724182.15849  -9808819.72046  22565112.638    22565125.488
       224.000         174.000
  22000975.979   -21290196.62849 -13871904.14147  22000975.242    22000986.133
       237.000         195.000
 00  4 20  1 15 30.0000000  0  8G 6G23G26G 3G 9G17G29G21
  23559015.587   -12450057.69549  -9691751.46145  23559016.043    23559032.843
       214.000         154.000
  20889890.032   -23897128.73349 -18302877.14248  20889889.500    20889898.685
       243.000         213.000
  23454302.909    -6504869.24549  -5053673.47645  23454302.674    23454314.718
       216.000         156.000
  22381578.976   -17820094.47349 -13856914.62146  22381578.556    22381589.652
       230.000         185.000
  24402023.104    -7698133.78349  -5982323.92545  24402022.062    24402038.222
       208.000         142.000
  21092353.280   -23636357.21949 -18401200.24547  21092352.718    21092362.742
       240.000         205.000
  22546536.591   -13821803.52449  -9884888.08146  22546535.998    22546548.875
       223.000         174.000
  21992627.002   -21334070.58849 -13906091.55947  21992626.262    21992636.781
       237.000         195.000
 00  4 20  1 16  0.0000000  0  8G 6G23G26G 3G 9G17G29G21
  23579968.711   -12339949.58649  -9605953.25845  23579968.627    23579986.291
       214.000         153.000
  20893884.474   -23876137.77349 -18286520.55548  20893884.055    20893893.114
       243.000         213.000
  23472234.950    -6410635.99149  -4980245.04745  23472235.330    23472247.126
       217.000         157.000
  22369149.763   -17885410.09449 -13907809.84046  22369149.070    22369160.257
       230.000         185.000
  24390455.338    -7758922.51849  -6029691.56845  24390454.180    24390470.356
       206.000         142.000
  21098126.398   -23606019.33649 -18377560.34147  21098125.941    21098135.859
       241.000         204.000
  22528003.278   -13919195.60249  -9960777.77646  22528002.229    22528015.265
       223.000         174.000
  21984321.484   -21377715.98449 -13940100.88047  21984320.751    21984331.753
       237.000         195.000
 00  4 20  1 16 30.0000000  0  8G 6G23G26G 3G 9G17G29G21
  23600947.927   -12229704.42849  -9520048.26245  23600947.954    23600965.118
       214.000         152.000
  20897924.851   -23854905.41649 -18269975.86648  20897924.298    20897933.532
       243.000         213.000
  23490227.626    -6316084.17949  -4906568.39545  23490227.164    23490240.624
       217.000         157.000
  22356803.145   -17950291.71849 -13958366.88246  22356802.658    22356813.606
       231.000         185.000
  24378938.027    -7819445.46449  -6076852.10445  24378936.214    24378952.403
       208.000         141.000
  21103955.096   -23575389.40449 -18353692.86847  21103954.356    21103964.458
       240.000         204.000
  22509513.124   -14016361.11649 -10036490.93746  22509512.589    22509525.349
       225.000         175.000
  21976059.618   -21421131.92149 -13973931.39147  21976058.771    21976069.627
       237.000         195.000
 00  4 20  1 17  0.0000000  0  8G 6G23G26G 3G 9G17G29G21
  23621953.924   -12119318.36549  -9434033.47445  23621954.801    23621971.546
       213.000         152.000
  20902014.279   -23833415.35249 -18253230.36348  20902013.557    20902022.753
       244.000         213.000
  23508280.826    -6221214.49349  -4832644.04145  23508281.026    23508293.571
       215.000         157.000
  22344540.940   -18014729.68949 -14008578.22246  22344540.606    22344551.117
       230.000         185.000
  24367472.078    -7879698.75149  -6123802.51545  24367471.491    24367487.174
       209.000         141.000
  21109838.314   -23544472.96749 -18329602.14947  21109837.454    21109847.751
       240.000         204.000
  22491067.355   -14113293.36949 -10112022.32946  22491066.209    22491078.994
       224.000         175.000
  21967841.945   -21464315.73949 -14007581.02847  21967840.920    21967851.702
       237.000         195.000
 00  4 20  1 17 30.0000000  0  8G 6G23G26G 3G 9G17G29G21
  23642987.101   -12008789.37649  -9347907.33245  23642986.891    23643003.975
       214.000         152.000
  20906155.502   -23811652.96849 -18236272.66548  20906154.860    20906164.102
       244.000         213.000
  23526393.254    -6126033.45949  -4758477.09245  23526393.796    23526406.093
       217.000         157.000
  22332364.800   -18078715.49849 -14058437.22846  22332364.386    22332375.753
       230.000         185.000
  24356054.897    -7939695.75049  -6170553.24645  24356053.835    24356069.639
       207.000         141.000
  21115772.857   -23513286.64849 -18305301.13547  21115772.265    21115782.149
       240.000         204.000
  22472665.125   -14209996.82049 -10187375.43346  22472664.498    22472678.001
       224.000         175.000
  21959669.442   -21507262.21249 -14041045.71247  21959668.608    21959679.042
       237.000         196.000
 00  4 20  1 18  0.0000000  0  8G 6G23G26G 3G 9G17G29G21
  23664046.172   -11898124.51549  -9261675.30045  23664047.101    23664062.739
       214.000         152.000
  20910349.640   -23789612.63249 -18219098.38248  20910349.077    20910358.426
       244.000         213.000
  23544568.665    -6030521.57249  -4684052.32845  23544569.374    23544581.267
       216.000         157.000
  22320274.070   -18142252.29949 -14107946.36146  22320273.636    22320284.685
       231.000         186.000
  24344682.448    -7999457.49349  -6217120.65145  24344682.437    24344697.433
       209.000         141.000
  21121760.789   -23481819.87349 -18280781.58547  21121760.260    21121770.228
       240.000         204.000
  22454309.316   -14306456.37649 -10262538.49846  22454308.536    22454321.341
       224.000         175.000
  21951543.725   -21549962.78349 -14074318.78647  21951543.063    21951553.782
       237.000         196.000
 00  4 20  1 18 30.0000000  0  8G 6G23G26G 3G 9G17G29G21
  23685131.011   -11787324.09249  -9175337.63645  23685132.134    23685148.127
       213.000         152.000
  20914594.933   -23767303.53349 -18201714.66947  20914594.348    20914603.726
       243.000         212.000
  23562807.516    -5934676.26549  -4609367.75045  23562807.848    23562820.775
       217.000         157.000
  22308269.102   -18205338.44149 -14157104.33246  22308268.687    22308279.628
       231.000         186.000
  24333354.860    -8058983.59349  -6263504.43445  24333353.640    24333370.001
       209.000         141.000
  21127807.660   -23450043.46749 -18256020.76247  21127807.133    21127816.939
       240.000         204.000
  22436003.120   -14402655.15449 -10337498.36346  22436001.889    22436015.142
       224.000         176.000
  21943462.888   -21592427.46349 -14107408.05747  21943462.067    21943472.494
       237.000         196.000
 00  4 20  1 19  0.0000000  0  8G 6G23G26G 3G 9G17G29G21
  23706240.751   -11676393.02049  -9088898.17545  23706241.331    23706259.131
       213.000         153.000
  20918887.212   -23744747.49449 -18184138.53347  20918886.746    20918895.998
       243.000         212.000
  23581106.501    -5838514.76849  -4534436.80145  23581107.749    23581118.605
       216.000         157.000
  22296351.682   -18267964.53149 -14205903.81446  22296351.637    22296362.232
       230.000         186.000
  24322074.360    -8118262.24249  -6309695.38145  24322073.649    24322089.209
       207.000         141.000
  21133917.332   -23417937.00049 -18231002.75247  21133916.574    21133926.668
       240.000         204.000
  22417749.285   -14498578.79849 -10412243.83746  22417748.875    22417760.933
       224.000         176.000
  21935426.072   -21634660.81849 -14140317.08647  21935425.471    21935436.061
       237.000         196.000
 00  4 20  1 19 30.0000000  0  8G 6G23G26G 3G 9G17G29G21
  23727374.105   -11565337.91749  -9002362.06945  23727374.930    23727392.754
       216.000         153.000
  20923221.931   -23721968.33749 -18166388.54447  20923221.445    20923230.571
       244.000         212.000
  23599466.400    -5742033.27149  -4459256.51045  23599466.229    23599479.552
       216.000         157.000
  22284523.099   -18330124.13549 -14254339.81046  22284522.726    22284533.455
       231.000         186.000
  24310840.129    -8177297.97049  -6355697.05345  24310839.586    24310853.840
       209.000         141.000
  21140091.807   -23385490.08649 -18205719.47047  21140091.309    21140101.207
       240.000         204.000
  22399550.751   -14594211.86749 -10486762.88746  22399550.394    22399562.269
       225.000         176.000
  21927430.566   -21676677.06149 -14173056.92247  21927429.676    21927440.307
       237.000         196.000
 00  4 20  1 20  0.0000000  0  8G 6G23G26G 3G 9G17G29G21
  23748527.600   -11454176.94849  -8915743.44645  23748527.956    23748546.395
       214.000         154.000
  20927594.701   -23698989.26349 -18148482.77647  20927594.098    20927603.376
       243.000         212.000
  23617887.312    -5645230.98849  -4383826.25245  23617887.577    23617899.657
       216.000         157.000
  22272783.786   -18391814.53049 -14302410.18546  22272783.873    22272794.528
       231.000         187.000
  24299652.694    -8236087.65049  -6401506.97445  24299652.261    24299667.517
       211.000         142.000
  21146331.920   -23352697.92149 -18180167.16247  21146331.279    21146341.427
       240.000         204.000
  22381406.769   -14689558.23449 -10561058.54346  22381405.905    22381419.253
       226.000         177.000
  21919472.517   -21718496.42249 -14205643.34447  21919471.476    21919482.611
       238.000         196.000
 00  4 20  1 20 30.0000000  0  8G 6G23G26G 3G 9G17G29G21
  23769702.256   -11342904.58749  -8829038.03245  23769702.777    23769720.582
       215.000         154.000
  20932004.326   -23675816.61549 -18130426.17047  20932003.685    20932012.850
       243.000         212.000
  23636364.755    -5548131.76249  -4308164.60745  23636365.195    23636376.829
       216.000         157.000
  22261135.916   -18453024.35749 -14350106.09246  22261135.197    22261146.538
       231.000         187.000
  24288512.792    -8294627.08349  -6447121.92345  24288512.183    24288527.393
       210.000         142.000
  21152636.359   -23319567.99349 -18154351.66547  21152635.795    21152645.863
       240.000         204.000
  22363316.433   -14784622.59249 -10635134.45146  22363315.439    22363328.461
       225.000         177.000
  21911551.009   -21760123.98049 -14238080.31847  21911550.209    21911560.799
       237.000         197.000
 00  4 20  1 21  0.0000000  0  8G 6G23G26G 3G 9G17G29G21
  23790898.694   -11231518.06349  -8742243.67945  23790899.303    23790916.967
       214.000         154.000
  20936450.866   -23652449.93349 -18112218.36947  20936450.447    20936459.463
       243.000         212.000
  23654899.566    -5450730.88949  -4232267.91045  23654900.193    23654912.509
       216.000         157.000
  22249579.177   -18513755.12949 -14397428.70546  22249578.767    22249589.737
       231.000         187.000
  24277419.278    -8352923.10149  -6492547.18645  24277419.112    24277432.753
       209.000         142.000
  21159000.833   -23286122.64649 -18128290.37747  21159000.389    21159010.417
       240.000         204.000
  22345277.959   -14879414.56449 -10708998.10246  22345277.167    22345289.994
       225.000         177.000
  21903665.670   -21801561.45149 -14270369.17247  21903664.798    21903675.507
       238.000         197.000
 00  4 20  1 21 30.0000000  0  8G 6G23G26G 3G 9G17G29G21
  23812118.249   -11120009.72349  -8655354.40145  23812118.523    23812136.747
       214.000         154.000
  20940936.055   -23628880.03349 -18093852.21447  20940935.522    20940944.560
       243.000         212.000
  23673493.916    -5353017.40249  -4156127.63145  23673494.251    23673507.203
       217.000         157.000
  22238112.499   -18574012.76549 -14444382.64946  22238112.065    22238122.850
       232.000         187.000
  24266372.827    -8410971.73149  -6537779.69545  24266371.191    24266386.937
       211.000         142.000
  21165420.945   -23252384.75249 -18102001.13847  21165420.234    21165430.550
       240.000         204.000
  22327287.365   -14973954.88349 -10782665.66046  22327286.052    22327298.963
       226.000         178.000
  21895818.455   -21842798.46549 -14302501.81847  21895817.761    21895828.357
       238.000         197.000
 00  4 20  1 22  0.0000000  0  8G 6G23G26G 3G 9G17G29G21
  23833361.583   -11008376.52249  -8568367.84145  23833362.387    23833380.699
       215.000         154.000
  20945462.308   -23605094.48949 -18075318.02147  20945461.639    20945471.026
       243.000         212.000
  23692142.639    -5255017.91549  -4079764.47945  23692142.361    23692154.964
       215.000         157.000
  22226735.951   -18633796.54649 -14490967.34346  22226735.481    22226746.558
       232.000         187.000
  24255374.902    -8468765.45049  -6582813.56545  24255374.354    24255388.166
       213.000         142.000
  21171894.026   -23218368.57649 -18075495.05447  21171893.323    21171903.819
       240.000         204.000
  22309341.589   -15068259.67649 -10856149.70046  22309341.015    22309353.285
       226.000         178.000
  21888012.706   -21883817.59549 -14334464.69247  21888011.885    21888022.279
       238.000         197.000
 00  4 20  1 22 30.0000000  0  8G 6G23G26G 3G 9G17G29G21
  23854632.173   -10896599.99749  -8481269.60545  23854633.111    23854650.829
       212.000         154.000
  20950031.286   -23581084.31249 -18056608.79547  20950030.686    20950039.949
       243.000         212.000
  23710843.259    -5156745.84549  -4003188.93645  23710843.115    23710855.869
       215.000         158.000
  22215449.056   -18693109.34949 -14537185.04647  22215448.715    22215459.140
       232.000         188.000
  24244428.552    -8526288.04249  -6627636.19145  24244427.132    24244443.439
       211.000         143.000
  21178419.074   -23184079.38349 -18048776.23847  21178418.366    21178428.591
       239.000         204.000
  22291442.938   -15162316.77549 -10929440.72746  22291442.266    22291454.455
       226.000         178.000
  21880251.710   -21924601.45149 -14366244.23847  21880251.127    21880261.583
       238.000         197.000
 00  4 20  1 23  0.0000000  0  8G 6G23G26G 3G 9G17G29G21
  23875927.210   -10784695.29149  -8394071.47845  23875927.729    23875945.635
       212.000         154.000
  20954641.647   -23556856.68049 -18037730.12147  20954641.164    20954650.316
       243.000         212.000
  23729596.086    -5058199.60049  -3926399.74845  23729595.823    23729608.817
       215.000         158.000
  22204251.519   -18751952.67649 -14583036.92447  22204250.777    22204261.917
       232.000         188.000
  24233537.743    -8583518.68749  -6672231.30745  24233536.872    24233551.906
       212.000         143.000
  21184994.718   -23149524.38549 -18021850.29647  21184994.284    21185004.521
       239.000         203.000
  22273591.721   -15256124.67149 -11002537.56846  22273591.364    22273603.139
       227.000         178.000
  21872535.738   -21965148.89149 -14397839.57447  21872535.069    21872545.317
       238.000         197.000
 00  4 20  1 23 30.0000000  0  8G 6G23G26G 3G 9G17G29G21
  23897243.385   -10672679.40849  -8306786.73145  23897243.632    23897261.865
       212.000         154.000
  20959289.925   -23532429.91549 -18018696.27647  20959289.386    20959298.560
       243.000         212.000
  23748396.371    -4959403.85349  -3849416.14445  23748396.707    23748409.422
       216.000         157.000
  22193143.429   -18810325.75049 -14628522.36947  22193142.837    22193153.777
       232.000         188.000
  24222703.092    -8640454.50149  -6716596.69445  24222702.732    24222718.460
       212.000         144.000
  21191621.745   -23114699.26849 -17994713.86647  21191621.346    21191631.399
       240.000         203.000
  22255787.450   -15349685.90849 -11075442.20946  22255786.869    22255798.902
       226.000         179.000
  21864864.523   -22005461.14449 -14429251.65947  21864863.800    21864874.048
       238.000         197.000
 00  4 20  1 24  0.0000000  0  8G 6G23G26G 3G 9G17G29G21
  23918575.794   -10560578.03949  -8219435.38045  23918576.564    23918595.160
       211.000         153.000
  20963974.380   -23507813.07449 -17999514.31847  20963973.853    20963983.080
       243.000         212.000
  23767242.474    -4860367.38849  -3772244.95745  23767243.370    23767255.580
       214.000         157.000
  22182125.085   -18868227.32049 -14673640.41047  22182124.595    22182135.489
       233.000         188.000
  24211923.860    -8697099.11849  -6760735.16245  24211923.124    24211938.028
       211.000         145.000
  21198304.120   -23079583.37549 -17967350.86447  21198303.600    21198313.768
       239.000         203.000
  22238033.816   -15442981.08649 -11148139.53546  22238033.160    22238045.151
       227.000         179.000
  21857235.807   -22045549.98449 -14460489.65047  21857235.101    21857245.635
       238.000         197.000
 00  4 20  1 24 30.0000000  0  8G 6G23G26G 3G 9G17G29G21
  23939922.679   -10448400.95949  -8132025.04345  23939922.836    23939941.682
       211.000         152.000
  20968692.476   -23483019.32049 -17980194.51447  20968691.957    20968701.200
       243.000         212.000
  23786137.932    -4761071.09549  -3694871.30345  23786138.089    23786150.740
       211.000         156.000
  22171194.607   -18925667.07849 -14718398.59947  22171194.581    22171205.141
       233.000         189.000
  24201199.256    -8753456.52049  -6804649.83345  24201198.169    24201213.933
       213.000         145.000
  21205044.828   -23044160.71649 -17939748.82347  21205044.373    21205054.496
       239.000         203.000
  22220332.232   -15536002.56149 -11220623.59546  22220331.974    22220343.393
       227.000         179.000
  21849647.316   -22085427.46049 -14491562.93747  21849646.844    21849657.091
       238.000         198.000
 00  4 20  1 25  0.0000000  0  8G 6G23G26G 3G 9G17G29G21
  23961280.671   -10336165.47449  -8044569.19545  23961281.160    23961299.875
       211.000         152.000
  20973442.695   -23458056.71349 -17960743.13047  20973442.198    20973451.038
       243.000         211.000
  23805082.572    -4661516.44949  -3617296.35045  23805082.394    23805095.579
       212.000         155.000
  22160353.068   -18982639.34849 -14762792.50747  22160352.527    22160363.429
       233.000         189.000
  24190526.304    -8809542.53749  -6848353.04045  24190526.247    24190540.014
       214.000         145.000
  21211846.092   -23008419.93249 -17911898.88447  21211845.585    21211855.322
       239.000         203.000
  22202681.939   -15628754.73649 -11292897.80346  22202681.094    22202692.439
       227.000         180.000
  21842097.683   -22125100.73649 -14522477.09447  21842097.111    21842107.363
       238.000         198.000
 00  4 20  1 25 30.0000000  0  8G 6G23G26G 3G 9G17G29G21
  23982649.649   -10223872.27749  -7957068.37245  23982650.217    23982668.856
       210.000         151.000
  20978226.317   -23432918.43649 -17941154.86347  20978225.717    20978234.983
       243.000         211.000
  23824075.088    -4561710.47049  -3539525.54645  23824075.476    23824087.734
       212.000         154.000
  22149598.257   -19039156.03449 -14806831.41847  22149597.892    22149608.365
       234.000         189.000
  24179903.067    -8865367.19449  -6891852.58145  24179902.322    24179917.009
       213.000         146.000
  21218708.388   -22972358.46649 -17883799.06347  21218707.984    21218718.171
       239.000         203.000
  22185081.725   -15721243.63149 -11364966.85646  22185081.208    22185092.821
       228.000         180.000
  21834586.195   -22164573.68249 -14553235.16047  21834585.481    21834595.868
       238.000         198.000
 00  4 20  1 26  0.0000000  0  8G 6G23G26G 3G 9G17G29G21
  24004032.002   -10111508.71949  -7869512.72945  24004032.794    24004051.129
       209.000         150.000
  20983046.258   -23407589.39949 -17921417.95447  20983045.720    20983054.782
       243.000         211.000
  23843116.868    -4461645.69249  -3461553.08645  23843117.303    23843130.124
       210.000         153.000
  22138930.922   -19095213.17649 -14850512.24647  22138930.287    22138941.235
       234.000         189.000
  24169333.198    -8920911.55049  -6935133.71345  24169332.359    24169348.382
       213.000         147.000
  21225632.574   -22935971.71449 -17855445.77147  21225632.111    21225642.403
       240.000         202.000
  22167533.062   -15813461.51249 -11436824.74146  22167532.407    22167544.626
       228.000         181.000
  21827112.791   -22203846.31249 -14583837.15547  21827112.045    21827122.489
       239.000         198.000
 00  4 20  1 26 30.0000000  0  8G 6G23G26G 3G 9G17G29G21
  24025434.604    -9999038.39649  -7781873.89045  24025435.427    24025454.196
       208.000         149.000
  20987906.738   -23382047.46549 -17901515.15047  20987906.315    20987915.594
       243.000         211.000
  23862210.882    -4361306.15949  -3383366.53645  23862211.205    23862224.154
       210.000         152.000
  22128355.914   -19150784.95949 -14893814.87247  22128355.288    22128366.115
       234.000         190.000
  24158822.726    -8976143.83149  -6978171.67445  24158821.816    24158836.209
       213.000         147.000
  21232620.122   -22899252.04549 -17826833.05347  21232619.523    21232629.716
       239.000         202.000
  22150038.811   -15905393.59049 -11508459.92346  22150038.138    22150050.179
       228.000         181.000
  21819681.272   -22242899.04649 -14614267.79147  21819680.669    21819690.913
       238.000         198.000
 00  4 20  1 27  0.0000000  0  8G 6G23G26G 3G 9G17G29G21
  24046861.926    -9886438.53949  -7694134.12345  24046863.123    24046881.047
       209.000         148.000
  20992813.114   -23356264.28149 -17881424.36247  20992812.658    20992821.879
       242.000         211.000
  23881360.719    -4260673.61049  -3304951.65745  23881360.958    23881374.102
       208.000         151.000
  22117878.318   -19205844.82349 -14936718.60547  22117877.632    22117888.549
       234.000         190.000
  24148378.430    -9031028.24649  -7020938.56645  24148377.856    24148391.668
       214.000         147.000
  21239670.773   -22862200.68249 -17797961.87847  21239670.282    21239680.567
       239.000         202.000
  22132604.186   -15997012.37149 -11579850.97046  22132603.527    22132615.181
       228.000         182.000
  21812295.884   -22281709.16849 -14644509.38047  21812295.132    21812305.542
       238.000         198.000
 00  4 20  1 27 30.0000000  0  8G 6G23G26G 3G 9G17G29G21
  24068311.113    -9773723.70049  -7606304.76045  24068312.344    24068331.994
       206.000         147.000
  20997761.804   -23330258.72249 -17861160.29447  20997761.362    20997770.454
       243.000         211.000
  23900561.527    -4159773.04349  -3226327.94645  23900561.466    23900575.056
       209.000         150.000
  22107494.669   -19260411.01849 -14979237.66047  22107494.110    22107504.801
       234.000         190.000
  24137998.608    -9085573.67049  -7063441.29045  24137997.872    24138012.444
       214.000         147.000
  21246778.266   -22824850.73249 -17768858.04347  21246777.672    21246787.899
       239.000         202.000
  22115226.925   -16088329.78349 -11651007.20046  22115226.028    22115237.958
       229.000         182.000
  21804951.832   -22320302.09449 -14674581.72047  21804951.146    21804961.346
       238.000         198.000
 00  4 20  1 28  0.0000000  0  8G 6G23G26G 3G 9G17G29G21
  24089779.472    -9660908.04149  -7518396.84745  24089779.972    24089799.312
       208.000         147.000
  21002748.473   -23304053.63349 -17840740.74447  21002747.930    21002757.110
       243.000         211.000
  23919810.120    -4058621.30949  -3147508.49645  23919810.150    23919822.924
       207.000         149.000
  22097203.331   -19314492.18549 -15021378.77047  22097202.835    22097213.536
       234.000         190.000
  24127679.085    -9139802.32349  -7105697.19445  24127677.816    24127692.749
       213.000         147.000
  21253940.195   -22787214.54549 -17739531.16947  21253939.444    21253949.836
       239.000         202.000
  22097907.568   -16179342.81149 -11721926.24646  22097906.508    22097918.352
       229.000         183.000
  21797644.091   -22358704.30449 -14704505.45347  21797643.316    21797653.809
       239.000         199.000
 00  4 20  1 28 30.0000000  0  8G 6G23G26G 3G 9G17G29G21
  24111264.921    -9548002.69449  -7430419.04645  24111266.188    24111284.123
       206.000         146.000
  21007774.285   -23277642.62449 -17820160.73747  21007773.591    21007782.889
       243.000         211.000
  23939107.360    -3957213.83849  -3068489.78245  23939107.341    23939120.815
       210.000         149.000
  22087005.874   -19368079.85149 -15063135.34247  22087005.364    22087016.296
       234.000         190.000
  24117417.416    -9193727.12949  -7147716.35445  24117416.250    24117431.766
       213.000         147.000
  21261155.060   -22749300.27549 -17709987.60047  21261154.489    21261164.509
       239.000         202.000
  22080648.515   -16270038.74349 -11792598.20846  22080647.456    22080659.429
       229.000         183.000
  21790373.982   -22396908.72949 -14734275.06447  21790373.229    21790383.496
       239.000         199.000
 00  4 20  1 29  0.0000000  0  8G 6G23G26G 3G 9G17G29G21
  24132764.241    -9435024.61449  -7342384.55645  24132765.084    24132783.972
       209.000         146.000
  21012839.089   -23251026.81549 -17799421.15147  21012838.555    21012847.869
       243.000         211.000
  23958451.222    -3855561.48549  -2989280.26745  23958450.640    23958463.757
       207.000         149.000
  22076902.971   -19421170.77549 -15104504.85147  22076902.508    22076913.209
       234.000         190.000
  24107211.195    -9247360.35849  -7189508.27445  24107210.266    24107224.658
       213.000         147.000
  21268425.462   -22711094.03849 -17680216.53347  21268424.996    21268434.979
       239.000         202.000
  22063450.288   -16360415.20349 -11863021.23746  22063449.832    22063461.343
       229.000         183.000
  21783140.051   -22434923.06149 -14763896.56247  21783139.566    21783149.614
       239.000         199.000
 00  4 20  1 29 30.0000000  0  8G 6G23G26G 3G 9G17G29G21
  24154276.357    -9321979.40649  -7254297.77045  24154277.202    24154296.577
       211.000         146.000
  21017943.019   -23224205.35749 -17778521.31547  21017942.371    21017951.704
       243.000         211.000
  23977840.245    -3753671.78249  -2909885.78245  23977840.347    23977852.826
       210.000         148.000
  22066895.943   -19473757.82449 -15145481.72547  22066895.646    22066906.222
       234.000         190.000
  24097059.256    -9300708.22749  -7231077.85245  24097058.933    24097073.531
       212.000         147.000
  21275758.451   -22672559.01949 -17650189.27147  21275757.919    21275767.938
       239.000         201.000
  22046312.432   -16450474.34549 -11933197.00946  22046312.046    22046323.721
       229.000         184.000
  21775942.366   -22472746.90749 -14793369.61847  21775941.519    21775952.129
       240.000         199.000
 00  4 20  1 30  0.0000000  0  8G 6G23G26G 3G 9G17G29G21
  24175796.979    -9208889.22349  -7166175.92945  24175797.953    24175817.189
       210.000         146.000
  21023083.133   -23197193.99049 -17757473.49647  21023082.673    21023091.829
       242.000         211.000
  23997273.441    -3651550.21849  -2830310.62945  23997273.253    23997287.081
       209.000         148.000
  22056984.093   -19525844.80049 -15186068.93547  22056983.638    22056993.674
       234.000         190.000
  24086960.028    -9353779.13949  -7272431.61245  24086959.915    24086973.534
       211.000         146.000
  21283155.142   -22633689.32049 -17619901.22447  21283154.579    21283164.820
       239.000         201.000
  22029232.216   -16540230.84149 -12003136.95546  22029231.730    22029243.202
       229.000         184.000
  21768780.772   -22510380.97549 -14822694.79847  21768780.227    21768790.641
       239.000         199.000
 00  4 20  1 30 30.0000000  0  8G 6G23G26G 3G 9G17G29G21
  24197325.369    -9095758.34749  -7078022.39045  24197326.769    24197345.984
       209.000         146.000
  21028259.221   -23169993.48849 -17736278.29847  21028258.829    21028267.883
       242.000         211.000
  24016752.753    -3549186.01949  -2750546.41545  24016752.208    24016766.640
       212.000         149.000
  22047170.576   -19577414.82749 -15226253.32747  22047170.112    22047180.784
       234.000         191.000
  24076917.237    -9406553.83649  -7313554.57245  24076917.287    24076929.869
       210.000         145.000
  21290615.526   -22594484.81449 -17589352.28647  21290615.184    21290625.060
       239.000         201.000
  22012208.179   -16629692.03649 -12072846.79646  22012207.836    22012219.269
       229.000         184.000
  21761658.428   -22547808.99249 -14851859.41847  21761657.458    21761668.222
       239.000         199.000
 00  4 20  1 31  0.0000000  0  8G 6G23G26G 3G 9G17G29G21
  24218863.860    -8982574.64849  -6989827.68945  24218864.639    24218883.945
       209.000         146.000
  21033470.661   -23142607.26549 -17714938.38647  21033470.361    21033479.612
       243.000         211.000
  24036277.724    -3446582.15349  -2670595.43845  24036277.511    24036290.485
       212.000         148.000
  22037455.889   -19628465.56849 -15266033.08847  22037455.457    22037466.087
       234.000         191.000
  24066933.763    -9459016.81749  -7354434.63445  24066934.168    24066946.807
       211.000         145.000
  21298143.502   -22554925.15249 -17558526.60847  21298143.032    21298153.342
       239.000         201.000
  21995241.486   -16718852.10149 -12142322.00146  21995241.141    21995252.340
       230.000         185.000
  21754576.020   -22585027.03249 -14880860.42947  21754575.071    21754585.704
       240.000         200.000
 00  4 20  1 31 30.0000000  0  8G 6G23G26G 3G 9G17G29G21
  24240414.009    -8869329.49049  -6901585.08845  24240416.029    24240433.192
       209.000         146.000
  21038715.739   -23115044.46449 -17693460.88047  21038715.290    21038724.440
       242.000         210.000
  24055847.845    -3343740.88649  -2590459.47345  24055848.113    24055861.160
       211.000         147.000
  22027838.944   -19679002.95949 -15305412.83047  22027838.505    22027849.026
       234.000         191.000
  24057011.674    -9511156.98349  -7395063.16545  24057010.528    24057024.863
       213.000         145.000
  21305734.918   -22515032.11649 -17527441.16147  21305734.437    21305744.387
       239.000         201.000
  21978331.669   -16807712.94049 -12211564.03746  21978331.138    21978342.581
       230.000         185.000
  21747535.030   -22622027.23049 -14909691.67947  21747534.355    21747544.548
       240.000         200.000
 00  4 20  1 32  0.0000000  0  8G 6G23G26G 3G 9G17G29G21
  24261975.984    -8756022.22249  -6813294.08745  24261976.833    24261996.765
       214.000         146.000
  21043992.936   -23087312.59149 -17671851.62947  21043992.567    21044001.596
       242.000         210.000
  24075462.868    -3240663.55349  -2510139.55045  24075463.563    24075475.421
       212.000         147.000
  22018320.385   -19729023.10849 -15344389.53547  22018320.034    22018330.334
       233.000         191.000
  24047153.410    -9562961.49349  -7435430.15845  24047152.543    24047166.342
       210.000         145.000
  21313384.555   -22474833.07949 -17496117.27047  21313384.211    21313394.349
       238.000         201.000
  21961481.041   -16896262.91649 -12280563.85846  21961480.374    21961492.133
       230.000         186.000
  21740536.405   -22658804.94249 -14938349.57247  21740535.670    21740545.706
       240.000         200.000
 00  4 20  1 32 30.0000000  0  8G 6G23G26G 3G 9G17G29G21
  24283549.741    -8642652.94749  -6724954.77445  24283551.127    24283570.098
       213.000         145.000
  21049301.896   -23059413.72049 -17650112.24547  21049301.112    21049310.546
       243.000         210.000
  24095121.230    -3137358.64949  -2429642.29645  24095121.914    24095133.642
       212.000         147.000
  22008897.397   -19778541.12249 -15382974.95047  22008896.748    22008907.579
       235.000         191.000
  24037358.977    -9614430.96249  -7475536.08645  24037357.484    24037373.244
       211.000         146.000
  21321088.857   -22434346.82349 -17464569.56747  21321088.128    21321098.186
       239.000         201.000
  21944689.360   -16984503.13749 -12349322.30046  21944688.938    21944700.248
       231.000         186.000
  21733576.968   -22695376.80149 -14966847.05047  21733576.198    21733586.332
       241.000         200.000
 00  4 20  1 33  0.0000000  0  8G 6G23G26G 3G 9G17G29G21
  24305135.459    -8529220.84449  -6636566.51845  24305137.084    24305156.330
       214.000         146.000
  21054644.703   -23031337.09349 -17628234.35547  21054644.133    21054653.468
       242.000         210.000
  24114820.309    -3033839.60149  -2348978.17645  24114820.557    24114833.457
       213.000         146.000
  21999568.965   -19827562.18849 -15421173.14047  21999568.346    21999578.670
       235.000         191.000
  24027629.016    -9665561.27749  -7515377.73745  24027627.869    24027642.550
       211.000         146.000
  21328849.485   -22393564.57249 -17432791.22447  21328848.885    21328858.993
       239.000         201.000
  21927958.074   -17072425.84049 -12417833.34446  21927957.671    21927969.104
       230.000         187.000
  21726656.569   -22731743.35849 -14995184.56147  21726655.909    21726666.096
       240.000         200.000
 00  4 20  1 33 30.0000000  0  8G 6G23G26G 3G 9G17G29G21
  24326731.779    -8415733.15549  -6548134.93145  24326732.633    24326751.964
       211.000         145.000
  21060021.629   -23003081.25949 -17606216.82247  21060021.031    21060030.374
       242.000         210.000
  24134560.697    -2930103.67849  -2268145.06345  24134561.261    24134574.537
       213.000         145.000
  21990337.165   -19876075.38349 -15458975.58247  21990336.777    21990347.390
       234.000         192.000
  24017964.863    -9716345.81849  -7554949.96045  24017964.209    24017979.303
       210.000         147.000
  21336664.366   -22352497.40949 -17400790.87647  21336663.815    21336673.781
       238.000         201.000
  21911285.828   -17160038.57749 -12486102.84846  21911285.343    21911296.722
       230.000         187.000
  21719776.334   -22767899.04349 -15023357.75447  21719775.462    21719785.856
       240.000         200.000
 00  4 20  1 34  0.0000000  0  9G 6G23G26G 3G 9G17G29G31G21
  24348336.775    -8302199.67649  -6459667.67845  24348338.316    24348357.599
       211.000         145.000
  21065432.756   -22974645.64749 -17584059.20447  21065432.345    21065441.293
       242.000         210.000
  24154343.426    -2826145.04949  -2187138.40945  24154343.966    24154356.044
       213.000         145.000
  21981201.945   -19924081.03149 -15496382.53547  21981201.771    21981211.834
       234.000         192.000
  24008366.000    -9766787.35149  -7594254.89445  24008365.245    24008380.569
       209.000         147.000
  21344533.440   -22311145.32649 -17368568.51947  21344532.737    21344543.097
       238.000         200.000
  21894672.698   -17247340.48149 -12554130.15246  21894672.404    21894683.042
       231.000         187.000
  24500511.235    -5141772.01849  -3982120.69745  24500509.850    24500524.302
       215.000         146.000
  21712934.831   -22803851.27049 -15051372.42047  21712934.138    21712944.364
       239.000         201.000
 00  4 20  1 34 30.0000000  0  9G 6G23G26G 3G 9G17G29G31G21
  24369949.115    -8188627.52649  -6371170.27545  24369950.205    24369969.703
       211.000         144.000
  21070881.127   -22946014.34849 -17561749.09447  21070880.533    21070889.859
       243.000         210.000
  24174168.312    -2721965.01849  -2105959.23945  24174169.151    24174181.315
       212.000         144.000
  21972162.853   -19971581.75249 -15533396.03047  21972162.818    21972172.909
       236.000         192.000
  23998832.195    -9816887.62149  -7633293.90245  23998831.575    23998845.072
       211.000         147.000
  21352458.786   -22269497.31649 -17336115.55147  21352457.991    21352468.459
       239.000         200.000
  21878118.904   -17334330.62649 -12621914.52447  21878118.194    21878129.751
       232.000         188.000
  24483131.931    -5233100.38049  -4053285.52745  24483130.731    24483145.415
       215.000         147.000
  21706131.815   -22839600.93849 -15079229.23547  21706131.218    21706141.218
       241.000         201.000
 00  4 20  1 35  0.0000000  0  9G 6G23G26G 3G 9G17G29G31G21
  24391568.521    -8075018.48049  -6282644.13545  24391569.258    24391589.642
       209.000         143.000
  21076367.819   -22917181.57749 -17539281.99947  21076367.095    21076376.435
       242.000         210.000
  24194034.496    -2617567.90249  -2024610.90645  24194034.448    24194048.594
       213.000         144.000
  21963220.805   -20018572.47549 -15570012.12547  21963220.399    21963230.677
       235.000         192.000
  23989363.818    -9866643.77749  -7672064.78945  23989362.810    23989377.103
       210.000         147.000
  21360444.531   -22227531.99849 -17303415.32947  21360443.832    21360454.140
       238.000         200.000
  21861627.259   -17420994.07549 -12689444.33547  21861626.731    21861637.790
       231.000         188.000
  24465807.584    -5324140.00249  -4124225.37545  24465805.935    24465820.467
       214.000         148.000
  21699369.745   -22875135.74249 -15106918.63047  21699369.099    21699379.002
       240.000         201.000
 00  4 20  1 35 30.0000000  0  9G 6G23G26G 3G 9G17G29G31G21
  24413196.620    -7961363.45849  -6194082.16345  24413197.485    24413218.217
       207.000         143.000
  21081890.883   -22888157.53349 -17516665.85247  21081890.141    21081899.375
       243.000         210.000
  24213944.005    -2512942.95149  -1943085.04745  24213943.216    24213956.786
       213.000         144.000
  21954375.159   -20065056.30749 -15606233.23747  21954374.573    21954385.210
       236.000         192.000
  23979960.455    -9916058.18649  -7710569.35645  23979960.029    23979973.082
       209.000         148.000
  21368492.187   -22185241.45849 -17270461.68647  21368491.551    21368501.752
       238.000         200.000
  21845199.998   -17507319.25149 -12756710.54947  21845199.453    21845210.469
       232.000         188.000
  24448537.913    -5414892.18949  -4194941.23745  24448536.450    24448550.666
       216.000         149.000
  21692648.836   -22910453.99549 -15134439.28447  21692647.992    21692658.519
       241.000         201.000
 00  4 20  1 36  0.0000000  0  9G 6G23G26G 3G 9G17G29G31G21
  24434831.991    -7847670.39649  -6105490.54945  24434833.687    24434851.886
       208.000         141.000
  21087450.601   -22858940.99049 -17493899.71647  21087450.062    21087459.158
       243.000         210.000
  24233895.616    -2408096.56149  -1861386.63745  24233895.303    24233909.799
       212.000         145.000
  21945624.137   -20111043.00249 -15642066.97347  21945623.751    21945634.608
       236.000         193.000
  23970621.705    -9965132.92949  -7748809.27445  23970621.164    23970635.664
       211.000         147.000
  21376605.831   -22142604.22149 -17237237.89847  21376605.404    21376615.449
       239.000         200.000
  21828840.934   -17593286.12749 -12823697.57847  21828840.768    21828851.584
       233.000         189.000
  24431325.266    -5505344.75849  -4265423.65345  24431325.425    24431339.172
       215.000         150.000
  21685966.966   -22945567.28449 -15161800.23647  21685966.368    21685976.424
       241.000         201.000
 00  4 20  1 36 30.0000000  0  9G 6G23G26G 3G 9G17G29G31G21
  24456474.936    -7733937.56849  -6016867.94645  24456474.565    24456496.809
       207.000         140.000
  21093046.826   -22829532.48449 -17470983.99147  21093046.258    21093055.443
       242.000         210.000
  24253887.218    -2303040.41949  -1779524.78545  24253888.103    24253900.370
       214.000         145.000
  21936969.677   -20156522.37149 -15677505.38447  21936969.102    21936979.423
       235.000         193.000
  23961348.536   -10013863.12449  -7786780.70645  23961347.025    23961361.397
       209.000         149.000
  21384788.540   -22099603.98149 -17203731.24447  21384788.089    21384798.119
       238.000         199.000
  21812550.714   -17678891.09349 -12890402.60047  21812550.226    21812561.024
       233.000         189.000
  24414170.446    -5595493.75749  -4335669.53145  24414169.382    24414183.357
       213.000         150.000
  21679323.464   -22980478.80449 -15189003.96047  21679322.547    21679332.581
       241.000         201.000
 00  4 20  1 37  0.0000000  0  9G 6G23G26G 3G 9G17G29G31G21
  24478127.937    -7620151.69249  -5928204.02945  24478129.054    24478149.265
       208.000         139.000
  21098675.937   -22799951.24049 -17447933.66647  21098675.281    21098684.496
       242.000         209.000
  24273917.910    -2197778.89149  -1697502.89145  24273917.986    24273932.235
       212.000         145.000
  21928414.128   -20201481.88849 -15712538.71847  21928413.595    21928423.985
       236.000         193.000
  23952141.847   -10062244.06349  -7824479.98745  23952141.238    23952155.433
       209.000         149.000
  21393040.347   -22056240.52349 -17169941.56947  21393039.667    21393050.113
       237.000         199.000
  21796328.273   -17764140.08549 -12956830.23847  21796327.466    21796338.608
       233.000         189.000
  24397073.476    -5685338.43549  -4405678.27845  24397072.668    24397087.554
       211.000         151.000
  21672718.713   -23015186.85749 -15216049.13847  21672718.089    21672728.161
       240.000         201.000
 00  4 20  1 37 30.0000000  0  9G 6G23G26G 3G 9G17G29G31G21
  24499790.573    -7506315.34949  -5839500.77145  24499791.637    24499811.665
       207.000         138.000
  21104335.757   -22770208.64249 -17424757.61347  21104335.393    21104344.320
       242.000         209.000
  24293986.073    -2092320.13149  -1615327.33045  24293986.693    24293999.022
       212.000         145.000
  21919960.513   -20245905.80649 -15747154.70147  21919960.077    21919970.615
       235.000         193.000
  23943002.854   -10110269.10349  -7861901.94545  23943001.825    23943016.214
       211.000         149.000
  21401356.950   -22012536.62249 -17135886.61347  21401356.359    21401366.483
       237.000         199.000
  21780169.397   -17849054.89949 -13022997.47947  21780168.863    21780179.938
       233.000         190.000
  24380035.038    -5774875.65149  -4475447.45845  24380033.544    24380048.409
       212.000         150.000
  21666149.992   -23049705.36249 -15242946.62247  21666149.307    21666159.367
       240.000         201.000
 00  4 20  1 38  0.0000000  0  8G23G26G 3G 9G17G29G31G21
  21110028.133   -22740295.22949 -17401448.45847  21110027.762    21110036.742
       242.000         209.000
  24314088.291    -1986682.41249  -1533012.30745  24314087.897    24314101.368
       211.000         145.000
  21911612.243   -20289776.01649 -15781339.22547  21911611.787    21911622.133
       235.000         193.000
  23933934.403   -10157923.41549  -7899035.02445  23933934.182    23933947.119
       210.000         150.000
  21409734.960   -21968509.84849 -17101580.06747  21409734.419    21409745.063
       237.000         199.000
  21764072.673   -17933643.32149 -13088910.38847  21764072.046    21764082.631
       233.000         190.000
  24363053.970    -5864111.40749  -4544981.73345  24363053.239    24363067.278
       212.000         150.000
  21659615.561   -23084043.89849 -15269703.87047  21659614.971    21659624.991
       240.000         202.000
 00  4 20  1 38 30.0000000  0  8G23G26G 3G 9G17G29G31G21
  21115750.255   -22710225.25249 -17378017.30947  21115749.751    21115758.945
       242.000         210.000
  24334225.376    -1880861.68749  -1450554.68945  24334225.706    24334237.532
       210.000         144.000
  21903370.274   -20333087.48949 -15815088.37047  21903369.503    21903380.673
       235.000         193.000
  23924935.838   -10205211.10749  -7935882.41645  23924935.402    23924949.373
       210.000         150.000
  21418170.428   -21924181.35249 -17067038.40747  21418170.009    21418180.051
       237.000         198.000
  21748036.071   -18017915.53049 -13154576.90147  21748035.488    21748046.481
       233.000         190.000
  24346128.495    -5953054.97349  -4614288.34145  24346128.096    24346140.480
       211.000         151.000
  21653117.633   -23118190.56449 -15296311.61147  21653117.149    21653127.080
       240.000         202.000
 00  4 20  1 39  0.0000000  0  8G23G26G 3G 9G17G29G31G21
  21121501.249   -22680003.54949 -17354467.92647  21121500.370    21121509.681
       242.000         209.000
  24354396.221    -1774863.53449  -1367958.81845  24354396.402    24354408.675
       207.000         144.000
  21895233.996   -20375843.57649 -15848404.74547  21895233.465    21895243.865
       235.000         194.000
  23916006.567   -10252133.79449  -7972445.37345  23916005.754    23916019.351
       211.000         150.000
  21426662.605   -21879554.73349 -17032264.44047  21426661.931    21426672.257
       237.000         198.000
  21732060.269   -18101868.46149 -13219994.62347  21732059.668    21732070.553
       234.000         191.000
  24329260.494    -6041696.68949  -4683359.73345  24329260.244    24329272.982
       210.000         150.000
  21646658.266   -23152134.60049 -15322761.45047  21646657.911    21646667.588
       240.000         202.000
 00  4 20  1 39 30.0000000  0  9G23G26G 3G 9G17G29G31G15G21
  21127281.740   -22649626.85349 -17330797.77247  21127281.238    21127290.364
       242.000         209.000
  24374600.060    -1668691.97449  -1285227.82745  24374599.506    24374613.776
       208.000         143.000
  21887203.074   -20418046.25949 -15881289.89947  21887202.505    21887213.260
       235.000         194.000
  23907146.767   -10298691.64549  -8008724.06645  23907146.527    23907160.177
       211.000         150.000
  21435211.059   -21834632.35349 -16997260.00947  21435210.632    21435220.706
       237.000         198.000
  21716148.366   -18185485.55949 -13285150.65247  21716147.584    21716158.994
       233.000         191.000
  24312451.292    -6130029.48449  -4752190.39745  24312450.371    24312464.221
       209.000         150.000
  24268494.906    -5563775.27949  -4314280.67345  24268493.002    24268509.269
       212.000         140.000
  21640235.602   -23185885.74249 -15349060.99247  21640234.977    21640245.019
       241.000         202.000
 00  4 20  1 40  0.0000000  0  9G23G26G 3G 9G17G29G31G15G21
  21133090.023   -22619104.11049 -17307013.82247  21133089.237    21133098.709
       242.000         209.000
  24394837.919    -1562341.94249  -1202357.75245  24394838.615    24394852.802
       207.000         141.000
  21879273.708   -20459715.16649 -15913759.13547  21879273.384    21879283.448
       235.000         194.000
  23898356.412   -10344884.72249  -8044718.48545  23898355.743    23898368.947
       211.000         150.000
  21443817.447   -21789405.68249 -16962018.47947  21443816.775    21443827.355
       237.000         198.000
  21700305.075   -18268742.28749 -13350025.88247  21700304.632    21700315.538
       233.000         191.000
  24295700.833    -6218053.21149  -4820780.21445  24295699.677    24295713.513
       207.000         149.000
  24250924.498    -5656107.66249  -4386227.75445  24250922.825    24250939.103
       212.000         141.000
  21633850.720   -23219438.40849 -15375205.88247  21633849.997    21633860.164
       241.000         202.000
 00  4 20  1 40 30.0000000  0  9G23G26G 3G 9G17G29G31G15G21
  21138924.828   -22588441.95849 -17283121.23647  21138924.157    21138933.410
       242.000         209.000
  24415110.775    -1455807.53249  -1119344.02145  24415111.000    24415123.254
       206.000         141.000
  21871443.289   -20500864.20749 -15945823.26647  21871442.925    21871453.380
       237.000         194.000
  23889635.389   -10390713.40449  -8080428.97245  23889635.200    23889649.351
       210.000         151.000
  21452483.930   -21743862.97449 -16926530.67847  21452483.205    21452493.600
       237.000         198.000
  21684531.635   -18351631.59649 -13414614.80547  21684531.111    21684541.724
       235.000         192.000
  24279012.613    -6305749.94749  -4889115.21445  24279012.210    24279025.149
       207.000         148.000
  24233346.152    -5748481.63749  -4458207.24945  24233345.484    24233360.225
       213.000         142.000
  21627504.586   -23252787.26849 -15401191.95447  21627503.781    21627513.799
       242.000         202.000
 00  4 20  1 41  0.0000000  0  9G23G26G 3G 9G17G29G31G15G21
  21144787.620   -22557632.62849 -17259113.97347  21144786.929    21144796.289
       242.000         209.000
  24435414.430    -1349111.42549  -1036204.28245  24435414.744    24435427.537
       205.000         140.000
  21863711.188   -20541496.46149 -15977484.72147  21863710.798    21863721.018
       236.000         194.000
  23880987.014   -10436160.37749  -8115842.01745  23880986.337    23881000.401
       211.000         151.000
  21461210.212   -21698006.06149 -16890798.04447  21461209.864    21461220.098
       237.000         197.000
  21668827.190   -18434158.31849 -13478921.19347  21668826.514    21668837.570
       234.000         192.000
  24262386.764    -6393119.10349  -4957194.96845  24262386.499    24262399.445
       205.000         147.000
  24215758.757    -5840903.06649  -4530223.72845  24215756.810    24215772.789
       214.000         144.000
  21621193.874   -23285950.02549 -15427033.01547  21621193.149    21621203.147
       241.000         202.000
 00  4 20  1 41 30.0000000  0  9G23G26G 3G 9G17G29G31G15G21
  21150679.966   -22526668.17349 -17234985.83547  21150679.529    21150688.702
       242.000         209.000
  24455750.642    -1242244.29349   -952931.28545  24455752.545    24455763.865
       202.000         139.000
  21856076.692   -20581615.85949 -16008746.55047  21856076.613    21856086.769
       236.000         194.000
  23872413.847   -10481212.28249  -8150947.21845  23872413.292    23872426.435
       213.000         152.000
  21469994.172   -21651846.39749 -16854829.51847  21469993.423    21470003.903
       236.000         197.000
  21653191.863   -18516321.88249 -13542944.60847  21653191.467    21653202.053
       234.000         192.000
  24245822.406    -6480164.89949  -5025022.73545  24245821.437    24245835.419
       203.000         146.000
  24198163.188    -5933367.66849  -4602273.86645  24198161.811    24198177.135
       215.000         146.000
  21614918.308   -23318928.20349 -15452730.25247  21614917.714    21614927.692
       240.000         202.000
 00  4 20  1 42  0.0000000  0  9G23G26G 3G 9G17G29G31G15G21
  21156603.172   -22495541.67449 -17210731.42447  21156602.589    21156611.814
       241.000         208.000
  24476117.829    -1135214.30549   -869531.38245  24476118.796    24476131.473
       202.000         139.000
  21848537.763   -20621233.13049 -16039617.10147  21848537.372    21848547.487
       237.000         194.000
  23863916.366   -10525866.46549  -8185742.50345  23863915.495    23863929.336
       211.000         152.000
  21478835.422   -21605385.25549 -16818626.05747  21478834.812    21478845.302
       236.000         197.000
  21637621.383   -18598144.73149 -13606702.52647  21637621.057    21637631.370
       234.000         192.000
  24229319.277    -6566888.54049  -5092599.44945  24229317.712    24229331.627
       203.000         145.000
  24180560.085    -6025871.78949  -4674354.80145  24180558.837    24180574.191
       213.000         146.000
  21608679.989   -23351710.67649 -15478274.98847  21608679.393    21608689.385
       241.000         202.000
 00  4 20  1 42 30.0000000  0  9G23G26G 3G 9G17G29G31G15G21
  21162560.077   -22464237.94449 -17186338.91847  21162559.615    21162568.891
       242.000         208.000
  24496515.065    -1028026.25249   -786008.31645  24496515.475    24496528.303
       201.000         139.000
  21841096.914   -20660334.94549 -16070086.00847  21841096.464    21841106.966
       237.000         194.000
  23855494.223   -10570124.35549  -8220228.98445  23855493.456    23855506.919
       211.000         152.000
  21487734.920   -21558618.18949 -16782184.21347  21487734.301    21487745.212
       237.000         196.000
  21622112.888   -18679641.78149 -13670206.57547  21622112.673    21622122.993
       235.000         193.000
  24212878.847    -6653283.01849  -5159919.67445  24212877.244    24212891.732
       201.000         145.000
  24162950.059    -6118412.47049  -4746464.23045  24162949.208    24162963.972
       215.000         147.000
  21602479.010   -23384296.84149 -15503666.75747  21602478.575    21602488.509
       241.000         202.000
 00  4 20  1 43  0.0000000  0  9G23G26G 3G 9G17G29G31G15G21
  21168552.882   -22432745.69149 -17161799.50847  21168552.556    21168561.736
       242.000         209.000
  24516944.603     -920668.52149   -702353.01745  24516944.712    24516958.565
       198.000         139.000
  21833756.894   -20698906.68949 -16100141.86747  21833756.195    21833766.898
       237.000         195.000
  23847148.543   -10613980.28749  -8254402.26045  23847147.983    23847161.048
       212.000         153.000
  21496692.658   -21511545.15549 -16745503.96147  21496691.770    21496702.740
       236.000         196.000
  21606666.467   -18760812.58149 -13733456.40447  21606666.226    21606676.642
       235.000         193.000
  24196501.876    -6739343.71249  -5226979.79145  24196501.591    24196514.933
       203.000         144.000
  24145334.056    -6210984.50749  -4818598.07945  24145332.144    24145348.609
       214.000         147.000
  21596316.935   -23416678.52849 -15528899.19147  21596316.401    21596326.206
       240.000         202.000
 00  4 20  1 43 30.0000000  0  9G23G26G 3G 9G17G29G31G15G21
  21174580.770   -22401068.92549 -17137116.32647  21174580.333    21174589.341
       242.000         209.000
  24537409.035     -813127.23149   -618554.69345  24537410.704    24537423.104
       196.000         139.000
  21826516.944   -20736952.69549 -16129788.06347  21826517.107    21826526.655
       237.000         195.000
  23838877.186   -10657445.79749  -8288271.32245  23838876.199    23838889.298
       213.000         153.000
  21505710.496   -21464156.22749 -16708577.56047  21505709.887    21505720.157
       236.000         196.000
  21591284.987   -18841642.23949 -13796440.41147  21591284.145    21591294.968
       235.000         193.000
  24180190.642    -6825059.30549  -5293771.00945  24180189.613    24180204.557
       202.000         144.000
  24127712.655    -6303584.82449  -4890753.97545  24127711.693    24127726.138
       212.000         148.000
  21590193.546   -23448857.05549 -15553973.32047  21590192.900    21590202.774
       241.000         202.000
 00  4 20  1 44  0.0000000  0  9G23G26G 3G 9G17G29G31G15G21
  21180643.661   -22369208.23949 -17112289.82747  21180643.216    21180652.335
       242.000         209.000
  24557906.975     -705410.24849   -534619.46445  24557906.705    24557920.014
       201.000         139.000
  21819379.559   -20774459.76149 -16159014.30547  21819379.048    21819389.212
       237.000         195.000
  23830678.977   -10700527.08249  -8321840.98645  23830678.764    23830692.025
       214.000         153.000
  21514793.066   -21416427.04649 -16671386.01947  21514792.669    21514803.004
       235.000         196.000
  21575971.884   -18922112.65949 -13859144.48447  21575971.586    21575982.280
       234.000         194.000
  24163947.234    -6910418.36849  -5360284.40545  24163945.209    24163959.446
       207.000         145.000
  24110085.722    -6396214.23349  -4962932.55545  24110084.975    24110099.705
       212.000         148.000
  21584106.974   -23480841.91449 -15578896.54247  21584106.424    21584116.274
       241.000         202.000
 00  4 20  1 44 30.0000000  0  9G23G26G 3G 9G17G29G31G15G21
  21186740.331   -22337170.24149 -17087325.16347  21186739.825    21186748.960
       242.000         208.000
  24578439.481     -597511.36549   -450542.47745  24578439.700    24578452.382
       202.000         139.000
  21812346.219   -20811420.04749 -16187814.48847  21812345.677    21812356.121
       237.000         195.000
  23822554.719   -10743219.91249  -8355107.96245  23822553.879    23822567.184
       213.000         154.000
  21523940.799   -21368355.53949 -16633927.73647  21523940.176    21523950.399
       236.000         196.000
  21560730.664   -19002205.16849 -13921554.08847  21560729.957    21560740.631
       235.000         194.000
  24147771.161    -6995423.55149  -5426522.06745  24147771.316    24147783.916
       207.000         146.000
  24092452.629    -6488876.18049  -5035136.48145  24092451.453    24092466.192
       212.000         148.000
  21578055.284   -23512643.59149 -15603677.02347  21578054.754    21578064.280
       240.000         203.000
 00  4 20  1 45  0.0000000  0  9G23G26G 3G 9G17G29G31G15G21
  21192869.977   -22304958.68849 -17062225.26347  21192869.382    21192878.823
       243.000         208.000
  24599004.857     -489440.35949   -366331.37045  24599005.343    24599019.043
       203.000         140.000
  21805416.845   -20847833.91949 -16216188.89347  21805416.634    21805426.730
       238.000         195.000
  23814504.641   -10785522.84349  -8388071.11645  23814504.841    23814517.155
       214.000         155.000
  21533152.221   -21319949.15049 -16596208.50447  21533151.839    21533161.916
       237.000         196.000
  21545564.198   -19081905.00149 -13983657.71047  21545563.787    21545573.977
       236.000         194.000
  24131661.866    -7080077.82149  -5492486.28545  24131661.009    24131674.307
       208.000         147.000
  24074813.671    -6581568.61349  -5107364.14645  24074811.875    24074827.885
       213.000         148.000
  21572036.903   -23544270.21349 -15628321.10247  21572036.120    21572046.117
       241.000         203.000
 00  4 20  1 45 30.0000000  0  8G23G 3G 9G17G29G31G15G21
  21199030.658   -22272584.05749 -17036998.28747  21199030.177    21199039.383
       241.000         208.000
  21798592.984   -20883693.38249 -16244131.29347  21798592.518    21798602.613
       237.000         195.000
  23806529.774   -10827430.42349  -8420726.21445  23806528.803    23806542.320
       214.000         155.000
  21542429.187   -21271198.42949 -16558220.95647  21542428.677    21542439.225
       235.000         195.000
  21530474.014   -19161203.82749 -14045448.85947  21530473.673    21530484.032
       235.000         195.000
  24115620.787    -7164373.79549  -5558171.31645  24115620.044    24115632.707
       208.000         147.000
  24057169.451    -6674288.85249  -5179613.50145  24057167.649    24057182.084
       212.000         149.000
  21566052.924   -23575715.98849 -15652824.26047  21566052.293    21566061.973
       240.000         203.000
 00  4 20  1 46  0.0000000  0  8G23G 3G 9G17G29G31G15G21
  21205222.662   -22240044.96549 -17011643.15647  21205222.060    21205231.218
       242.000         208.000
  21791878.769   -20918976.86249 -16271624.86647  21791878.277    21791888.411
       238.000         195.000
  23798632.427   -10868930.70949  -8453063.93745  23798632.330    23798644.768
       214.000         155.000
  21551771.254   -21222105.81149 -16519967.00447  21551770.780    21551781.008
       236.000         195.000
  21515456.853   -19240119.10349 -14106941.14047  21515456.200    21515466.600
       235.000         195.000
  24099647.508    -7248313.33149  -5623578.60145  24099646.652    24099660.150
       208.000         147.000
  24039521.016    -6767031.18649  -5251880.06445  24039520.246    24039534.549
       211.000         149.000
  21560106.768   -23606963.06549 -15677172.58647  21560106.059    21560115.800
       241.000         203.000
 00  4 20  1 46 30.0000000  0  8G23G 3G 9G17G29G31G15G21
  21211443.902   -22207352.13949 -16986168.23347  21211443.383    21211452.639
       242.000         208.000
  21785273.685   -20953686.69649 -16298671.45147  21785273.519    21785283.364
       237.000         195.000
  23790813.518   -10910018.64549  -8485080.35145  23790812.873    23790825.726
       213.000         155.000
  21561173.817   -21172695.23749 -16481465.28547  21561173.260    21561183.785
       236.000         195.000
  21500511.071   -19318659.20049 -14168141.07447  21500510.526    21500521.107
       235.000         195.000
  24083742.937    -7331891.82049  -5688704.56245  24083741.912    24083755.334
       210.000         148.000
  24021869.455    -6859790.01949  -5324159.48445  24021867.657    24021883.605
       210.000         149.000
  21554200.095   -23638002.65949 -15701359.24547  21554199.698    21554209.192
       240.000         203.000
 00  4 20  1 47  0.0000000  0  8G23G 3G 9G17G29G31G15G21
  21217691.714   -22174519.64349 -16960584.47547  21217690.998    21217700.343
       242.000         208.000
  21778776.964   -20987826.78449 -16325274.06947  21778776.447    21778786.535
       238.000         195.000
  23783072.456   -10950697.62049  -8516778.10345  23783071.812    23783084.991
       214.000         156.000
  21570637.901   -21122961.31449 -16442711.61147  21570637.139    21570647.752
       236.000         195.000
  21485635.931   -19396828.11049 -14229051.76647  21485635.574    21485645.573
       236.000         196.000
  24067907.091    -7415109.46949  -5753549.34545  24067906.905    24067919.047
       212.000         148.000
  24004214.835    -6952564.62949  -5396451.18645  24004213.539    24004228.377
       211.000         149.000
  21548333.979   -23668829.21249 -15725379.89047  21548333.209    21548342.951
       241.000         203.000
 00  4 20  1 47 30.0000000  0  8G23G 3G 9G17G29G31G15G21
  21223964.393   -22141556.46449 -16934898.89447  21223964.035    21223973.191
       241.000         208.000
  21772387.378   -21021404.16649 -16351438.22947  21772387.120    21772397.121
       238.000         195.000
  23775408.215   -10990972.88649  -8548161.27445  23775408.127    23775420.967
       214.000         156.000
  21580165.667   -21072892.71549 -16403697.15747  21580165.203    21580175.389
       235.000         195.000
  21470829.447   -19474636.02649 -14289681.18147  21470829.094    21470839.295
       235.000         196.000
  24052138.191    -7497975.15549  -5818119.86045  24052137.072    24052150.931
       213.000         149.000
  23986555.544    -7045364.06349  -5468762.23345  23986554.024    23986569.655
       211.000         149.000
  21542509.165   -23699438.82349 -15749231.50547  21542508.752    21542518.323
       240.000         204.000
 00  4 20  1 48  0.0000000  0  8G23G 3G 9G17G29G31G15G21
  21230263.540   -22108454.26649 -16909104.97747  21230262.915    21230272.276
       241.000         208.000
  21766104.695   -21054419.62549 -16377164.51847  21766104.100    21766114.127
       237.000         196.000
  23767821.835   -11030839.17749  -8579225.77845  23767821.520    23767834.326
       215.000         156.000
  21589758.178   -21022483.82949 -16364417.53247  21589757.572    21589767.943
       235.000         194.000
  21456094.087   -19552070.42849 -14350019.53547  21456093.605    21456104.084
       235.000         196.000
  24036436.014    -7580490.22249  -5882417.18045  24036434.992    24036448.331
       214.000         149.000
  23968891.815    -7138186.78549  -5541091.43645  23968890.882    23968905.531
       208.000         148.000
  21536722.854   -23729845.73349 -15772925.16047  21536722.337    21536732.017
       240.000         204.000
 00  4 20  1 48 30.0000000  0  8G23G 3G 9G17G29G31G15G21
  21236587.485   -22075221.72349 -16883209.49347  21236586.827    21236596.196
       243.000         208.000
  21759925.088   -21086893.61449 -16402468.87947  21759924.358    21759934.510
       239.000         196.000
  23760313.513   -11070294.75249  -8609970.23545  23760312.498    23760325.448
       215.000         156.000
  21599416.169   -20971730.86649 -16324869.78947  21599415.566    21599425.863
       236.000         194.000
  21441431.760   -19629120.87749 -14410058.70947  21441431.236    21441441.323
       237.000         196.000
  24020798.576    -7662664.88249  -5946449.24145  24020797.458    24020810.394
       217.000         149.000
  23951221.851    -7231042.33149  -5613446.22145  23951220.875    23951235.655
       208.000         147.000
  21530972.006   -23760066.48649 -15796473.75847  21530971.149    21530980.920
       242.000         204.000
 00  4 20  1 49  0.0000000  0  8G23G 3G 9G17G29G31G15G21
  21242938.462   -22041847.14149 -16857203.33547  21242938.080    21242947.282
       241.000         208.000
  21753847.891   -21118829.43349 -16427353.90247  21753847.535    21753857.348
       238.000         196.000
  23752885.270   -11109329.89749  -8640387.08245  23752885.140    23752897.745
       214.000         156.000
  21609142.712   -20920617.63249 -16285041.33047  21609142.212    21609152.708
       235.000         194.000
  21426840.874   -19705795.86849 -14469805.32447  21426840.457    21426850.723
       236.000         197.000
  24005224.339    -7744507.69549  -6010222.72245  24005223.360    24005237.229
       215.000         149.000
  23933544.149    -7323938.47949  -5685832.63845  23933542.653    23933557.051
       206.000         147.000
  21525255.340   -23790107.65649 -15819882.42647  21525254.976    21525264.706
       240.000         204.000
 00  4 20  1 49 30.0000000  0  8G23G 3G 9G17G29G31G15G21
  21249319.555   -22008314.34449 -16831073.88747  21249319.252    21249328.309
       242.000         208.000
  21747876.540   -21150209.02449 -16451805.49247  21747876.119    21747886.016
       238.000         196.000
  23745539.550   -11147931.07549  -8670465.76745  23745539.475    23745552.053
       214.000         157.000
  21618935.229   -20869157.84349 -16244942.82147  21618934.693    21618945.255
       235.000         194.000
  21412322.125   -19782091.96449 -14529256.69047  21412321.658    21412331.702
       236.000         197.000
  23989715.244    -7826007.93349  -6073729.25645  23989714.047    23989727.302
       215.000         149.000
  23915859.658    -7416870.20949  -5758246.77845  23915858.855    23915872.370
       206.000         147.000
  21519572.255   -23819972.31949 -15843153.54747  21519571.780    21519581.591
       241.000         204.000
 00  4 20  1 50  0.0000000  0  8G23G 3G 9G17G29G31G15G21
  21255729.151   -21974631.80749 -16804827.76147  21255728.545    21255738.065
       242.000         207.000
  21742012.393   -21181025.12849 -16475818.00947  21742011.938    21742021.600
       237.000         196.000
  23738280.907   -11186074.91049  -8700188.08145  23738280.660    23738293.547
       215.000         157.000
  21628789.072   -20817375.74649 -16204593.17247  21628788.331    21628798.823
       235.000         193.000
  21397878.484   -19857993.25349 -14588400.42647  21397877.957    21397887.951
       236.000         197.000
  23974274.769    -7907147.39949  -6136954.67645  23974273.926    23974286.084
       215.000         149.000
  23898170.602    -7509826.16449  -5830679.80745  23898168.792    23898184.019
       206.000         147.000
  21513922.982   -23849659.33349 -15866286.24947  21513922.461    21513931.968
       241.000         204.000
 00  4 20  1 50 30.0000000  0  8G23G 3G 9G17G29G31G15G21
  21262166.364   -21940804.01849 -16778468.44947  21262165.929    21262175.332
       241.000         207.000
  21736254.032   -21211285.29449 -16499397.32947  21736253.555    21736263.831
       238.000         196.000
  23731108.156   -11223767.32449  -8729558.64845  23731108.126    23731119.925
       215.000         157.000
  21638700.268   -20765292.21549 -16164008.63447  21638699.770    21638710.673
       235.000         193.000
  21383509.171   -19933504.03449 -14647239.86547  21383508.635    21383518.729
       236.000         197.000
  23958902.276    -7987929.99249  -6199902.00145  23958901.108    23958913.512
       216.000         149.000
  23880477.772    -7602801.63149  -5903128.04045  23880476.510    23880490.935
       206.000         146.000
  21508309.199   -23879159.73949 -15889273.53747  21508308.608    21508318.426
       241.000         204.000
 00  4 20  1 51  0.0000000  0  8G23G 3G 9G17G29G31G15G21
  21268631.396   -21906830.04649 -16751995.23547  21268631.013    21268639.975
       241.000         207.000
  21730602.663   -21240983.24549 -16522538.56647  21730602.197    21730612.133
       238.000         196.000
  23724019.510   -11261017.91649  -8758584.94545  23724018.844    23724031.508
       214.000         157.000
  21648667.663   -20712913.36049 -16123193.97447  21648666.970    21648677.560
       234.000         193.000
  21369215.661   -20008616.39649 -14705768.85547  21369215.190    21369225.366
       237.000         197.000
  23943600.714    -8068339.67549  -6262558.74545  23943599.881    23943612.679
       216.000         150.000
  23862783.275    -7695786.22949  -5975583.39645  23862783.149    23862797.112
       206.000         147.000
  21502730.843   -23908474.09549 -15912115.85547  21502730.190    21502739.788
       240.000         204.000
 00  4 20  1 51 30.0000000  0  8G23G 3G 9G17G29G31G15G21
  21275119.379   -21872735.58249 -16725428.13147  21275118.852    21275127.916
       241.000         207.000
  21725057.262   -21270124.35049 -16545245.89647  21725056.786    21725066.904
       238.000         196.000
  23717012.498   -11297839.34449  -8787276.82145  23717011.644    23717024.657
       216.000         158.000
  21658688.188   -20660255.10749 -16082161.61547  21658687.772    21658698.110
       234.000         193.000
  21355000.121   -20083319.07849 -14763978.60947  21354999.691    21355009.540
       236.000         198.000
  23928371.502    -8148369.38149  -6324919.40745  23928370.364    23928383.432
       216.000         150.000
  23845087.257    -7788778.88649  -6048045.02045  23845086.520    23845100.921
       206.000         147.000
  21497187.181   -23937606.11249 -15934816.08847  21497186.487    21497196.082
       241.000         204.000
 00  4 20  1 52  0.0000000  0  8G23G 3G 9G17G29G31G15G21
  21281627.680   -21838534.28249 -16698777.77647  21281627.286    21281636.482
       241.000         207.000
  21719612.297   -21298737.75449 -16567542.03047  21719611.746    21719621.885
       238.000         196.000
  23710083.245   -11334252.41249  -8815650.50645  23710082.242    23710095.535
       216.000         158.000
  21668763.231   -20607310.60649 -16040906.19847  21668762.478    21668773.196
       234.000         192.000
  21340862.324   -20157613.08749 -14821869.92047  21340861.809    21340871.754
       236.000         198.000
  23913212.536    -8228029.59549  -6386992.16745  23913211.988    23913223.991
       216.000         151.000
  23827387.913    -7881788.67349  -6120520.00445  23827386.234    23827400.865
       207.000         147.000
  21491675.307   -23966571.12049 -15957386.17947  21491674.743    21491684.358
       241.000         204.000
 00  4 20  1 52 30.0000000  0  8G23G 3G 9G17G29G31G15G21
  21288160.247   -21804205.58249 -16672028.15247  21288159.704    21288168.991
       241.000         207.000
  21714267.204   -21326826.28749 -16589429.18147  21714266.806    21714277.009
       238.000         196.000
  23703227.494   -11370279.08549  -8843723.10345  23703227.307    23703239.724
       217.000         158.000
  21678898.668   -20554048.65149 -15999403.42047  21678897.981    21678908.466
       235.000         192.000
  21326799.082   -20231515.48849 -14879456.08547  21326798.485    21326808.152
       237.000         198.000
  23898123.940    -8307320.09749  -6448776.83545  23898122.864    23898135.561
       217.000         151.000
  23809684.674    -7974819.21049  -6193011.16145  23809683.579    23809697.297
       209.000         148.000
  21486194.925   -23995370.48849 -15979827.20347  21486194.507    21486204.222
       241.000         204.000
 00  4 20  1 53  0.0000000  0  8G23G 3G 9G17G29G31G15G21
  21294717.889   -21769744.94249 -16645175.71747  21294717.334    21294726.699
       242.000         207.000
  21709024.389   -21354377.32449 -16610897.49747  21709024.275    21709034.220
       238.000         197.000
  23696447.521   -11405907.26649  -8871485.18145  23696447.291    23696459.412
       216.000         158.000
  21689097.881   -20500451.72449 -15957639.62047  21689097.370    21689107.357
       234.000         192.000
  21312811.466   -20305020.49049 -14936732.58847  21312811.038    21312820.771
       237.000         198.000
  23883108.671    -8386225.15749  -6510261.15945  23883108.058    23883121.017
       216.000         152.000
  23791977.546    -8067870.32049  -6265518.35345  23791976.427    23791990.527
       209.000         147.000
  21480746.243   -24024003.32749 -16002138.46147  21480745.539    21480755.152
       240.000         204.000
 00  4 20  1 53 30.0000000  0  8G23G 3G 9G17G29G31G15G21
  21301300.110   -21735155.15849 -16618222.64747  21301299.457    21301308.940
       241.000         207.000
  21703886.263   -21381378.19749 -16631937.12347  21703885.892    21703896.145
       239.000         197.000
  23689745.583   -11441125.89949  -8898928.13945  23689745.460    23689757.796
       217.000         159.000
  21699361.249   -20446517.46749 -15915612.97447  21699360.615    21699371.019
       235.000         192.000
  21298899.294   -20378128.94549 -14993700.09947  21298898.779    21298908.755
       237.000         199.000
  23868165.035    -8464753.94349  -6571452.28745  23868164.034    23868176.493
       215.000         153.000
  23774265.534    -8160946.66249  -6338045.19945  23774264.329    23774279.189
       210.000         148.000
  21475328.275   -24052474.65649 -16024323.86347  21475327.750    21475337.489
       240.000         204.000
 00  4 20  1 54  0.0000000  0  8G23G 3G 9G17G29G31G15G21
  21307909.205   -21700424.26349 -16591159.62147  21307908.832    21307917.985
       241.000         207.000
  21698856.166   -21407811.43249 -16652534.43147  21698855.915    21698866.126
       238.000         197.000
  23683122.237   -11475931.51049  -8926049.25445  23683121.006    23683134.000
       216.000         159.000
  21709690.849   -20392235.10249 -15873315.07247  21709690.264    21709701.119
       234.000         191.000
  21285059.761   -20450855.62649 -15050370.12447  21285059.460    21285069.249
       237.000         199.000
  23853292.559    -8542908.62749  -6632351.92745  23853292.379    23853304.114
       216.000         153.000
  23756548.542    -8254049.54649  -6410592.73645  23756547.315    23756562.251
       210.000         149.000
  21469940.728   -24080786.24749 -16046384.79647  21469939.970    21469949.927
       241.000         204.000
 00  4 20  1 54 30.0000000  0  8G23G 3G 9G17G29G31G15G21
  21314548.327   -21665535.64349 -16563973.69447  21314547.946    21314557.095
       241.000         207.000
  21693941.950   -21433635.82249 -16672657.31547  21693941.477    21693951.688
       238.000         197.000
  23676584.042   -11510289.47149  -8952821.56845  23676583.402    23676595.435
       218.000         159.000
  21720089.887   -20337587.83249 -15830732.83247  21720089.765    21720099.752
       234.000         191.000
  21271295.328   -20523187.66949 -15106732.63847  21271294.909    21271304.842
       237.000         199.000
  23838495.543    -8620666.63249  -6692942.44145  23838494.594    23838506.903
       215.000         153.000
  23738830.961    -8347155.52449  -6483142.67345  23738830.210    23738844.255
       213.000         149.000
  21464588.787   -24108910.75549 -16068299.94947  21464588.105    21464597.978
       241.000         204.000
 00  4 20  1 55  0.0000000  0  8G23G 3G 9G17G29G31G15G21
  21321212.530   -21630514.97549 -16536684.87247  21321211.972    21321221.295
       241.000         206.000
  21689143.384   -21458852.34249 -16692306.54047  21689143.179    21689153.148
       238.000         197.000
  23670132.241   -11544193.16249  -8979239.90745  23670132.348    23670143.893
       217.000         158.000
  21730554.089   -20282598.35549 -15787883.94247  21730553.721    21730564.217
       234.000         191.000
  21257609.058   -20595109.03449 -15162775.14647  21257608.364    21257618.269
       237.000         199.000
  23823773.125    -8698033.21849  -6753227.96645  23823771.636    23823785.813
       215.000         153.000
  23721111.984    -8440268.88649  -6555698.37445  23721111.007    23721124.833
       213.000         150.000
  21459271.356   -24136853.77049 -16090073.67747  21459270.926    21459280.484
       241.000         204.000
 00  4 20  1 55 30.0000000  0  8G23G 3G 9G17G29G31G15G21
  21327900.837   -21595367.70749 -16509297.40347  21327900.342    21327909.663
       241.000         206.000
  21684457.569   -21483476.43849 -16711494.13047  21684457.512    21684467.154
       239.000         197.000
  23663764.767   -11577654.12649  -9005313.26045  23663763.797    23663776.720
       217.000         158.000
  21741081.824   -20227274.91849 -15744774.82847  21741081.472    21741092.052
       233.000         191.000
  21243998.636   -20666631.86549 -15218507.11247  21243998.386    21244007.972
       237.000         200.000
  23809123.741    -8775016.10649  -6813214.49545  23809123.897    23809136.020
       214.000         154.000
  23703390.705    -8533394.34149  -6628263.48945  23703389.105    23703403.144
       215.000         151.000
  21453988.610   -24164614.71249 -16111705.53147  21453988.013    21453997.886
       241.000         204.000
 00  4 20  1 56  0.0000000  0  8G23G 3G 9G17G29G31G15G21
  21334615.664   -21560081.05549 -16481801.32147  21334615.123    21334624.301
       241.000         206.000
  21679881.999   -21507521.38949 -16730230.44247  21679881.630    21679891.546
       239.000         197.000
  23657482.362   -11610667.84249  -9031038.13545  23657482.036    23657493.810
       217.000         158.000
  21751672.816   -20171619.06249 -15701406.67647  21751672.121    21751683.227
       234.000         191.000
  21230464.866   -20737751.80849 -15273925.13447  21230464.435    21230474.135
       237.000         200.000
  23794550.005    -8851601.08149  -6872890.97245  23794549.576    23794561.192
       212.000         153.000
  23685668.898    -8626522.40049  -6700830.63845  23685667.683    23685681.459
       215.000         152.000
  21448744.080   -24192174.63549 -16133180.74647  21448743.474    21448753.106
       241.000         204.000
 00  4 20  1 56 30.0000000  0  8G23G 3G 9G17G29G31G15G21
  21341358.488   -21524647.31349 -16454190.62147  21341357.935    21341366.983
       241.000         206.000
  21675413.296   -21531004.54549 -16748528.99047  21675413.284    21675423.024
       239.000         197.000
  23651287.819   -11643219.79449  -9056403.19045  23651287.275    23651300.556
       216.000         158.000
  21762325.831   -20115637.15449 -15657784.44947  21762325.066    21762336.268
       233.000         190.000
  21217012.043   -20808446.52149 -15329011.81347  21217011.549    21217021.406
       237.000         200.000
  23780053.594    -8927779.72849  -6932250.82345  23780053.052    23780065.404
       213.000         153.000
  23667947.696    -8719647.40549  -6773395.39445  23667946.442    23667959.809
       216.000         153.000
  21443539.776   -24219523.31149 -16154491.35547  21443539.107    21443548.850
       241.000         204.000
 00  4 20  1 57  0.0000000  0  8G23G 3G 9G17G29G31G15G21
  21348130.463   -21489060.30049 -16426460.48947  21348129.827    21348139.058
       241.000         206.000
  21671050.749   -21553929.59749 -16766392.65347  21671050.494    21671060.163
       238.000         197.000
  23645182.415   -11675303.36849  -9081403.25845  23645182.241    23645195.181
       216.000         158.000
  21773041.370   -20059326.90149 -15613906.37447  21773040.817    21773051.905
       233.000         190.000
  21203640.633   -20878713.20749 -15383764.96147  21203640.085    21203649.799
       238.000         200.000
  23765637.514    -9003536.28549  -6991281.77145  23765636.542    23765648.990
       211.000         152.000
  23650227.226    -8812768.62849  -6845957.20245  23650225.829    23650239.488
       216.000         153.000
  21438376.459   -24246656.51449 -16175634.06147  21438375.691    21438385.408
       241.000         204.000
 00  4 20  1 57 30.0000000  0  8G23G 3G 9G17G29G31G15G21
  21354932.985   -21453312.92749 -16398605.40047  21354932.688    21354941.812
       241.000         206.000
  21666796.080   -21576288.03649 -16783814.79947  21666795.540    21666806.045
       239.000         197.000
  23639169.096   -11706903.18949  -9106026.37745  23639168.434    23639180.544
       216.000         158.000
  21783819.803   -20002686.13849 -15569770.75747  21783819.016    21783830.006
       233.000         190.000
  21190349.505   -20948558.11749 -15438189.45947  21190348.817    21190358.609
       238.000         201.000
  23751303.162    -9078862.92649  -7049977.71545  23751302.026    23751314.899
       211.000         152.000
  23632508.714    -8905879.34549  -6918510.82745  23632507.525    23632520.988
       218.000         153.000
  21433254.632   -24273571.80249 -16196606.96647  21433253.977    21433263.490
       241.000         205.000
 00  4 20  1 58  0.0000000  0  8G23G 3G 9G17G29G31G15G21
  21361763.965   -21417416.01549 -16370633.78547  21361763.339    21361772.876
       241.000         206.000
  21662651.210   -21598069.40949 -16800787.28247  21662650.729    21662660.629
       238.000         197.000
  23633249.983   -11738007.77849  -9130263.61745  23633249.782    23633261.059
       215.000         157.000
  21794659.690   -19945722.12849 -15525383.25447  21794659.061    21794670.116
       233.000         190.000
  21177139.709   -21017975.71549 -15492280.98147  21177139.272    21177149.062
       238.000         201.000
  23737050.905    -9153758.32249  -7108337.63045  23737050.072    23737062.248
       210.000         152.000
  23614791.631    -8998982.28349  -6991058.37345  23614790.631    23614804.238
       219.000         153.000
  21428171.294   -24300284.82449 -16217422.26347  21428170.846    21428180.315
       241.000         205.000
 00  4 20  1 58 30.0000000  0  8G23G 3G 9G17G29G31G15G21
  21368619.678   -21381389.05249 -16342560.83647  21368619.233    21368628.438
       240.000         206.000
  21658616.852   -21619270.01949 -16817307.22547  21658616.722    21658626.320
       239.000         197.000
  23627425.732   -11768613.87749  -9154112.40845  23627425.414    23627437.540
       216.000         157.000
  21805561.408   -19888433.32949 -15480742.66847  21805560.834    21805571.563
       233.000         190.000
  21164008.680   -21086979.18949 -15546049.81647  21164008.242    21164018.011
       238.000         201.000
  23722880.419    -9228223.86949  -7166362.59645  23722880.352    23722893.004
       209.000         152.000
  23597075.061    -9092082.99849  -7063604.19745  23597074.036    23597087.188
       219.000         154.000
  21423123.579   -24326810.49849 -16238091.58247  21423122.971    21423132.464
       241.000         205.000
 00  4 20  1 59  0.0000000  0  8G23G 3G 9G17G29G31G15G21
  21375497.429   -21345246.07349 -16314397.48047  21375496.921    21375506.298
       240.000         205.000
  21654692.320   -21639893.62949 -16833377.55547  21654692.109    21654702.019
       238.000         197.000
  23621693.591   -11798736.09349  -9177584.15445  23621692.183    23621705.115
       216.000         157.000
  21816523.641   -19830826.52649 -15435854.28847  21816523.195    21816533.937
       233.000         189.000
  21150953.545   -21155583.82449 -15599507.86447  21150952.970    21150962.824
       238.000         201.000
  23708788.642    -9302275.95049  -7224065.38745  23708787.528    23708800.531
       209.000         153.000
  23579358.064    -9185185.46749  -7136151.37845  23579357.171    23579369.589
       219.000         154.000
  21418108.121   -24353166.72849 -16258628.85847  21418107.503    21418116.970
       241.000         205.000
 00  4 20  1 59 30.0000000  0  8G23G 3G 9G17G29G31G15G21
  21382397.989   -21308983.49249 -16286140.93047  21382397.484    21382406.778
       240.000         205.000
  21650874.567   -21659956.02249 -16849010.57247  21650874.402    21650884.065
       237.000         197.000
  23616052.808   -11828378.03249  -9200681.65345  23616052.757    23616064.850
       216.000         157.000
  21827545.456   -19772906.94249 -15390722.18447  21827545.155    21827555.440
       233.000         189.000
  21137976.027   -21223780.74549 -15652648.21347  21137975.494    21137985.166
       238.000         202.000
  23694772.885    -9375928.62749  -7281456.95145  23694771.901    23694784.980
       209.000         153.000
  23561641.431    -9278286.22549  -7208697.24645  23561639.886    23561654.401
       219.000         154.000
  21413122.597   -24379365.71649 -16279043.61347  21413122.104    21413131.508
       241.000         205.000
 00  4 20  2  0  0.0000000  0  8G23G 3G 9G17G29G31G15G21
  21389321.952   -21272597.75949 -16257788.41847  21389321.521    21389330.736
       241.000         205.000
  21647162.045   -21679465.53749 -16864212.77847  21647161.382    21647171.661
       237.000         197.000
  23610502.655   -11857543.97249  -9223408.24645  23610502.699    23610514.458
       215.000         157.000
  21838629.344   -19714660.90549 -15345335.70147  21838628.962    21838639.240
       233.000         189.000
  21125075.309   -21291573.98549 -15705474.00947  21125074.675    21125084.504
       238.000         202.000
  23680832.465    -9449185.25649  -7338539.90845  23680831.491    23680843.716
       209.000         154.000
  23543925.692    -9371382.45549  -7281239.56545  23543924.130    23543937.854
       219.000         153.000
  21408166.697   -24405408.99149 -16299337.03847  21408166.085    21408175.675
       241.000         205.000
 00  4 20  2  0 30.0000000  0  8G23G 3G 9G17G29G31G15G21
  21396270.696   -21236081.98249 -16229334.56647  21396270.380    21396279.503
       240.000         205.000
  21643552.246   -21698434.94549 -16878994.11547  21643551.941    21643561.832
       237.000         197.000
  23605041.932   -11886239.81849  -9245768.51445  23605041.710    23605053.195
       217.000         157.000
  21849777.898   -19656075.07449 -15299684.44047  21849777.464    21849788.246
       233.000         189.000
  21112252.220   -21358959.46849 -15757982.06247  21112251.922    21112261.700
       239.000         202.000
  23666967.905    -9522043.40449  -7395312.37245  23666966.660    23666979.546
       211.000         155.000
  23526212.255    -9464466.42849  -7353772.34645  23526210.773    23526224.864
       218.000         154.000
  21403240.897   -24431293.93849 -16319507.08547  21403240.375    21403249.753
       241.000         205.000
 00  4 20  2  1  0.0000000  0  8G23G 3G 9G17G29G31G15G21
  21403245.199   -21199430.87649 -16200775.26547  21403244.512    21403254.122
       240.000         205.000
  21640045.797   -21716861.32449 -16893352.31447  21640045.478    21640055.359
       237.000         197.000
  23599669.210   -11914473.25449  -9267768.46545  23599668.350    23599680.238
       216.000         157.000
  21860992.005   -19597144.71249 -15253764.71147  21860991.441    21861002.340
       233.000         188.000
  21099511.332   -21425912.75249 -15810153.34847  21099510.833    21099520.361
       238.000         203.000
  23653179.185    -9594503.08649  -7451774.34245  23653178.425    23653191.082
       210.000         156.000
  23508501.783    -9557534.71249  -7426292.91145  23508500.204    23508513.560
       217.000         154.000
  21398345.906   -24457017.10149 -16339551.06847  21398345.184    21398355.082
       241.000         205.000
 00  4 20  2  1 30.0000000  0  8G23G 3G 9G17G29G31G15G21
  21410240.797   -21162668.75049 -16172129.45747  21410240.289    21410249.482
       240.000         205.000
  21636645.720   -21734728.75249 -16907274.96847  21636645.352    21636655.434
       237.000         197.000
  23594384.774   -11942242.61049  -9289406.80845  23594384.627    23594396.592
       217.000         157.000
  21872271.034   -19537873.13849 -15207579.10247  21872270.892    21872281.278
       232.000         188.000
  21086854.001   -21492427.07149 -15861982.58047  21086853.415    21086863.094
       238.000         203.000
  23639468.811    -9666551.12049  -7507915.55745  23639468.407    23639480.468
       210.000         157.000
  23490793.134    -9650593.52449  -7498806.08845  23490792.513    23490806.139
       217.000         155.000
  21393482.520   -24482574.36449 -16359465.77847  21393481.921    21393491.371
       241.000         205.000
 00  4 20  2  2  0.0000000  0  8G23G 3G 9G17G29G31G15G21
  21417251.663   -21125826.42849 -16143421.15947  21417251.146    21417260.427
       240.000         205.000
  21633355.372   -21752019.61249 -16920748.36047  21633354.980    21633365.303
       237.000         198.000
  23589186.156   -11969561.00549  -9310693.75045  23589186.736    23589196.864
       217.000         158.000
  21883614.343   -19478263.63549 -15161130.17447  21883613.570    21883624.428
       233.000         188.000
  21074279.089   -21558508.19449 -15913474.26247  21074278.740    21074288.134
       239.000         203.000
  23625836.441    -9738189.15949  -7563737.29245  23625835.884    23625848.374
       212.000         158.000
  23473084.246    -9743653.42049  -7571320.10645  23473082.693    23473096.387
       216.000         155.000
  21388651.002   -24507964.12249 -16379249.96747  21388650.286    21388660.026
       242.000         206.000
 00  4 20  2  2 30.0000000  0  8G23G 3G 9G17G29G31G15G21
  21424276.546   -21088910.42349 -16114655.44247  21424275.912    21424285.290
       240.000         205.000
  21630175.225   -21768731.34349 -16933770.47847  21630174.902    21630185.004
       238.000         198.000
  23584070.550   -11996443.22149  -9331640.80945  23584069.968    23584082.545
       216.000         158.000
  21895017.267   -19418341.04049 -15114437.27247  21895016.535    21895027.413
       232.000         188.000
  21061788.010   -21624148.89249 -15964622.75647  21061787.588    21061797.092
       239.000         203.000
  23612281.175    -9809422.29649  -7619243.52345  23612280.498    23612292.562
       213.000         159.000
  23455373.014    -9836725.73549  -7643843.81545  23455371.314    23455384.747
       216.000         154.000
  21383850.510   -24533190.79049 -16398907.06847  21383849.949    21383859.242
       242.000         206.000
 00  4 20  2  3  0.0000000  0  8G23G 3G 9G17G29G31G15G21
  21431317.037   -21051912.27649 -16085825.72147  21431316.568    21431325.923
       240.000         204.000
  21627109.791   -21784840.29549 -16946322.89947  21627109.434    21627119.416
       238.000         198.000
  23579040.008   -12022878.60549  -9352239.70545  23579039.091    23579050.967
       217.000         158.000
  21906479.146   -19358108.62249 -15067502.95546  21906478.261    21906488.972
       232.000         187.000
  21049381.457   -21689345.40049 -16015425.13647  21049381.217    21049390.457
       239.000         204.000
  23598803.810    -9880245.84449  -7674430.59045  23598802.819    23598815.697
       214.000         160.000
  23437659.451    -9929810.54149  -7716377.24545  23437658.047    23437671.739
       215.000         154.000
  21379082.106   -24558248.81849 -16418432.76647  21379081.660    21379090.958
       241.000         206.000
 00  4 20  2  3 30.0000000  0  8G23G 3G 9G17G29G31G15G21
  21438377.061   -21014811.64349 -16056916.13647  21438376.651    21438385.810
       240.000         204.000
  21624160.061   -21800341.30649 -16958401.59247  21624159.896    21624169.794
       238.000         198.000
  23574097.014   -12048853.75649  -9372479.97845  23574096.802    23574108.452
       217.000         158.000
  21917999.066   -19297571.19749 -15020330.97546  21917998.835    21918009.409
       232.000         187.000
  21037056.861   -21754111.13749 -16065891.84447  21037056.539    21037065.815
       239.000         204.000
  23585407.232    -9950644.92749  -7729286.90445  23585406.773    23585418.796
       214.000         160.000
  23419944.716   -10022901.14949  -7788915.20245  23419943.880    23419956.189
       213.000         154.000
  21374346.334   -24583135.37649 -16437824.84547  21374345.658    21374355.091
       242.000         206.000
 00  4 20  2  4  0.0000000  0  8G23G 3G 9G17G29G31G15G21
  21445466.255   -20977557.78449 -16027887.15547  21445465.813    21445474.949
       240.000         204.000
  21621324.630   -21815241.59649 -16970012.19947  21621324.339    21621334.164
       238.000         198.000
  23569243.745   -12074357.39049  -9392352.82045  23569243.342    23569254.658
       217.000         158.000
  21929581.118   -19236707.38249 -14972904.67146  21929580.567    21929591.349
       232.000         187.000
  21024815.686   -21818438.61349 -16116017.05147  21024815.443    21024824.835
       240.000         204.000
  23572094.043   -10020605.89449  -7783801.82245  23572093.259    23572105.611
       215.000         161.000
  23402232.358   -10115979.51749  -7861443.63545  23402230.883    23402244.239
       212.000         154.000
  21369643.738   -24607847.48849 -16457080.99247  21369642.964    21369652.410
       242.000         206.000
 00  4 20  2  4 30.0000000  0  8G23G 3G 9G17G29G31G15G21
  21452590.913   -20940117.53449 -15998712.93447  21452590.471    21452599.615
       240.000         204.000
  21618602.041   -21829548.87449 -16981160.71447  21618601.863    21618611.389
       238.000         198.000
  23564485.382   -12099362.22449  -9411837.00145  23564486.026    23564497.115
       217.000         158.000
  21941227.773   -19175503.94149 -14925213.71746  21941227.234    21941237.985
       232.000         187.000
  21012659.583   -21882319.03549 -16165793.89847  21012659.219    21012668.612
       240.000         204.000
  23558869.283   -10090102.11149  -7837954.60245  23558868.725    23558880.623
       215.000         162.000
  23384525.932   -10209026.49049  -7933947.58645  23384524.391    23384537.448
       211.000         154.000
  21364975.339   -24632379.84449 -16476197.07147  21364974.716    21364983.832
       242.000         206.000
 00  4 20  2  5  0.0000000  0  8G23G 3G 9G17G29G31G15G21
  21459750.134   -20902495.53449 -15969397.09247  21459749.814    21459758.878
       240.000         204.000
  21615991.591   -21843266.90549 -16991850.07147  21615991.151    21616001.287
       238.000         198.000
  23559825.094   -12123851.81849  -9430919.69645  23559825.063    23559836.266
       216.000         159.000
  21952940.256   -19113954.62649 -14877253.25946  21952939.826    21952950.689
       232.000         186.000
  21000588.834   -21945750.86149 -16215221.19747  21000588.465    21000597.764
       240.000         205.000
  23545737.063   -10159111.99249  -7891728.41045  23545736.196    23545749.312
       215.000         162.000
  23366827.493   -10302031.64649  -8006418.95545  23366825.453    23366838.970
       212.000         154.000
  21360341.254   -24656731.98349 -16495172.71947  21360340.494    21360350.062
       242.000         206.000
 00  4 20  2  5 30.0000000  0  8G23G 3G 9G17G29G31G15G21
  21466939.445   -20864715.37249 -15939958.00047  21466938.837    21466947.971
       240.000         204.000
  21613491.002   -21856407.53349 -17002089.50147  21613490.672    21613500.358
       239.000         198.000
  23555261.944   -12147830.66549  -9449604.40745  23555261.442    23555273.729
       217.000         159.000
  21964719.014   -19052056.95649 -14829021.34546  21964718.702    21964729.168
       232.000         186.000
  20988603.073   -22008736.20949 -16264300.57947  20988602.523    20988611.857
       240.000         205.000
  23532697.122   -10227637.21249  -7945124.56345  23532695.704    23532708.665
       217.000         162.000
  23349137.310   -10394993.45049  -8078856.55345  23349136.379    23349148.852
       212.000         155.000
  21355739.913   -24680911.86549 -16514014.13947  21355739.189    21355748.550
       242.000         206.000
 00  4 20  2  6  0.0000000  0  8G23G 3G 9G17G29G31G15G21
  21474152.135   -20826812.54449 -15910423.33047  21474151.454    21474160.980
       240.000         204.000
  21611098.355   -21868980.89049 -17011886.90247  21611097.908    21611108.067
       239.000         198.000
  23550794.535   -12171306.82549  -9467897.40245  23550794.174    23550805.979
       217.000         158.000
  21976562.605   -18989818.83849 -14780524.15546  21976562.422    21976573.037
       231.000         186.000
  20976701.154   -22071280.76349 -16313036.48747  20976700.552    20976709.890
       240.000         205.000
  23519744.349   -10295704.02649  -7998163.52045  23519743.410    23519755.808
       217.000         162.000
  23331452.740   -10487925.69949  -8151271.12245  23331451.502    23331464.747
       213.000         156.000
  21351168.030   -24704937.13549 -16532735.08247  21351167.384    21351176.585
       242.000         206.000
 00  4 20  2  6 30.0000000  0  8G23G 3G 9G17G29G31G15G21
  21481379.428   -20788832.67149 -15880828.62547  21481378.821    21481388.063
       240.000         204.000
  21608814.573   -21880982.26349 -17021238.59747  21608814.389    21608824.107
       238.000         198.000
  23546421.871   -12194285.14649  -9485802.48245  23546421.492    23546433.169
       216.000         158.000
  21988468.047   -18927255.61949 -14731773.63246  21988467.211    21988478.757
       231.000         185.000
  20964880.357   -22133398.99149 -16361440.20147  20964879.976    20964889.414
       240.000         205.000
  23506875.153   -10363331.73649  -8050860.32446  23506874.160    23506887.329
       216.000         163.000
  23313771.496   -10580840.45649  -8223672.06245  23313770.373    23313783.732
       215.000         157.000
  21346625.364   -24728808.97549 -16551336.47247  21346625.049    21346634.245
       242.000         206.000
 00  4 20  2  7  0.0000000  0  8G23G 3G 9G17G29G31G15G21
  21488616.678   -20750800.72849 -15851193.34447  21488615.991    21488625.528
       239.000         204.000
  21606640.089   -21892409.16349 -17030142.64547  21606639.485    21606649.646
       238.000         198.000
  23542140.018   -12216786.04149  -9503335.53545  23542140.185    23542150.875
       217.000         158.000
  22000433.199   -18864378.37249 -14682778.41246  22000432.857    22000443.393
       230.000         185.000
  20953138.367   -22195103.23149 -16409521.32347  20953137.944    20953147.226
       240.000         206.000
  23494084.590   -10430546.51649  -8103235.35746  23494083.365    23494096.331
       219.000         163.000
  23296090.602   -10673753.64949  -8296071.78645  23296089.753    23296102.138
       216.000         159.000
  21342110.007   -24752537.10049 -16569825.87647  21342109.275    21342118.767
       242.000         207.000
 00  4 20  2  7 30.0000000  0  8G23G 3G 9G17G29G31G15G21
  21495864.782   -20712711.64849 -15821513.54147  21495864.193    21495873.651
       240.000         203.000
  21604574.385   -21903264.40849 -17038601.25047  21604573.885    21604583.743
       238.000         198.000
  23537949.400   -12238807.26049  -9520494.82645  23537949.237    23537960.559
       219.000         158.000
  22012458.569   -18801184.78749 -14633536.69546  22012458.222    22012468.655
       230.000         185.000
  20941474.167   -22256398.61049 -16457283.85047  20941473.859    20941482.943
       240.000         206.000
  23481368.032   -10497371.82349  -8155306.91046  23481366.918    23481379.009
       220.000         163.000
  23278409.410   -10766668.58849  -8368472.86745  23278408.323    23278421.587
       216.000         160.000
  21337622.371   -24776119.72249 -16588201.90147  21337621.742    21337631.023
       242.000         207.000
 00  4 20  2  8  0.0000000  0  8G23G 3G 9G17G29G31G15G21
  21503128.104   -20674542.56049 -15791771.39447  21503127.565    21503136.872
       239.000         203.000
  21602617.723   -21913546.71349 -17046613.41147  21602617.349    21602627.202
       238.000         198.000
  23533852.349   -12260336.82049  -9537270.98645  23533852.183    23533864.211
       218.000         158.000
  22024542.794   -18737681.97649 -14584054.02746  22024542.347    22024552.850
       230.000         185.000
  20929890.295   -22317271.87949 -16504717.46547  20929890.119    20929898.911
       241.000         206.000
  23468728.288   -10563793.94749  -8207064.29946  23468727.428    23468739.275
       219.000         163.000
  23260729.272   -10859577.66149  -8440869.38345  23260727.823    23260741.259
       218.000         161.000
  21333166.248   -24799536.66749 -16606448.82847  21333165.627    21333175.201
       242.000         207.000
 00  4 20  2  8 30.0000000  0  8G23G 3G 9G17G29G31G15G21
  21510409.748   -20636277.31549 -15761954.32247  21510409.314    21510418.414
       240.000         203.000
  21600769.333   -21923259.81349 -17054182.03447  21600768.829    21600778.752
       238.000         199.000
  23529850.553   -12281366.21849  -9553657.43045  23529850.344    23529861.340
       217.000         158.000
  22036686.996   -18673863.82049 -14534325.62646  22036686.429    22036697.297
       229.000         184.000
  20918389.403   -22377709.07849 -16551811.28847  20918389.360    20918398.148
       240.000         206.000
  23456171.156   -10629781.80849  -8258483.30946  23456170.231    23456182.710
       220.000         164.000
  23243052.627   -10952468.38849  -8513251.60945  23243051.520    23243064.352
       218.000         162.000
  21328746.395   -24822762.99949 -16624547.22947  21328746.026    21328755.261
       242.000         207.000
 00  4 20  2  9  0.0000000  0  8G23G 3G 9G17G29G31G15G21
  21517716.999   -20597877.52049 -15732032.40947  21517716.575    21517725.690
       240.000         203.000
  21599028.689   -21932406.76949 -17061309.50947  21599028.414    21599038.177
       238.000         199.000
  23525945.653   -12301886.12649  -9569646.85345  23525945.996    23525957.144
       218.000         158.000
  22048891.150   -18609730.80949 -14484351.88746  22048890.261    22048901.080
       229.000         184.000
  20906977.153   -22437680.48049 -16598542.14947  20906976.831    20906986.016
       240.000         207.000
  23443702.001   -10695307.09349  -8309541.87846  23443700.784    23443713.159
       220.000         164.000
  23225382.348   -11045325.74949  -8585607.83245  23225381.183    23225394.035
       218.000         162.000
  21324364.391   -24845790.25649 -16642490.50647  21324363.810    21324372.963
       242.000         207.000
 00  4 20  2  9 30.0000000  0  8G23G 3G 9G17G29G31G15G21
  21525053.973   -20559321.51749 -15701988.76647  21525053.366    21525062.814
       241.000         203.000
  21597397.833   -21940976.68749 -17067987.32747  21597397.513    21597407.301
       239.000         199.000
  23522141.917   -12321874.66449  -9585222.23245  23522141.061    23522152.459
       218.000         158.000
  22061154.787   -18545285.17449 -14434134.54246  22061154.531    22061164.706
       230.000         184.000
  20895657.254   -22497166.70349 -16644894.94247  20895656.758    20895665.757
       241.000         207.000
  23431326.389   -10760341.14049  -8360217.66046  23431325.591    23431338.018
       222.000         164.000
  23207722.095   -11138130.25849  -8657922.88146  23207721.369    23207733.272
       220.000         163.000
  21320023.704   -24868600.53449 -16660264.70247  21320023.235    21320032.488
       243.000         207.000
 00  4 20  2 10  0.0000000  0  8G23G 3G 9G17G29G31G15G21
  21532419.743   -20520614.20449 -15671827.22447  21532419.176    21532428.464
       241.000         203.000
  21595879.130   -21948957.25749 -17074205.92847  21595878.644    21595888.752
       240.000         199.000
  23518438.765   -12341334.45949  -9600385.60945  23518436.885    23518450.471
       219.000         158.000
  22073481.129   -18480509.84149 -14383660.27846  22073480.018    22073491.585
       231.000         183.000
  20884431.399   -22556158.57449 -16690862.53847  20884430.909    20884439.966
       243.000         207.000
  23419050.112   -10824853.15349  -8410486.66746  23419049.060    23419061.558
       222.000         164.000
  23190073.983   -11230871.14149  -8730188.35446  23190073.096    23190085.995
       219.000         163.000
  21315725.031   -24891190.03349 -16677866.86947  21315724.391    21315733.800
       244.000         207.000
 00  4 20  2 10 30.0000000  0  8G23G 3G 9G17G29G31G15G21
  21539812.891   -20481762.95049 -15641553.52747  21539812.268    21539821.718
       239.000         203.000
  21594474.114   -21956340.64949 -17079959.20247  21594474.087    21594483.803
       238.000         199.000
  23514834.665   -12360273.93149  -9615143.53245  23514835.328    23514845.155
       218.000         158.000
  22085871.319   -18415399.12449 -14332924.70046  22085871.549    22085881.422
       228.000         183.000
  20873297.963   -22614664.82649 -16736451.73347  20873297.757    20873306.569
       241.000         207.000
  23406871.592   -10888851.46449  -8460355.37946  23406870.621    23406882.903
       221.000         163.000
  23172437.030   -11323553.34149  -8802408.10446  23172436.276    23172448.320
       219.000         164.000
  21311463.643   -24913583.57349 -16695316.35247  21311463.051    21311472.137
       242.000         207.000
 00  4 20  2 11  0.0000000  0  8G23G 3G 9G17G29G31G15G21
  21547232.200   -20442774.18749 -15611172.67047  21547231.532    21547240.793
       239.000         203.000
  21593185.609   -21963111.85649 -17085235.44347  21593185.309    21593195.075
       238.000         199.000
  23511330.462   -12378688.24549  -9629492.24045  23511329.825    23511340.780
       219.000         158.000
  22098325.418   -18349952.44849 -14281927.32346  22098324.448    22098336.285
       228.000         183.000
  20862255.336   -22672693.68349 -16781668.92747  20862254.871    20862263.980
       241.000         207.000
  23394786.198   -10952359.96349  -8509842.43246  23394785.837    23394796.482
       221.000         163.000
  23154810.626   -11416180.07249  -8874584.63646  23154808.869    23154822.461
       220.000         164.000
  21307235.995   -24935799.86049 -16712627.70547  21307235.378    21307244.752
       243.000         207.000
 00  4 20  2 11 30.0000000  0  8G23G 3G 9G17G29G31G15G21
  21554669.572   -20403690.53249 -15580717.87247  21554669.203    21554678.420
       241.000         202.000
  21592012.572   -21969276.15749 -17090038.77247  21592012.341    21592022.273
       241.000         199.000
  23507925.891   -12396578.62749  -9643432.68545  23507925.142    23507936.503
       220.000         158.000
  22110845.135   -18284160.93549 -14230661.23346  22110844.321    22110855.837
       230.000         182.000
  20851298.589   -22730271.38349 -16826534.56847  20851298.237    20851307.295
       243.000         207.000
  23382790.555   -11015397.06249  -8558962.14946  23382790.451    23382801.292
       223.000         164.000
  23137192.256   -11508764.63049  -8946728.30346  23137191.176    23137203.448
       222.000         164.000
  21303038.393   -24957858.31049 -16729816.06847  21303037.804    21303047.038
       245.000         208.000
 00  4 20  2 12  0.0000000  0  8G23G 3G 9G17G29G31G15G21
  21562120.453   -20364535.85249 -15550207.72047  21562119.495    21562129.040
       241.000         202.000
  21590950.719   -21974856.15949 -17094386.79747  21590949.816    21590960.041
       240.000         199.000
  23504616.668   -12413968.28949  -9656982.95745  23504616.003    23504627.426
       219.000         158.000
  22123431.415   -18218019.63149 -14179122.57946  22123430.028    22123442.002
       229.000         182.000
  20840425.425   -22787409.96249 -16871058.02747  20840424.524    20840433.933
       242.000         207.000
  23370879.001   -11077992.45849  -8607737.68146  23370878.378    23370890.366
       221.000         163.000
  23119578.114   -11601327.15949  -9018854.79846  23119576.690    23119589.909
       220.000         164.000
  21298864.472   -24979792.29149 -16746907.43547  21298863.314    21298873.022
       244.000         208.000
 00  4 20  2 12 30.0000000  0  8G23G 3G 9G17G29G31G15G21
  21569585.088   -20325309.02949 -15519641.38047  21569584.507    21569593.809
       239.000         202.000
  21589997.029   -21979867.77949 -17098291.95047  21589996.776    21590006.434
       238.000         199.000
  23501402.627   -12430857.61049  -9670143.37345  23501401.538    23501414.210
       219.000         158.000
  22136079.929   -18151551.34349 -14127329.16446  22136079.171    22136090.521
       229.000         182.000
  20829634.692   -22844115.14349 -16915243.80047  20829634.454    20829643.181
       241.000         207.000
  23359046.285   -11140173.41249  -8656190.28246  23359046.079    23359057.110
       219.000         163.000
  23101966.342   -11693877.09749  -9090971.49246  23101965.082    23101978.406
       220.000         164.000
  21294713.120   -25001607.71049 -16763906.44047  21294712.507    21294721.904
       243.000         208.000
 00  4 20  2 13  0.0000000  0  8G23G 3G 9G17G29G31G15G21
  21577061.269   -20286021.48849 -15489027.70547  21577060.672    21577069.900
       239.000         202.000
  21589148.986   -21984324.23949 -17101764.49947  21589148.873    21589158.508
       239.000         199.000
  23498283.833   -12447246.67649  -9682913.96245  23498282.797    23498294.111
       218.000         158.000
  22148791.274   -18084753.03149 -14075278.56246  22148790.941    22148801.932
       228.000         182.000
  20818926.503   -22900386.71749 -16959091.67847  20818926.317    20818935.116
       241.000         207.000
  23347293.816   -11201932.57149  -8704314.19345  23347292.865    23347304.753
       220.000         162.000
  23084357.176   -11786413.31749  -9163077.49646  23084356.413    23084368.857
       220.000         163.000
  21290585.760   -25023297.13349 -16780807.25047  21290585.115    21290594.467
       243.000         208.000
 00  4 20  2 13 30.0000000  0  8G23G 3G 9G17G29G31G15G21
  21584550.090   -20246667.29649 -15458362.10647  21584549.517    21584558.706
       239.000         202.000
  21588405.008   -21988233.76449 -17104810.87647  21588404.698    21588414.653
       239.000         199.000
  23495257.773   -12463148.06649  -9695304.54745  23495257.112    23495268.378
       218.000         158.000
  22161565.827   -18017622.44849 -14022969.07646  22161565.368    22161576.554
       228.000         182.000
  20808302.464   -22956215.96649 -17002594.89647  20808302.182    20808311.024
       241.000         207.000
  23335623.456   -11263260.23049  -8752101.86645  23335622.814    23335634.760
       219.000         162.000
  23066750.656   -11878935.74849  -9235172.73846  23066749.422    23066762.174
       220.000         163.000
  21286481.534   -25044864.80349 -16797613.19247  21286481.016    21286490.148
       242.000         208.000
 00  4 20  2 14  0.0000000  0  8G23G 3G 9G17G29G31G15G21
  21592056.606   -20207220.23549 -15427624.13447  21592056.440    21592065.407
       240.000         202.000
  21587767.020   -21991586.42249 -17107423.33147  21587766.770    21587776.822
       239.000         199.000
  23492323.406   -12478567.73149  -9707319.75745  23492322.773    23492334.510
       219.000         158.000
  22174401.275   -17950171.77149 -13970410.14846  22174400.742    22174411.701
       229.000         182.000
  20797764.329   -23011593.90949 -17045746.44447  20797764.207    20797772.970
       242.000         208.000
  23324035.418   -11324155.10049  -8799552.30345  23324034.877    23324045.695
       220.000         162.000
  23049148.294   -11971436.22549  -9307250.88146  23049146.508    23049159.477
       220.000         163.000
  21282402.728   -25066298.90149 -16814315.05147  21282402.309    21282411.506
       243.000         208.000
 00  4 20  2 14 30.0000000  0  8G23G 3G 9G17G29G31G15G21
  21599583.609   -20167665.62949 -15396802.35747  21599583.210    21599592.263
       239.000         201.000
  21587239.251   -21994359.65849 -17109584.28347  21587238.806    21587248.519
       238.000         199.000
  23489486.472   -12493475.46549  -9718936.05845  23489486.647    23489497.030
       218.000         158.000
  22187298.629   -17882395.94149 -13917597.84846  22187297.903    22187309.403
       228.000         181.000
  20787312.964   -23066515.66849 -17088542.51647  20787312.573    20787321.447
       241.000         208.000
  23312537.272   -11384577.67749  -8846634.72045  23312536.847    23312549.131
       219.000         161.000
  23031554.681   -12063890.66149  -9379293.14046  23031553.517    23031565.942
       219.000         163.000
  21278354.675   -25087571.55349 -16830891.10147  21278354.242    21278363.115
       243.000         208.000
 00  4 20  2 15  0.0000000  0  8G23G 3G 9G17G29G31G15G21
  21607129.822   -20128010.03649 -15365901.88647  21607129.496    21607138.588
       240.000         201.000
  21586822.433   -21996549.87949 -17111290.94047  21586821.974    21586831.949
       240.000         199.000
  23486746.543   -12507873.58149  -9730155.25245  23486745.884    23486758.052
       219.000         158.000
  22200256.791   -17814300.56949 -13864536.55246  22200256.642    22200267.420
       229.000         181.000
  20776948.180   -23120982.58649 -17130984.17047  20776947.608    20776956.614
       243.000         208.000
  23301131.379   -11444515.72249  -8893339.57045  23301130.583    23301142.525
       220.000         161.000
  23013969.805   -12156299.19549  -9451299.61745  23013967.932    23013981.394
       220.000         162.000
  21274333.967   -25108700.28149 -16847355.00547  21274333.246    21274342.588
       244.000         208.000
 00  4 20  2 15 30.0000000  0  8G23G 3G 9G17G29G31G15G21
  21614696.760   -20088245.50049 -15334916.53147  21614696.257    21614705.360
       239.000         201.000
  21586517.402   -21998152.79049 -17112539.96047  21586517.085    21586527.158
       238.000         199.000
  23484104.310   -12521758.06449  -9740974.23045  23484103.633    23484114.849
       217.000         158.000
  22213271.440   -17745908.35849 -13811243.96346  22213271.352    22213282.150
       228.000         181.000
  20766670.156   -23174993.72449 -17173070.67947  20766669.944    20766678.451
       241.000         208.000
  23289818.244   -11503966.14549  -8939664.45945  23289817.645    23289829.151
       219.000         161.000
  22996394.323   -12248658.43249  -9523267.70045  22996392.569    22996406.050
       218.000         162.000
  21270342.093   -25129677.42749 -16863700.79947  21270341.599    21270350.812
       243.000         208.000
 00  4 20  2 16  0.0000000  0  8G23G 3G 9G17G29G31G15G21
  21622285.141   -20048368.24649 -15303843.34547  21622284.754    21622294.039
       239.000         201.000
  21586323.844   -21999169.94949 -17113332.54747  21586323.689    21586333.700
       239.000         199.000
  23481563.760   -12535108.02749  -9751376.69845  23481563.042    23481574.432
       217.000         158.000
  22226342.237   -17677221.05049 -13757721.42746  22226342.004    22226352.790
       227.000         181.000
  20756479.149   -23228547.25949 -17214800.61447  20756479.129    20756487.737
       241.000         208.000
  23278600.880   -11562913.28349  -8985597.17745  23278600.520    23278611.665
       218.000         161.000
  22978830.706   -12340954.96349  -9595186.90245  22978829.048    22978842.889
       219.000         161.000
  21266383.176   -25150481.54149 -16879911.76247  21266382.899    21266391.962
       243.000         208.000
 00  4 20  2 16 30.0000000  0  8G23G 3G 9G17G29G31G15G21
  21629893.621   -20008385.43349 -15272687.88747  21629892.827    21629901.935
       239.000         201.000
  21586239.765   -21999611.88849 -17113676.89547  21586239.357    21586248.915
       240.000         199.000
  23479126.896   -12547913.41749  -9761354.81645  23479126.839    23479137.253
       219.000         158.000
  22239470.870   -17608229.67749 -13703961.94246  22239470.215    22239481.093
       228.000         181.000
  20746374.073   -23281649.42749 -17256178.81847  20746373.455    20746382.257
       242.000         208.000
  23267481.561   -11621344.96649  -9031128.22945  23267480.798    23267492.372
       219.000         161.000
  22961279.203   -12433188.14649  -9667056.75345  22961277.458    22961289.069
       220.000         161.000
  21262456.986   -25171113.69549 -16895988.71647  21262456.008    21262465.454
       244.000         208.000
 00  4 20  2 17  0.0000000  0  8G23G 3G 9G17G29G31G15G21
  21637522.990   -19968292.71049 -15241446.81647  21637522.485    21637531.876
       239.000         201.000
  21586264.250   -21999483.37049 -17113576.75947  21586264.090    21586274.033
       239.000         199.000
  23476793.080   -12560177.52049  -9770911.16345  23476792.415    23476804.274
       218.000         158.000
  22252657.830   -17538931.76749 -13649963.62746  22252657.396    22252668.834
       227.000         180.000
  20736357.877   -23334284.49249 -17297193.07647  20736357.538    20736366.138
       241.000         209.000
  23256458.028   -11679273.37049  -9076267.14245  23256457.100    23256469.118
       219.000         161.000
  22943739.416   -12525359.73849  -9738878.62145  22943738.430    22943750.831
       218.000         162.000
  21258563.689   -25191572.93349 -16911930.95947  21258563.323    21258572.332
       243.000         208.000
 00  4 20  2 17 30.0000000  0  8G23G 3G 9G17G29G31G15G21
  21645173.492   -19928089.12849 -15210119.34847  21645172.919    21645182.124
       238.000         201.000
  21586396.623   -21998787.86649 -17113034.79047  21586396.449    21586405.879
       239.000         199.000
  23474563.468   -12571893.79749  -9780040.63645  23474563.248    23474574.357
       217.000         157.000
  22265907.730   -17469303.26249 -13595707.68946  22265907.233    22265918.254
       227.000         180.000
  20726430.819   -23386451.16549 -17337842.33747  20726430.451    20726439.081
       241.000         209.000
  23245528.970   -11736705.57049  -9121019.40045  23245527.656    23245540.382
       218.000         161.000
  22926211.409   -12617469.24749  -9810652.09845  22926210.974    22926222.404
       218.000         162.000
  21254706.736   -25211841.17849 -16927724.35847  21254706.133    21254715.399
       243.000         208.000
 00  4 20  2 18  0.0000000  0  8G23G 3G 9G17G29G31G15G21
  21652844.880   -19887775.67349 -15178706.27247  21652844.368    21652853.369
       238.000         201.000
  21586637.046   -21997524.29049 -17112050.17847  21586636.852    21586646.279
       239.000         199.000
  23472439.548   -12583054.77049  -9788737.39445  23472438.829    23472449.309
       218.000         158.000
  22279226.060   -17399314.91349 -13541171.34946  22279225.633    22279236.629
       228.000         180.000
  20716593.597   -23438145.76149 -17378123.75447  20716593.271    20716601.815
       241.000         209.000
  23234693.502   -11793645.83749  -9165388.32845  23234692.407    23234704.765
       218.000         161.000
  22908695.212   -12709516.80949  -9882377.31846  22908693.322    22908706.727
       219.000         163.000
  21250882.916   -25231935.25249 -16943382.04547  21250882.460    21250891.457
       243.000         208.000
 00  4 20  2 18 30.0000000  0  8G23G 3G 9G17G29G31G15G21
  21660534.449   -19847366.74049 -15147218.79047  21660533.745    21660543.195
       239.000         201.000
  21586984.439   -21995698.55149 -17110627.50847  21586984.402    21586994.187
       239.000         199.000
  23470418.030   -12593677.42049  -9797014.69445  23470417.688    23470428.404
       218.000         157.000
  22292611.240   -17328975.48749 -13486361.44646  22292610.647    22292621.599
       227.000         179.000
  20706845.903   -23489369.77349 -17418038.47847  20706845.789    20706854.421
       241.000         209.000
  23223948.879   -11850108.62649  -9209385.20945  23223947.905    23223960.165
       218.000         162.000
  22891188.194   -12801516.05549  -9954064.88146  22891187.631    22891199.542
       218.000         163.000
  21247088.480   -25251875.11649 -16958919.56747  21247087.717    21247096.944
       243.000         208.000
 00  4 20  2 19  0.0000000  0  8G23G 3G 9G17G29G31G15G21
  21668241.689   -19806864.87849 -15115658.89847  21668241.109    21668250.246
       240.000         200.000
  21587440.101   -21993303.98049 -17108761.60647  21587439.936    21587449.579
       238.000         199.000
  23468497.036   -12603772.05649  -9804880.54645  23468497.277    23468507.217
       218.000         157.000
  22306061.138   -17258295.91249 -13431286.48046  22306061.165    22306072.150
       226.000         179.000
  20697191.999   -23540100.97649 -17457569.19547  20697191.722    20697200.386
       241.000         209.000
  23213294.671   -11906096.70649  -9253012.18245  23213294.211    23213305.350
       218.000         162.000
  22873690.660   -12893465.53449 -10025713.68346  22873689.674    22873701.638
       218.000         164.000
  21243323.483   -25271660.11249 -16974336.41347  21243322.924    21243332.181
       243.000         208.000
 00  4 20  2 19 30.0000000  0  8G23G 3G 9G17G29G31G15G21
  21675966.168   -19766272.48849 -15084028.46447  21675965.771    21675975.187
       238.000         200.000
  21588005.520   -21990332.85049 -17106446.44347  21588005.465    21588014.908
       238.000         199.000
  23466675.630   -12613343.21449  -9812338.49745  23466675.379    23466685.879
       217.000         157.000
  22319575.419   -17187278.12349 -13375947.98146  22319575.330    22319586.121
       227.000         179.000
  20687629.932   -23590349.75949 -17496724.00747  20687629.542    20687638.274
       241.000         210.000
  23202732.947   -11961598.51649  -9296260.24846  23202732.672    23202743.602
       219.000         163.000
  22856203.241   -12985361.81749 -10097321.02546  22856202.091    22856214.159
       220.000         164.000
  21239588.197   -25291289.13849 -16989631.72547  21239587.540    21239596.730
       243.000         208.000
 00  4 20  2 20  0.0000000  0  8G23G 3G 9G17G29G31G15G21
  21683705.724   -19725601.08149 -15052336.46047  21683705.213    21683714.159
       238.000         200.000
  21588682.390   -21986775.77349 -17103674.70647  21588682.096    21588691.887
       238.000         199.000
  23464953.329   -12622393.42049  -9819390.52345  23464952.352    23464964.640
       218.000         157.000
  22333149.284   -17115947.06349 -13320365.39546  22333149.093    22333160.141
       226.000         178.000
  20678158.889   -23640120.16049 -17535506.06047  20678158.649    20678167.140
       241.000         210.000
  23192267.920   -12016592.27149  -9339112.43946  23192266.978    23192278.301
       218.000         164.000
  22838727.147   -13077198.80649 -10168882.17346  22838726.169    22838738.485
       220.000         165.000
  21235882.203   -25310764.15149 -17004807.03147  21235881.745    21235890.739
       242.000         208.000
 00  4 20  2 20 30.0000000  0  8G23G 3G 9G17G29G31G15G21
  21691458.744   -19684858.52149 -15020588.99647  21691458.116    21691467.254
       239.000         200.000
  21589471.363   -21982629.53749 -17100443.86747  21589470.670    21589480.889
       239.000         199.000
  23463327.460   -12630937.10649  -9826047.85345  23463326.577    23463338.200
       219.000         157.000
  22346779.122   -17044322.04049 -13264553.71246  22346777.718    22346789.431
       226.000         178.000
  20668778.512   -23689413.90449 -17573916.67347  20668778.053    20668786.602
       243.000         210.000
  23181900.847   -12071071.15349  -9381563.42146  23181899.795    23181910.674
       219.000         164.000
  22821262.914   -13168973.45249 -10240394.74046  22821261.489    22821273.899
       222.000         166.000
  21232208.462   -25330069.54749 -17019850.14947  21232207.279    21232217.042
       244.000         208.000
 00  4 20  2 21  0.0000000  0  8G23G 3G 9G17G29G31G15G21
  21699225.520   -19644043.89149 -14988785.39247  21699225.079    21699234.027
       238.000         200.000
  21590375.670   -21977877.27349 -17096740.82947  21590375.534    21590385.092
       239.000         198.000
  23461799.803   -12638964.54149  -9832302.90345  23461799.224    23461810.394
       218.000         157.000
  22360467.344   -16972389.98349 -13208502.80446  22360466.241    22360477.657
       226.000         177.000
  20659488.214   -23738234.51249 -17611958.63447  20659487.784    20659496.587
       242.000         210.000
  23171634.159   -12125022.62049  -9423603.45046  23171633.612    23171644.780
       219.000         165.000
  22803811.876   -13260678.65749 -10311853.21446  22803811.050    22803822.729
       221.000         167.000
  21228567.750   -25349201.66149 -17034758.26947  21228567.109    21228576.365
       243.000         208.000
 00  4 20  2 21 30.0000000  0  8G23G 3G 9G17G29G31G15G21
  21707004.921   -19603162.94549 -14956930.10347  21707004.184    21707013.692
       239.000         200.000
  21591393.414   -21972529.02749 -17092573.38047  21591393.060    21591403.083
       238.000         198.000
  23460372.109   -12646466.43349  -9838148.43545  23460371.163    23460382.844
       217.000         158.000
  22374214.548   -16900148.19949 -13152210.53946  22374214.544    22374225.382
       225.000         177.000
  20650284.048   -23786602.37249 -17649647.79747  20650283.856    20650292.295
       242.000         210.000
  23161464.762   -12178463.00149  -9465245.22246  23161464.022    23161475.508
       219.000         165.000
  22786372.418   -13352323.19249 -10383264.41346  22786371.163    22786382.827
       221.000         167.000
  21224954.790   -25368187.60749 -17049552.48147  21224954.160    21224963.143
       243.000         208.000
 00  4 20  2 22  0.0000000  0  8G23G 3G 9G17G29G31G15G21
  21714796.064   -19562220.13849 -14925026.61247  21714795.460    21714804.675
       239.000         200.000
  21592520.256   -21966607.62949 -17087959.32347  21592520.219    21592529.522
       238.000         198.000
  23459044.169   -12653444.57949  -9843585.86445  23459044.312    23459054.505
       218.000         157.000
  22388019.375   -16827603.41849 -13095682.16446  22388018.727    22388029.754
       226.000         176.000
  20641167.425   -23834510.04149 -17686978.37147  20641167.137    20641175.489
       242.000         211.000
  23151387.730   -12231417.85849  -9506508.65946  23151386.948    23151398.557
       219.000         166.000
  22768943.814   -13443910.67249 -10454631.15446  22768942.549    22768954.488
       222.000         168.000
  21221366.776   -25387042.65549 -17064244.69647  21221366.094    21221375.184
       243.000         209.000
 00  4 20  2 22 30.0000000  0  8G23G 3G 9G17G29G31G15G21
  21722602.525   -19521196.99049 -14893060.51447  21722601.876    21722610.855
       239.000         200.000
  21593754.342   -21960122.51649 -17082906.00847  21593754.285    21593763.798
       239.000         198.000
  23457816.050   -12659898.36049  -9848614.70045  23457814.863    23457826.992
       217.000         157.000
  22401883.838   -16754745.31149 -13038909.65346  22401883.918    22401894.876
       225.000         176.000
  20632141.916   -23881939.22849 -17723936.10047  20632141.616    20632150.171
       242.000         211.000
  23141399.702   -12283905.05649  -9547407.70446  23141398.703    23141410.889
       219.000         166.000
  22751526.402   -13535439.29649 -10525952.04746  22751525.537    22751537.207
       222.000         168.000
  21217801.756   -25405776.91849 -17078842.78847  21217801.112    21217810.300
       243.000         209.000
 00  4 20  2 23  0.0000000  0  8G23G 3G 9G17G29G31G15G21
  21730427.930   -19480074.15249 -14861016.73647  21730427.448    21730436.759
       239.000         199.000
  21595093.389   -21953085.80749 -17077422.88447  21595093.128    21595102.878
       240.000         199.000
  23456690.863   -12665810.83649  -9853221.74445  23456690.671    23456701.350
       219.000         157.000
  22415809.670   -16681565.00849 -12981886.07646  22415808.709    22415819.693
       225.000         176.000
  20623207.430   -23928889.81349 -17760520.89547  20623207.231    20623215.707
       243.000         211.000
  23131501.556   -12335919.58849  -9587938.43146  23131501.265    23131512.732
       221.000         167.000
  22734121.792   -13626900.88949 -10597220.68446  22734120.576    22734132.855
       222.000         169.000
  21214256.194   -25424408.96749 -17093361.23847  21214255.556    21214264.675
       244.000         209.000
 00  4 20  2 23 30.0000000  0  8G23G 3G 9G17G29G31G15G21
  21738272.054   -19438853.12749 -14828896.44947  21738271.578    21738280.790
       238.000         199.000
  21596535.231   -21945509.08649 -17071518.97047  21596535.040    21596544.597
       238.000         198.000
  23455666.847   -12671191.81849  -9857414.63545  23455666.460    23455677.075
       218.000         157.000
  22429795.180   -16608070.86049 -12924617.94646  22429794.686    22429805.270
       223.000         175.000
  20614364.344   -23975360.27849 -17796731.56847  20614364.103    20614372.500
       242.000         211.000
  23121693.955   -12387458.53049  -9628098.57146  23121693.135    23121704.788
       219.000         167.000
  22716731.065   -13718289.19249 -10668432.23546  22716730.095    22716741.611
       221.000         169.000
  21210732.241   -25442927.22249 -17107791.01947  21210731.616    21210740.477
       242.000         209.000
 00  4 20  2 24  0.0000000  0  8G23G 3G 9G17G29G31G15G21
  21746136.550   -19397524.82649 -14796692.57147  21746136.063    21746145.051
       237.000         199.000
  21598081.973   -21937380.84449 -17065185.30147  21598081.549    21598091.374
       238.000         198.000
  23454743.738   -12676042.30249  -9861194.16445  23454743.159    23454753.635
       216.000         157.000
  22443839.808   -16534265.63649 -12867107.40846  22443839.543    22443850.694
       224.000         175.000
  20605612.080   -24021353.43249 -17832570.31447  20605611.932    20605620.219
       242.000         211.000
  23111981.836   -12438495.75549  -9667867.75546  23111981.298    23111993.216
       221.000         167.000
  22699356.739   -13809591.32149 -10739576.62946  22699355.833    22699367.869
       222.000         170.000
  21207235.988   -25461300.13149 -17122107.54047  21207235.376    21207244.470
       243.000         209.000
 00  4 20  2 24 30.0000000  0  8G23G 3G 9G17G29G31G15G21
  21754022.970   -19356081.31949 -14764398.92447  21754022.703    21754031.647
       238.000         199.000
  21599737.200   -21928682.70149 -17058407.56247  21599736.883    21599746.880
       239.000         198.000
  23453924.291   -12680348.27349  -9864549.39645  23453924.456    23453934.617
       218.000         157.000
  22457944.181   -16460146.99749 -12809352.66246  22457943.489    22457954.206
       224.000         174.000
  20596948.397   -24066881.23249 -17868046.44747  20596948.199    20596956.470
       243.000         212.000
  23102371.320   -12488999.28549  -9707221.08146  23102371.061    23102381.338
       221.000         168.000
  22682000.247   -13900799.73249 -10810647.99446  22681999.918    22682010.912
       222.000         171.000
  21203770.801   -25479509.62949 -17136296.73447  21203770.255    21203779.228
       243.000         209.000
 00  4 20  2 25  0.0000000  0  8G23G 3G 9G17G29G31G15G21
  21761929.051   -19314534.71749 -14732024.93347  21761928.470    21761937.701
       240.000         199.000
  21601501.860   -21919409.50249 -17051181.71447  21601501.522    21601511.290
       241.000         198.000
  23453209.179   -12684106.06949  -9867477.48845  23453208.971    23453219.061
       219.000         157.000
  22472107.822   -16385716.74649 -12751355.09246  22472107.304    22472118.199
       226.000         174.000
  20588371.109   -24111955.05649 -17903168.82347  20588370.718    20588379.052
       247.000         212.000
  23092863.446   -12538963.15249  -9746153.89346  23092862.454    23092873.823
       222.000         169.000
  22664661.064   -13991917.27649 -10881648.56546  22664659.683    22664671.655
       225.000         171.000
  21200339.592   -25497540.54049 -17150346.75747  21200338.891    21200347.964
       245.000         209.000
 00  4 20  2 25 30.0000000  0  8G23G 3G 9G17G29G31G15G21
  21769852.395   -19272897.26949 -14699580.17347  21769851.835    21769861.350
       238.000         199.000
  21603379.418   -21909543.01549 -17043493.57847  21603379.182    21603388.842
       239.000         198.000
  23452599.694   -12687308.28249  -9869972.64945  23452599.583    23452609.743
       216.000         157.000
  22486329.715   -16310980.30449 -12693118.94246  22486329.098    22486340.463
       223.000         174.000
  20579882.469   -24156562.88649 -17937928.09947  20579882.124    20579890.484
       245.000         212.000
  23083457.527   -12588391.30949  -9784669.27146  23083456.286    23083467.944
       221.000         169.000
  22647338.909   -14082945.33949 -10952579.40146  22647338.484    22647349.545
       223.000         172.000
  21196947.182   -25515367.66149 -17164237.99947  21196946.619    21196955.588
       242.000         209.000
 00  4 20  2 26  0.0000000  0  8G23G 3G 9G17G29G31G15G21
  21777795.728   -19231154.82049 -14667053.58447  21777795.196    21777804.500
       238.000         199.000
  21605369.568   -21899084.78249 -17035344.34147  21605369.384    21605379.222
       239.000         198.000
  23452101.125   -12689928.20149  -9872014.09545  23452100.459    23452111.511
       218.000         157.000
  22500610.256   -16235935.58449 -12634642.57346  22500609.802    22500620.586
       225.000         174.000
  20571486.037   -24200686.02249 -17972309.69047  20571485.747    20571493.951
       245.000         212.000
  23074152.918   -12637287.18249  -9822769.88446  23074151.777    23074163.384
       221.000         169.000
  22630035.013   -14173877.62049 -11023435.60746  22630033.564    22630045.007
       225.000         173.000
  21193592.563   -25532996.25349 -17177974.53847  21193592.062    21193601.132
       244.000         209.000
 00  4 20  2 26 30.0000000  0  8G23G 3G 9G17G29G31G15G21
  21785757.901   -19189313.16649 -14634449.69747  21785757.234    21785766.585
       237.000         198.000
  21607470.440   -21888044.81149 -17026741.79847  21607470.479    21607480.399
       238.000         198.000
  23451715.198   -12691955.76249  -9873593.95845  23451714.686    23451725.165
       217.000         156.000
  22514951.999   -16160569.31549 -12575915.65646  22514951.903    22514962.841
       224.000         174.000
  20563187.290   -24244295.90349 -18006291.34247  20563186.922    20563195.131
       244.000         212.000
  23064947.517   -12685661.33949  -9860463.96546  23064946.920    23064958.162
       220.000         170.000
  22612749.913   -14264710.99949 -11094214.75046  22612749.329    22612760.452
       224.000         173.000
  21190274.001   -25550435.23349 -17191563.32847  21190273.329    21190282.297
       242.000         209.000
 00  4 20  2 27  0.0000000  0  8G23G 3G 9G17G29G31G15G21
  21793736.471   -19147385.33549 -14601778.65047  21793735.791    21793745.113
       239.000         198.000
  21609682.343   -21876421.43249 -17017684.65047  21609682.468    21609691.810
       239.000         198.000
  23451439.836   -12693402.44849  -9874721.18945  23451439.776    23451450.893
       220.000         156.000
  22529357.331   -16084869.12349 -12516928.52446  22529356.991    22529367.918
       225.000         173.000
  20554988.537   -24287380.35949 -18039863.56447  20554988.348    20554996.548
       247.000         212.000
  23055838.540   -12733528.99549  -9897763.37846  23055837.816    23055848.820
       224.000         170.000
  22595483.235   -14355447.56849 -11164918.44746  22595481.763    22595493.752
       227.000         174.000
  21186989.577   -25567694.90949 -17205012.39447  21186988.773    21186998.078
       245.000         209.000
 00  4 20  2 27 30.0000000  0  8G23G 3G 9G17G29G31G15G21
  21801732.229   -19105367.30649 -14569037.33647  21801731.645    21801741.111
       238.000         198.000
  21612004.514   -21864218.43949 -17008175.84847  21612004.421    21612014.296
       238.000         198.000
  23451275.966   -12694263.55249  -9875392.12745  23451275.310    23451286.158
       216.000         156.000
  22543826.621   -16008832.57549 -12457679.32946  22543826.024    22543837.007
       224.000         173.000
  20546890.577   -24329935.13549 -18073023.05647  20546890.354    20546898.586
       245.000         212.000
  23046825.785   -12780891.27749  -9934668.99146  23046825.215    23046835.924
       221.000         170.000
  22578236.383   -14446080.01049 -11235541.00046  22578235.633    22578247.108
       225.000         174.000
  21183737.936   -25584782.11149 -17218327.07447  21183737.224    21183746.594
       243.000         209.000
 00  4 20  2 28  0.0000000  0  8G23G 3G 9G17G29G31G15G21
  21809745.671   -19063256.32349 -14536223.58047  21809745.128    21809754.592
       238.000         198.000
  21614433.868   -21851452.21649 -16998228.16347  21614433.759    21614443.483
       238.000         198.000
  23451221.602   -12694549.13549  -9875614.60845  23451221.497    23451232.650
       217.000         157.000
  22558361.697   -15932450.41849 -12398160.80846  22558360.742    22558372.376
       224.000         173.000
  20538891.656   -24371969.52849 -18105777.04847  20538891.351    20538899.664
       244.000         212.000
  23037908.538   -12827751.70049  -9971183.55346  23037907.888    23037919.118
       223.000         171.000
  22561008.677   -14536611.60749 -11306084.97746  22561007.909    22561019.239
       225.000         174.000
  21180515.499   -25601716.04049 -17231522.31447  21180514.935    21180524.030
       243.000         209.000
 00  4 20  2 28 30.0000000  0  8G23G 3G 9G17G29G31G15G21
  21817774.542   -19021064.36149 -14503346.73247  21817773.929    21817783.361
       238.000         198.000
  21616972.261   -21838112.84849 -16987833.86447  21616971.952    21616981.936
       238.000         198.000
  23451272.091   -12694283.34649  -9875407.46345  23451271.503    23451282.623
       219.000         157.000
  22572963.662   -15855716.57249 -12338368.25046  22572962.673    22572974.564
       222.000         173.000
  20530986.391   -24413511.76049 -18138147.54547  20530986.154    20530994.329
       245.000         212.000
  23029087.833   -12874104.50349 -10007302.57146  23029087.754    23029098.904
       222.000         171.000
  22543799.287   -14627047.21549 -11376554.15846  22543798.353    22543809.559
       226.000         175.000
  21177322.038   -25618497.76949 -17244598.96047  21177321.665    21177330.458
       243.000         209.000
 00  4 20  2 29  0.0000000  0  8G23G 3G 9G17G29G31G15G21
  21825818.264   -18978794.21949 -14470408.96147  21825817.841    21825826.957
       238.000         198.000
  21619619.817   -21824200.01349 -16976992.70147  21619619.509    21619629.628
       238.000         197.000
  23451424.626   -12693481.50449  -9874782.58945  23451424.127    23451435.463
       217.000         157.000
  22587628.595   -15778651.92649 -12278317.92446  22587627.531    22587638.908
       223.000         172.000
  20523168.621   -24454594.08949 -18170159.67047  20523168.526    20523176.578
       244.000         212.000
  23020365.445   -12919940.87749 -10043019.16946  23020364.273    23020375.834
       223.000         171.000
  22526606.445   -14717395.71549 -11446955.45246  22526605.496    22526617.211
       225.000         175.000
  21174156.865   -25635130.72449 -17257559.67247  21174156.367    21174165.258
       243.000         209.000
 00  4 20  2 29 30.0000000  0  8G23G 3G 9G17G29G31G15G21
  21833879.167   -18936434.14149 -14437401.11147  21833878.630    21833887.712
       238.000         198.000
  21622372.930   -21809732.36249 -16965719.22247  21622372.623    21622382.543
       238.000         198.000
  23451680.770   -12692135.69349  -9873733.85645  23451680.240    23451691.192
       218.000         157.000
  22602352.997   -15701274.96649 -12218024.23146  22602352.017    22602363.664
       223.000         172.000
  20515436.820   -24495224.61949 -18201819.74648  20515436.549    20515444.694
       245.000         213.000
  23011744.255   -12965245.20749 -10078321.18746  23011743.981    23011754.316
       222.000         172.000
  22509431.043   -14807652.57749 -11517285.34546  22509430.476    22509442.096
       225.000         175.000
  21171018.354   -25651623.68249 -17270411.29647  21171017.749    21171026.789
       243.000         209.000
 00  4 20  2 30  0.0000000  0  8G23G 3G 9G17G29G31G15G21
  21841954.859   -18893996.05049 -14404332.47547  21841954.530    21841963.460
       239.000         197.000
  21625230.348   -21794716.46649 -16954018.54147  21625230.335    21625240.065
       238.000         197.000
  23452036.964   -12690263.88049  -9872275.24845  23452036.963    23452047.299
       218.000         157.000
  22617135.093   -15623594.63949 -12157494.15946  22617134.663    22617146.110
       223.000         172.000
  20507787.795   -24535420.24849 -18233140.93748  20507787.614    20507795.566
       246.000         213.000
  23003227.389   -13010001.57449 -10113196.22746  23003226.398    23003237.430
       223.000         172.000
  22492272.138   -14897822.73049 -11587547.65946  22492271.225    22492282.624
       226.000         175.000
  21167904.686   -25667985.98149 -17283161.10847  21167904.165    21167913.307
       244.000         209.000
 00  4 20  2 30 30.0000000  0  8G23G 3G 9G17G29G31G15G21
  21850042.602   -18851494.83849 -14371214.65347  21850042.001    21850051.004
       240.000         197.000
  21628191.684   -21779154.56649 -16941892.40247  21628191.325    21628201.179
       240.000         197.000
  23452491.242   -12687876.29549  -9870414.74545  23452490.938    23452502.260
       219.000         157.000
  22631971.254   -15545630.16749 -12096742.66946  22631971.152    22631982.477
       224.000         172.000
  20500222.217   -24575177.27049 -18264120.36348  20500222.052    20500230.041
       246.000         213.000
  22994815.820   -13054204.21449 -10147639.80446  22994814.701    22994826.557
       224.000         172.000
  22475129.200   -14987908.89449 -11657744.52646  22475127.623    22475139.799
       226.000         175.000
  21164815.356   -25684220.34549 -17295811.23147  21164814.744    21164823.510
       245.000         209.000
 00  4 20  2 31  0.0000000  0  8G23G 3G 9G17G29G31G15G21
  21858143.492   -18808924.37349 -14338042.86647  21858142.933    21858152.023
       238.000         197.000
  21631254.852   -21763057.61649 -16929349.33347  21631254.484    21631264.751
       238.000         197.000
  23453045.271   -12684964.64749  -9868145.88445  23453044.835    23453055.948
       218.000         157.000
  22646859.338   -15467393.12249 -12035778.78646  22646859.505    22646870.281
       223.000         172.000
  20492746.376   -24614462.78849 -18294732.37648  20492746.067    20492754.265
       244.000         213.000
  22986509.034   -13097856.61449 -10181654.61546  22986507.722    22986519.345
       222.000         172.000
  22458002.101   -15077911.77449 -11727876.49646  22458000.929    22458012.480
       225.000         175.000
  21161746.928   -25700344.87749 -17308375.77047  21161746.518    21161755.421
       243.000         209.000
 00  4 20  2 31 30.0000000  0  8G23G 3G 9G17G29G31G15G21
  21866256.848   -18766288.19749 -14304819.86547  21866255.766    21866265.562
       239.000         197.000
  21634418.559   -21746432.15349 -16916394.43347  21634417.984    21634428.101
       239.000         197.000
  23453699.227   -12681527.81149  -9865467.78445  23453698.802    23453709.452
       220.000         157.000
  22661799.852   -15388880.45549 -11974600.14246  22661799.123    22661810.914
       224.000         172.000
  20485364.019   -24653257.06049 -18324961.59348  20485363.468    20485371.568
       245.000         213.000
  22978303.687   -13140975.67249 -10215253.82046  22978303.272    22978314.285
       224.000         172.000
  22440891.829   -15167826.33249 -11797939.61746  22440889.945    22440902.150
       226.000         175.000
  21158697.045   -25716371.82949 -17320864.25947  21158696.309    21158705.406
       244.000         209.000
 00  4 20  2 32  0.0000000  0  8G23G 3G 9G17G29G31G15G21
  21874382.530   -18723587.31549 -14271546.45947  21874381.851    21874391.095
       237.000         197.000
  21637686.959   -21729256.55049 -16903010.87547  21637686.501    21637696.668
       237.000         197.000
  23454455.725   -12677552.28549  -9862369.92945  23454454.729    23454466.108
       219.000         158.000
  22676796.684   -15310071.90849 -11913190.93946  22676796.061    22676807.778
       223.000         172.000
  20478079.670   -24691536.02149 -18354789.28648  20478079.351    20478087.285
       245.000         213.000
  22970198.643   -13183567.81249 -10248442.45146  22970197.993    22970208.963
       223.000         172.000
  22423799.960   -15257644.05249 -11867927.30646  22423798.687    22423810.847
       225.000         175.000
  21155669.667   -25732280.66649 -17333260.72747  21155669.275    21155678.160
       243.000         209.000
 00  4 20  2 32 30.0000000  0  8G23G 3G 9G17G29G31G15G21
  21882519.508   -18680827.19649 -14238226.88347  21882518.997    21882528.013
       237.000         197.000
  21641059.222   -21711535.20649 -16889202.04447  21641058.867    21641069.127
       238.000         197.000
  23455316.563   -12673028.21849  -9858844.62445  23455316.422    23455326.709
       219.000         158.000
  22691848.080   -15230976.49549 -11851558.20246  22691847.741    22691858.869
       223.000         172.000
  20470893.999   -24729296.61949 -18384213.05748  20470893.655    20470901.734
       245.000         213.000
  22962187.528   -13225666.22449 -10281246.34646  22962186.279    22962198.149
       222.000         173.000
  22406725.170   -15347372.06349 -11937845.09146  22406723.768    22406734.741
       225.000         175.000
  21152662.995   -25748080.80849 -17345572.49047  21152662.447    21152671.346
       243.000         209.000
 00  4 20  2 33  0.0000000  0  8G23G 3G 9G17G29G31G15G21
  21890671.226   -18637989.56849 -14204846.92647  21890670.804    21890680.061
       238.000         196.000
  21644538.803   -21693250.04849 -16874953.88647  21644538.588    21644548.327
       238.000         197.000
  23456288.119   -12667922.38749  -9854866.00245  23456287.480    23456298.810
       219.000         158.000
  22706957.261   -15151577.57049 -11789688.97546  22706956.951    22706967.698
       224.000         171.000
  20463806.159   -24766543.25049 -18413236.33548  20463805.782    20463813.962
       245.000         213.000
  22954272.044   -13267262.04249 -10313658.61246  22954270.619    22954282.624
       223.000         173.000
  22389671.140   -15436990.96349 -12007677.84346  22389670.254    22389681.241
       226.000         175.000
  21149681.253   -25763749.80849 -17357782.06947  21149680.831    21149689.758
       243.000         209.000
 00  4 20  2 33 30.0000000  0  8G23G 3G 9G17G29G31G15G21
  21898835.863   -18595084.13349 -14171414.11447  21898835.202    21898844.804
       237.000         196.000
  21648125.393   -21674402.36649 -16860267.38547  21648125.035    21648135.199
       237.000         197.000
  23457371.518   -12662229.05049  -9850429.58345  23457370.900    23457381.966
       219.000         158.000
  22722124.245   -15071874.74449 -11727582.94246  22722123.481    22722135.397
       223.000         171.000
  20456810.967   -24803302.98749 -18441880.21148  20456810.665    20456818.745
       244.000         213.000
  22946452.719   -13308352.80749 -10345677.32846  22946452.182    22946463.580
       223.000         173.000
  22372638.646   -15526496.80149 -12077422.50546  22372637.515    22372648.445
       226.000         175.000
  21146728.503   -25779266.41149 -17369872.88947  21146727.995    21146737.056
       243.000         209.000
 00  4 20  2 34  0.0000000  0  8G23G 3G 9G17G29G31G15G21
  21907014.410   -18552105.75449 -14137924.46447  21907013.870    21907023.164
       238.000         196.000
  21651820.555   -21654984.11549 -16845136.28547  21651820.187    21651830.045
       239.000         197.000
  23458566.213   -12655950.71749  -9845537.32845  23458566.352    23458576.850
       220.000         158.000
  22737350.271   -14991861.49249 -11665235.00046  22737349.490    22737361.087
       224.000         170.000
  20449905.760   -24839589.74549 -18470155.53548  20449905.365    20449913.433
       245.000         213.000
  22938733.021   -13348920.16849 -10377288.18546  22938732.196    22938742.928
       224.000         173.000
  22355627.699   -15615889.31549 -12147078.86446  22355626.512    22355638.562
       226.000         175.000
  21143807.081   -25794618.51849 -17381835.53447  21143806.427    21143815.339
       244.000         209.000
 00  4 20  2 34 30.0000000  0  8G23G 3G 9G17G29G31G15G21
  21915208.173   -18509047.31849 -14104372.43547  21915207.887    21915216.785
       237.000         196.000
  21655622.746   -21635003.59749 -16829567.06447  21655622.574    21655632.108
       238.000         197.000
  23459868.608   -12649106.26949  -9840203.95645  23459868.351    23459878.769
       219.000         159.000
  22752632.279   -14911554.17649 -11602657.91846  22752632.071    22752643.943
       222.000         170.000
  20443087.379   -24875420.42749 -18498075.47748  20443087.065    20443095.141
       244.000         213.000
  22931114.733   -13388954.24249 -10408483.49046  22931113.990    22931125.407
       223.000         174.000
  22338638.409   -15705167.99749 -12216646.52346  22338637.453    22338648.419
       226.000         176.000
  21140915.146   -25809815.64949 -17393677.42147  21140914.689    21140923.589
       243.000         209.000
 00  4 20  2 35  0.0000000  0  8G23G 3G 9G17G29G31G15G21
  21923418.843   -18465900.15649 -14070751.27047  21923418.393    21923427.528
       237.000         196.000
  21659528.979   -21614476.24149 -16813571.73947  21659528.391    21659538.579
       238.000         197.000
  23461276.489   -12641707.82749  -9834438.90145  23461275.517    23461286.984
       218.000         159.000
  22767970.649   -14830950.86349 -11539850.21046  22767970.142    22767981.874
       223.000         170.000
  20436357.144   -24910787.73849 -18525634.35548  20436356.905    20436364.975
       244.000         213.000
  22923601.405   -13428436.78849 -10439249.03746  22923600.741    22923612.167
       223.000         174.000
  22321671.695   -15794328.11349 -12286121.80246  22321670.819    22321682.037
       226.000         176.000
  21138053.502   -25824853.66449 -17405395.31947  21138052.781    21138061.800
       243.000         209.000
 00  4 20  2 35 30.0000000  0  8G23G 3G 9G17G29G31G15G21
  21931648.558   -18422652.71049 -14037051.96247  21931648.116    21931657.078
       237.000         196.000
  21663538.277   -21593407.30949 -16797154.40347  21663538.055    21663547.815
       237.000         197.000
  23462786.709   -12633771.31849  -9828254.54745  23462786.771    23462797.500
       219.000         159.000
  22783366.291   -14750046.45949 -11476807.88546  22783365.984    22783376.972
       222.000         170.000
  20429719.301   -24945669.60249 -18552814.96248  20429719.320    20429727.051
       244.000         213.000
  22916194.330   -13467360.80549 -10469579.37146  22916194.159    22916204.398
       224.000         174.000
  22304728.350   -15883365.42049 -12355501.39946  22304727.448    22304737.868
       226.000         177.000
  21135222.370   -25839731.21749 -17416988.18747  21135221.930    21135230.697
       243.000         210.000
 00  4 20  2 36  0.0000000  0  8G23G 3G 9G17G29G31G15G21
  21939899.614   -18379293.04149 -14003265.20347  21939899.154    21939908.366
       237.000         196.000
  21667652.262   -21571788.22949 -16780308.38747  21667652.107    21667662.246
       238.000         197.000
  23464400.535   -12625290.49649  -9821646.05345  23464400.554    23464410.669
       219.000         159.000
  22798820.795   -14668832.71749 -11413524.51746  22798820.915    22798831.788
       222.000         169.000
  20423176.775   -24980050.33049 -18579605.07548  20423176.529    20423184.454
       244.000         213.000
  22908894.477   -13505721.76449 -10499470.93846  22908894.632    22908904.785
       223.000         174.000
  22287810.350   -15972269.50049 -12424777.18146  22287809.531    22287820.023
       227.000         177.000
  21132421.586   -25854449.24349 -17428456.74447  21132421.089    21132429.857
       243.000         210.000
 00  4 20  2 36 30.0000000  0  8G23G 3G 9G17G29G31G15G21
  21948171.969   -18335821.37849 -13969391.16547  21948171.117    21948180.391
       237.000         195.000
  21671869.467   -21549626.71649 -16763039.68747  21671869.227    21671879.219
       238.000         197.000
  23466120.853   -12616250.00949  -9814601.46545  23466120.343    23466130.798
       218.000         159.000
  22814334.083   -14587310.19449 -11350000.53446  22814333.556    22814344.873
       222.000         169.000
  20416733.844   -25013908.04349 -18605987.63748  20416733.539    20416741.500
       244.000         213.000
  22901700.609   -13543525.54049 -10528928.33646  22901699.194    22901711.016
       224.000         174.000
  22270919.558   -16061030.76749 -12493941.67946  22270918.714    22270929.225
       228.000         177.000
  21129651.048   -25869008.42549 -17439801.52347  21129650.287    21129659.262
       243.000         210.000
 00  4 20  2 37  0.0000000  0  8G23G 3G 9G17G29G31G15G21
  21956464.736   -18292242.59949 -13935433.67047  21956464.066    21956473.591
       237.000         195.000
  21676190.022   -21526922.32249 -16745347.96547  21676189.866    21676199.846
       238.000         197.000
  23467950.566   -12606634.60149  -9807108.88945  23467950.906    23467961.712
       219.000         159.000
  22829909.551   -14505460.66049 -11286221.73546  22829908.853    22829921.042
       221.000         169.000
  20410393.751   -25047225.09649 -18631948.91248  20410393.379    20410401.413
       244.000         213.000
  22894612.950   -13580771.10649 -10557950.77246  22894612.370    22894623.508
       223.000         174.000
  22254057.073   -16149643.22549 -12562990.23846  22254056.347    22254066.915
       227.000         178.000
  21126912.869   -25883397.37749 -17451013.66147  21126912.223    21126921.225
       243.000         210.000
 00  4 20  2 37 30.0000000  0  8G23G 3G 9G17G29G31G15G21
  21964775.830   -18248567.49849 -13901401.11347  21964775.063    21964784.336
       238.000         195.000
  21680616.328   -21503661.74049 -16727222.84447  21680616.212    21680625.904
       239.000         197.000
  23469890.953   -12596437.73349  -9799163.21345  23469890.443    23469901.453
       220.000         159.000
  22845546.040   -14423290.38549 -11222193.00246  22845545.158    22845556.899
       222.000         168.000
  20404154.383   -25080012.91749 -18657497.79148  20404154.098    20404162.162
       246.000         213.000
  22887632.793   -13617451.85049 -10586533.07646  22887632.062    22887642.549
       224.000         174.000
  22237223.201   -16238105.24649 -12631921.56346  22237222.581    22237233.459
       228.000         179.000
  21124206.464   -25897619.48849 -17462095.78547  21124205.847    21124214.812
       245.000         210.000
 00  4 20  2 38  0.0000000  0  8G23G 3G 9G17G29G31G15G21
  21973100.590   -18204820.39449 -13867312.46147  21973100.029    21973109.168
       236.000         195.000
  21685147.285   -21479851.56849 -16708669.48647  21685147.215    21685156.945
       237.000         197.000
  23471942.176   -12585657.98649  -9790763.35345  23471941.803    23471953.050
       220.000         159.000
  22861242.915   -14340803.01549 -11157917.19146  22861242.441    22861254.273
       221.000         168.000
  20398013.037   -25112285.54249 -18682645.23248  20398012.790    20398020.537
       244.000         213.000
  22880759.407   -13653571.03149 -10614677.82146  22880759.080    22880769.237
       222.000         175.000
  22220417.663   -16326418.44649 -12700736.94046  22220416.486    22220427.253
       228.000         179.000
  21121528.360   -25911692.80149 -17473061.97647  21121527.861    21121536.625
       243.000         210.000
 00  4 20  2 38 30.0000000  0  8G23G 3G 9G17G29G31G15G21
  21981436.591   -18161014.52149 -13833178.01447  21981436.268    21981445.232
       236.000         195.000
  21689779.579   -21455508.86949 -16689701.17247  21689779.188    21689789.468
       237.000         197.000
  23474100.605   -12574315.14949  -9781924.71145  23474099.919    23474111.568
       220.000         159.000
  22876999.253   -14258003.05449 -11093397.80646  22876998.573    22877010.794
       221.000         167.000
  20391967.977   -25144052.22449 -18707398.42548  20391967.744    20391975.563
       244.000         214.000
  22873991.780   -13689134.76749 -10642389.74546  22873990.756    22874001.104
       223.000         175.000
  22203638.491   -16414593.18849 -12769444.42446  22203637.072    22203648.544
       229.000         180.000
  21118876.238   -25925629.61749 -17483921.80447  21118875.717    21118884.502
       243.000         210.000
 00  4 20  2 39  0.0000000  0  8G23G 3G 9G17G29G31G15G21
  21989783.176   -18117152.84849 -13799000.07847  21989782.670    21989791.966
       237.000         194.000
  21694513.059   -21430634.31149 -16670318.40947  21694512.881    21694522.821
       237.000         197.000
  23476363.979   -12562420.62949  -9772656.18845  23476364.041    23476374.054
       219.000         159.000
  22892813.212   -14174900.40749 -11028642.55846  22892812.955    22892824.442
       220.000         167.000
  20386014.683   -25175336.71149 -18731775.88148  20386014.616    20386022.452
       245.000         213.000
  22867330.165   -13724141.42549 -10669667.58046  22867329.667    22867339.786
       224.000         175.000
  22186884.928   -16502633.45349 -12838047.11846  22186883.920    22186894.574
       229.000         180.000
  21116250.157   -25939429.71349 -17494675.09347  21116249.535    21116258.420
       243.000         210.000
 00  4 20  2 39 30.0000000  0  8G23G 3G 9G17G29G31G15G21
  21998139.675   -18073239.11749 -13764781.57747  21998139.085    21998148.592
       236.000         194.000
  21699347.965   -21405226.82849 -16650520.38447  21699347.724    21699357.748
       237.000         197.000
  23478732.444   -12549974.11549  -9762957.54445  23478732.492    23478743.192
       219.000         159.000
  22908683.157   -14091503.62649 -10963658.11846  22908682.739    22908694.618
       219.000         166.000
  20380149.710   -25206157.17149 -18755791.75648  20380149.566    20380157.236
       244.000         214.000
  22860771.881   -13758604.99749 -10696522.23046  22860770.628    22860781.654
       224.000         175.000
  22170156.603   -16590540.88949 -12906546.31546  22170155.291    22170166.461
       229.000         181.000
  21113648.216   -25953102.97049 -17505329.54147  21113647.606    21113656.449
       243.000         210.000
 00  4 20  2 40  0.0000000  0  8G23G 3G 9G17G29G31G15G21
  22006506.038   -18029273.52749 -13730522.67347  22006505.423    22006514.763
       236.000         194.000
  21704283.084   -21379292.66949 -16630311.96547  21704282.968    21704292.860
       238.000         196.000
  23481204.524   -12536983.25949  -9752834.75345  23481205.000    23481213.961
       220.000         159.000
  22924609.062   -14007812.69449 -10898444.47446  22924607.894    22924619.269
       219.000         166.000
  20374372.952   -25236513.92349 -18779446.30848  20374372.805    20374380.522
       245.000         214.000
  22854311.277   -13792555.37249 -10722976.99446  22854310.760    22854321.655
       224.000         175.000
  22153451.658   -16678325.55049 -12974949.83846  22153450.885    22153461.172
       231.000         181.000
  21111068.470   -25966659.53549 -17515893.06947  21111067.982    21111076.604
       243.000         210.000
 00  4 20  2 40 30.0000000  0  8G23G 3G 9G17G29G31G15G21
  22014886.310   -17985234.73749 -13696206.72547  22014885.972    22014894.908
       236.000         194.000
  21709321.372   -21352816.32949 -16609681.05747  21709321.010    21709331.005
       238.000         196.000
  23483781.961   -12523438.52549  -9742280.34245  23483780.547    23483792.605
       219.000         159.000
  22940588.900   -13923838.22449 -10833009.88546  22940587.642    22940600.527
       220.000         165.000
  20368684.417   -25266407.18149 -18802739.68948  20368684.123    20368692.008
       243.000         214.000
  22847949.256   -13825987.84949 -10749028.21046  22847948.744    22847959.685
       224.000         175.000
  22136771.017   -16765982.62849 -13043253.94246  22136769.533    22136780.619
       231.000         182.000
  21108514.893   -25980078.46149 -17526349.33747  21108514.470    21108523.197
       244.000         210.000
 00  4 20  2 41  0.0000000  0  8G23G 3G 9G17G29G31G15G21
  22023280.061   -17941125.45349 -13661835.84947  22023279.801    22023288.827
       236.000         194.000
  21714464.990   -21325786.48249 -16588618.84647  21714464.789    21714474.628
       238.000         196.000
  23486466.935   -12509328.23849  -9731285.26345  23486466.987    23486477.169
       221.000         159.000
  22956619.303   -13839598.32449 -10767368.45646  22956618.534    22956630.793
       219.000         165.000
  20363083.860   -25295838.07149 -18825672.78448  20363083.491    20363091.508
       243.000         214.000
  22841685.493   -13858903.83849 -10774676.95246  22841684.371    22841695.715
       224.000         175.000
  22120114.902   -16853510.65649 -13111457.48546  22120114.114    22120124.081
       231.000         183.000
  21105987.755   -25993358.60449 -17536697.46847  21105987.129    21105996.138
       244.000         210.000
 00  4 20  2 41 30.0000000  0  8G23G 3G 9G17G29G31G15G21
  22031687.113   -17896945.99849 -13627410.29647  22031686.281    22031695.658
       236.000         194.000
  21719716.323   -21298190.62249 -16567115.58747  21719715.984    21719725.958
       237.000         196.000
  23489261.817   -12494640.92249  -9719840.55745  23489261.533    23489271.550
       219.000         159.000
  22972700.616   -13755090.74949 -10701518.45746  22972699.641    22972711.777
       219.000         164.000
  20357575.014   -25324786.95849 -18848230.29648  20357574.834    20357582.773
       243.000         214.000
  22835520.902   -13891298.74049 -10799919.67646  22835520.788    22835531.359
       225.000         175.000
  22103484.699   -16940902.45149 -13179554.88146  22103483.667    22103494.463
       231.000         183.000
  21103486.811   -26006501.05449 -17546938.30747  21103486.201    21103494.931
       243.000         210.000
